     2              OBSERVATION DATA    GPS                 RINEX VERSION / TYPE
ASRINEXO V2.9.7 UX USGS/MENLO_PARK 29-JAN-02 16:14          PGM / RUN BY / DATE
                                                            COMMENT
BIT 2 OF LLI (+4) FLAGS DATA COLLECTED UNDER "AS" CONDITION COMMENT
BIT 2 OF LLI (+4) FLAGS DATA COLLECTED UNDER "AS" CONDITION COMMENT
BIT 2 OF LLI (+4) FLAGS DATA COLLECTED UNDER "AS" CONDITION COMMENT
BIT 2 OF LLI (+4) FLAGS DATA COLLECTED UNDER "AS" CONDITION COMMENT
BIT 2 OF LLI (+4) FLAGS DATA COLLECTED UNDER "AS" CONDITION COMMENT
BIT 2 OF LLI (+4) FLAGS DATA COLLECTED UNDER "AS" CONDITION COMMENT
BIT 2 OF LLI (+4) FLAGS DATA COLLECTED UNDER "AS" CONDITION COMMENT
BIT 2 OF LLI (+4) FLAGS DATA COLLECTED UNDER "AS" CONDITION COMMENT
Original Marker Name: lae1 LAPE1__T6nR4e_S28S27_1919_GLO    COMMENT
Campaign Name: USGS Mojave 2002                             COMMENT
4-Character Station Name: LAE1                              COMMENT
6-Character Antenna Code: DMRCHT                            COMMENT
Vertical Measurement Point: BCR                             COMMENT
Vertical Offset to Rinex Ref. Point: 0.0348                 COMMENT
Radial Measurement Point: ECF                               COMMENT
Radial Offset to Rinex Ref. Point: 0.1897                   COMMENT
Antenna Height from Field Measurement: 1.1960 m             COMMENT
Additional Antenna Identification Info.:                    COMMENT
Turborogue and Ashtech Choke Ring                           COMMENT
Original XYZ: -2350853.6922 -4703342.2714 3599620.2776      COMMENT
New XYZ position is based on association with SCEC monument COMMENT
E1F2J8I6+0011. Position of that monument is believed to be  COMMENT
valid to within 1 m horizontally; vertical accuracy         COMMENT
should be no worse than 3-times this value.                 COMMENT
                                                            COMMENT
Revised Rinex header created by UCSD GPS archive for        COMMENT
GSAC on 27-Jun-2003 (2003:178) 16:02:26 GMT                 COMMENT
For assistance contact dagnew@ucsd.edu                      COMMENT
or anderson@python.ucsd.edu                                 COMMENT
                                                            COMMENT
T6NR4E S28 S27 S33 S34 1919                                 MARKER NAME
CHS US GEOLOGICAL SURVEY                                    OBSERVER / AGENCY
LP03360 ASHTECH Z-XII3 CC00                                 REC # / TYPE / VERS
CR14333 DORNE-MARGOL. TYPE T                                ANT # / TYPE
 -2350839.6563 -4703318.5399  3599600.5209                  APPROX POSITION XYZ
        1.1461        0.0000        0.0000                  ANTENNA: DELTA H/E/N
     1     1     0                                          WAVELENGTH FACT L1/2
     5    C1    L1    L2    P1    P2                        # / TYPES OF OBSERV
    30                                                      INTERVAL
  2002     1    26     0     1    0.000000                  TIME OF FIRST OBS
  2002     1    26    23    59    0.000000                  TIME OF LAST OBS
                                                            END OF HEADER
 02  1 26  0  1  0.0000000  0  7 04 10 09 06 05 30 24
  24287180.798    -3512135.337 8  -2394699.38345  24287180.564    24287199.7754
  21438859.853   -21551144.293 8 -16776818.10347  21438858.907    21438871.8234
  24644167.087    -1440511.242 8   -759675.30745  24644166.728    24644185.8874
  22976310.792   -16150335.036 8 -12569689.83646  22976310.512    22976325.8474
  20280796.479   -28024015.769 9 -21822152.15948  20280795.777    20280806.3404
  20792888.382   -24641885.407 9 -19185727.04147  20792888.523    20792899.5094
  21512759.983   -21799017.902 9 -16951508.10947  21512759.586    21512771.9674
 02  1 26  0  1 30.0000000  0  7 04 10 09 06 05 30 24
  24305999.807    -3413241.791 7  -2317639.66045  24305999.526    24306018.8074
  21426793.541   -21614552.691 8 -16826227.12547  21426792.600    21426805.5014
  24661435.407    -1349766.583 8   -688965.37645  24661435.053    24661454.2264
  22963495.510   -16217679.090 8 -12622165.53446  22963495.243    22963510.5084
  20285277.529   -28000467.677 9 -21803802.98648  20285276.835    20285287.3884
  20783871.001   -24689271.764 9 -19222651.38147  20783871.145    20783882.0694
  21525088.837   -21734229.357 9 -16901023.56947  21525088.441    21525100.8634
 02  1 26  0  2  0.0000000  0  7 04 10 09 06 05 30 24
  24324816.209    -3314361.601 7  -2240590.35945  24324815.930    24324835.2094
  21414819.454   -21677476.410 9 -16875258.47547  21414818.510    21414831.3894
  24678689.778    -1259094.854 8   -618312.28445  24678689.479    24678708.7114
  22950687.545   -16284984.732 8 -12674611.29946  22950687.260    22950702.5054
  20289860.672   -27976382.962 9 -21785035.66648  20289859.992    20289870.5404
  20774946.682   -24736169.102 9 -19259194.66547  20774946.814    20774957.6914
  21537460.729   -21669214.855 9 -16850362.96147  21537460.336    21537472.7674
 02  1 26  0  2 30.0000000  0  7 04 10 09 06 05 30 24
  24343630.114    -3215494.532 7  -2163551.23745  24343629.816    24343649.1144
  21402938.487   -21739910.878 8 -16923908.59347  21402937.545    21402950.3954
  24695930.183    -1168496.648 8   -547716.49345  24695929.903    24695949.1174
  22937887.279   -16352249.616 8 -12727025.31446  22937887.022    22937902.2154
  20294546.273   -27951760.087 9 -21765849.00548  20294545.598    20294556.1324
  20766116.161   -24782573.558 9 -19295353.88547  20766116.307    20766127.1334
  21549875.543   -21603974.861 9 -16799526.65147  21549875.152    21549887.5824
 02  1 26  0  3  0.0000000  0  7 04 10 09 06 05 30 24
  24362441.093    -3116642.363 7  -2086523.72545  24362440.792    24362460.2604
  21391151.008   -21801853.988 8 -16972175.83147  21391150.075    21391162.8894
  24713156.133    -1077974.918 8   -477180.28445  24713155.828    24713175.0574
  22925094.817   -16419473.977 8 -12779407.74446  22925094.557    22925109.6884
  20299334.129   -27926599.856 9 -21746243.62248  20299333.434    20299343.9704
  20757379.726   -24828483.519 9 -19331127.78747  20757379.855    20757390.6434
  21562332.837   -21538511.683 9 -16748516.42247  21562332.428    21562344.8724
 02  1 26  0  3 30.0000000  0  7 04 10 09 06 05 30 24
  24381248.477    -3017808.849 7  -2009510.73745  24381248.382    24381267.9154
  21379457.253   -21863304.840 9 -17020059.49747  21379456.291    21379469.0564
  24730366.671     -987533.990 8   -406707.03945  24730366.323    24730385.6614
  22912309.771   -16486659.111 8 -12831759.61646  22912309.549    22912324.6204
  20304223.783   -27900904.443 9 -21726221.22048  20304223.089    20304233.5984
  20748737.403   -24873898.804 9 -19366516.23147  20748737.528    20748748.3004
  21574831.808   -21472829.240 9 -16697335.34347  21574831.405    21574843.8314
 02  1 26  0  4  0.0000000  0  7 04 10 09 06 05 30 24
  24400052.453    -2918993.986 7  -1932512.29745  24400052.296    24400071.8964
  21367857.856   -21924259.674 9 -17067556.65747  21367856.891    21367869.6214
  24747561.554     -897175.176 8   -336297.78545  24747561.239    24747580.5824
  22899532.572   -16553803.390 8 -12884079.65546  22899532.304    22899547.3264
  20309215.525   -27874672.807 9 -21705780.98248  20309214.813    20309225.3334
  20740189.820   -24918816.361 9 -19401516.83047  20740189.925    20740200.6754
  21587372.408   -21406928.109 9 -16645983.86647  21587372.013    21587384.4364
 02  1 26  0  4 30.0000000  0  7 04 10 09 06 05 30 24
  24418852.229    -2820201.309 7  -1855531.17145  24418852.070    24418871.5124
  21356352.902   -21984718.060 9 -17114666.97347  21356351.945    21356364.6884
  24764739.929     -806903.105 7   -265956.11945  24764739.648    24764759.1234
  22886762.831   -16620908.159 8 -12936368.89746  22886762.554    22886777.5494
  20314308.847   -27847907.201 9 -21684924.66348  20314308.137    20314318.6534
  20731736.973   -24963235.933 9 -19436129.39247  20731737.077    20731747.7964
  21599953.830   -21340812.591 9 -16594465.32547  21599953.423    21599965.8664
 02  1 26  0  5  0.0000000  0  7 04 10 09 06 05 30 24
  24437647.933    -2721429.712 7  -1778566.42645  24437647.789    24437667.1454
  21344943.471   -22044674.506 9 -17161386.17147  21344942.514    21344955.2114
  24781901.748     -716717.556 7   -195681.87445  24781901.497    24781921.0324
  22874001.253   -16687970.141 8 -12988624.82246  22874000.969    22874015.8394
  20319504.252   -27820605.165 9 -21663650.34748  20319503.540    20319514.0554
  20723379.804   -25007152.834 9 -19470350.26747  20723379.923    20723390.6334
  21612576.166   -21274481.920 9 -16542779.14047  21612575.775    21612588.1994
 02  1 26  0  5 30.0000000  0  7 04 10 09 06 05 30 24
  24456439.136    -2622681.479 7  -1701619.91045  24456438.979    24456458.4734
  21333629.796   -22104127.733 9 -17207713.24547  21333628.856    21333641.5284
  24799046.512     -626622.066 7   -125477.80345  24799046.167    24799065.8014
  22861247.673   -16754990.066 8 -13040847.95546  22861247.388    22861262.2064
  20324801.403   -27792768.231 9 -21641959.22748  20324800.713    20324811.2194
  20715118.378   -25050566.398 9 -19504178.92747  20715118.502    20715129.2014
  21625238.926   -21207939.113 9 -16490927.64447  21625238.519    21625250.9444
 02  1 26  0  6  0.0000000  0  7 04 10 09 06 05 30 24
  24475225.513    -2523959.052 7  -1624693.47845  24475225.415    24475244.9804
  21322412.266   -22163075.918 9 -17253646.78047  21322411.312    21322423.9674
  24816173.543     -536619.946 7    -55346.47945  24816173.260    24816192.8674
  22848502.056   -16821967.986 8 -13093038.37046  22848501.772    22848516.4994
  20330200.169   -27764397.573 9 -21619852.21648  20330199.466    20330209.9854
  20706953.041   -25093475.234 9 -19537614.29147  20706953.165    20706963.8474
  21637941.448   -21141187.062 9 -16438913.10047  21637941.045    21637953.4684
 02  1 26  0  6 30.0000000  0  7 04 10 09 06 05 30 24
  24494006.918    -2425262.658 7  -1547787.34745  24494006.692    24494026.4824
  21311291.500   -22221515.352 9 -17299183.88947  21311290.561    21311303.1814
  24833282.446     -446712.516 7     14711.03045  24833282.126    24833301.7884
  22835764.652   -16888902.507 8 -13145194.95046  22835764.370    22835779.0634
  20335700.626   -27735492.591 9 -21597328.85048  20335699.938    20335710.4234
  20698884.287   -25135876.363 9 -19570654.04847  20698884.411    20698895.0714
  21650683.589   -21074226.764 9 -16386736.28847  21650683.184    21650695.6194
 02  1 26  0  7  0.0000000  0  7 04 10 09 06 05 30 24
  24512782.805    -2326594.927 7  -1470903.57045  24512782.813    24512802.4574
  21300267.873   -22279444.506 9 -17344323.37647  21300266.932    21300279.5184
  24850372.688     -356903.298 7     84692.01845  24850372.216    24850391.9064
  22823035.420   -16955794.016 8 -13197318.03346  22823035.142    22823049.8504
  20341302.493   -27706054.415 9 -21574390.01048  20341301.800    20341312.3044
  20690912.367   -25177768.808 9 -19603297.42747  20690912.489    20690923.1264
  21663464.828   -21007061.073 9 -16334399.42547  21663464.426    21663476.8704
 02  1 26  0  7 30.0000000  0  7 04 10 09 06 05 30 24
  24531552.934    -2227958.024 7  -1394043.74945  24531552.859    24531572.5944
  21289341.617   -22336862.009 9 -17389064.17047  21289340.686    21289353.2274
  24867443.473     -267195.601 7    154593.88745  24867443.087    24867462.8164
  22810314.416   -17022642.815 8 -13249407.83346  22810314.108    22810328.8104
  20347005.553   -27676084.680 9 -21551036.96848  20347004.862    20347015.3704
  20683037.390   -25219151.650 9 -19635543.70647  20683037.511    20683048.1374
  21676284.548   -20939693.095 9 -16281904.94447  21676284.161    21676296.6214
 02  1 26  0  8  0.0000000  0  7 04 10 09 06 05 30 24
  24550317.524    -2129350.863 7  -1317207.11045  24550317.448    24550336.9434
  21278513.687   -22393762.698 9 -17433402.25847  21278512.762    21278525.2604
  24884495.001     -177589.582 7    224416.54145  24884494.703    24884514.3734
  22797602.151   -17089445.927 8 -13301462.04646  22797601.799    22797616.4044
  20352810.110   -27645581.441 9 -21527268.21448  20352809.423    20352819.9414
  20675260.233   -25260020.487 9 -19667389.47047  20675260.345    20675270.9584
  21689142.908   -20872122.068 9 -16229252.24347  21689142.519    21689155.0054
 02  1 26  0  8 30.0000000  0  7 04 10 09 06 05 30 24
  24569075.476    -2030778.017 7  -1240397.23045  24569075.413    24569094.7894
  21267783.991   -22450147.231 9 -17477338.14347  21267783.060    21267795.5134
  24901526.420      -88090.685 7    294155.75045  24901525.962    24901545.8264
  22784897.970   -17156205.896 8 -13353482.63646  22784897.614    22784912.2154
  20358715.563   -27614548.087 9 -21503086.38248  20358714.875    20358725.3904
  20667580.699   -25300376.426 9 -19698835.57347  20667580.812    20667591.3934
  21702038.936   -20804353.190 9 -16176445.37147  21702038.561    21702051.0294
 02  1 26  0  9  0.0000000  0  7 04 10 09 06 05 30 24
  24587826.981    -1932238.570 7  -1163613.39545  24587826.891    24587846.4144
  21257153.356   -22506011.214 9 -17520868.41147  21257152.420    21257164.8234
  24918537.214        1300.766 7    363811.24445  24918536.765    24918556.8584
  22772202.533   -17222920.016 8 -13405467.49846  22772202.193    22772216.7704
  20364722.167   -27582983.076 9 -21478490.27348  20364721.477    20364731.9844
  20659999.505   -25340215.628 9 -19729879.02747  20659999.610    20660010.1574
  21714972.646   -20736386.302 9 -16123484.20247  21714972.257    21714984.7314
 02  1 26  0  9 30.0000000  0  7 04 10 09 06 05 30 24
  24606571.893    -1833733.870 8  -1086856.61845  24606571.884    24606591.4404
  21246622.286   -22561351.916 9 -17563990.92747  21246621.350    21246633.7154
  24935527.159       90582.436 7    433381.17345  24935526.624    24935546.8334
  22759516.022   -17289587.483 8 -13457416.01946  22759515.685    22759530.1814
  20370829.946   -27550886.628 9 -21453480.06148  20370829.248    20370839.7384
  20652517.041   -25379535.923 9 -19760518.13947  20652517.160    20652527.6644
  21727943.708   -20668223.000 9 -16070369.98247  21727943.338    21727955.8354
 02  1 26  0 10  0.0000000  0  7 04 10 09 06 05 30 24
  24625309.442    -1735268.005 8  -1010130.12545  24625309.453    24625329.0234
  21236190.729   -22616169.803 9 -17606706.05847  21236189.792    21236202.1214
  24952495.178      179749.278 7    502861.63145  24952494.637    24952514.9344
  22746837.993   -17356210.582 8 -13509329.95246  22746837.642    22746852.1024
  20377038.226   -27518262.080 9 -21428058.33948  20377037.511    20377048.0094
  20645133.175   -25418338.267 9 -19790753.65347  20645133.282    20645143.7474
  21740951.238   -20599868.239 9 -16017106.57547  21740950.873    21740963.4064
 02  1 26  0 10 30.0000000  0  8 04 10 09 06 23 05 30 24
  24644039.453    -1636841.630 8   -933434.38245  24644039.407    24644059.0204
  21225859.200   -22670461.986 9 -17649011.55347  21225858.264    21225870.5694
  24969441.101      268799.683 7    572251.36045  24969440.605    24969460.7004
  22734168.520   -17422788.172 8 -13561208.42846  22734168.183    22734182.6314
  24475295.392    -3324815.842 7  -2567372.40644  24475294.677    24475316.0064
  20383346.993   -27485109.328 9 -21402225.03048  20383346.283    20383356.7814
  20637848.333   -25456620.165 9 -19820583.62847  20637848.435    20637858.8854
  21753994.960   -20531323.152 9 -15963694.86347  21753994.593    21754007.1314
 02  1 26  0 11  0.0000000  0  8 04 10 09 06 23 05 30 24
  24662762.028    -1538454.751 7   -856769.36545  24662761.935    24662781.5234
  21215628.456   -22724224.552 9 -17690904.36347  21215627.507    21215639.7704
  24986364.656      357732.290 7    641549.30345  24986364.110    24986384.2164
  22721508.207   -17489318.218 8 -13613049.85946  22721507.828    22721522.2314
  24455242.174    -3430195.024 7  -2649485.51044  24455241.380    24455262.4944
  20389756.406   -27451427.622 9 -21375979.55048  20389755.686    20389766.1954
  20630663.080   -25494378.514 9 -19850005.64147  20630663.199    20630673.6304
  21767074.805   -20462588.464 9 -15910135.40547  21767074.418    21767086.9724
 02  1 26  0 11 30.0000000  0  8 04 10 09 06 23 05 30 24
  24681477.078    -1440107.069 7   -780134.91245  24681476.929    24681496.5794
  21205499.305   -22777453.449 9 -17732381.33247  21205498.329    21205510.5474
  25003265.568      446546.571 7    710755.03245  25003265.039    25003285.1754
  22708857.344   -17555798.296 8 -13664852.36646  22708856.986    22708871.3144
  24435188.387    -3535576.575 7  -2731600.50244  24435187.582    24435208.7034
  20396266.686   -27417215.858 9 -21349321.04148  20396265.979    20396276.4804
  20623578.192   -25531609.688 9 -19879016.87047  20623578.294    20623588.6844
  21780190.661   -20393664.486 9 -15856428.45747  21780190.268    21780202.8124
 02  1 26  0 12  0.0000000  0  8 04 10 09 06 23 05 30 24
  24700183.568    -1341804.404 7   -703535.53645  24700183.508    24700203.1584
  21195471.209   -22830151.063 9 -17773444.31247  21195470.231    21195482.4114
  25020142.671      535235.594 7    779863.18145  25020142.315    25020162.3494
  22696215.245   -17622232.370 8 -13716619.01846  22696214.858    22696229.1524
  24415133.826    -3640962.196 7  -2813718.64345  24415132.946    24415154.0304
  20402876.877   -27382479.100 9 -21322253.43948  20402876.163    20402886.6764
  20616593.016   -25568316.615 9 -19907619.59847  20616593.140    20616603.5044
  21793341.263   -20324557.763 9 -15802579.10847  21793340.844    21793353.4484
 02  1 26  0 12 30.0000000  0  8 04 10 09 06 23 05 30 24
  24718881.806    -1243544.934 7   -626969.81545  24718881.664    24718901.4134
  21185545.283   -22882311.900 9 -17814089.02447  21185544.313    21185556.4574
  25036996.001      623799.904 7    848874.12645  25036995.648    25037015.7964
  22683582.544   -17688616.949 8 -13768347.10446  22683582.203    22683596.4364
  24395079.486    -3746346.405 7  -2895835.69845  24395078.719    24395099.6944
  20409587.369   -27347215.157 9 -21294775.04348  20409586.647    20409597.1574
  20609708.561   -25604494.409 9 -19935810.01347  20609708.676    20609719.0224
  21806526.929   -20255266.872 9 -15748586.25047  21806526.516    21806539.1244
 02  1 26  0 13  0.0000000  0  7 04 10 06 23 05 30 24
  24737571.525    -1145329.752 7   -550438.60845  24737571.566    24737591.3204
  21175722.010   -22933933.135 9 -17854313.27547  21175721.034    21175733.1614
  22670959.588   -17754950.701 8 -13820035.58346  22670959.212    22670973.3634
  24375025.975    -3851725.822 7  -2977949.06145  24375025.222    24375046.1504
  20416398.212   -27311424.058 9 -21266885.87848  20416397.482    20416408.0134
  20602925.237   -25640140.687 9 -19963586.25847  20602925.342    20602935.6824
  21819747.358   -20185793.157 9 -15694450.93147  21819746.934    21819759.5604
 02  1 26  0 13 30.0000000  0  6 10 06 23 05 30 24
  21166001.879   -22985012.095 9 -17894114.96847  21166000.923    21166013.0314
  22658346.512   -17821232.485 8 -13871683.57046  22658346.114    22658360.2154
  24354974.027    -3957097.184 7  -3060056.16745  24354973.543    24354994.2304
  20423309.285   -27275106.034 9 -21238586.12048  20423308.568    20423319.0804
  20596243.458   -25675253.508 9 -19990946.82847  20596243.557    20596253.8604
  21833002.283   -20116138.325 9 -15640174.48147  21833001.847    21833014.4674
 02  1 26  0 14  0.0000000  0  6 10 06 23 05 30 24
  21156384.989   -23035548.929 9 -17933494.22847  21156384.020    21156396.1024
  22645742.993   -17887463.940 8 -13923292.33846  22645742.589    22645756.6684
  24334923.839    -4062459.850 7  -3142156.52645  24334923.384    24334943.8384
  20430320.084   -27238263.983 9 -21209878.02748  20430319.354    20430329.8854
  20589663.127   -25709833.130 9 -20017891.91147  20589663.213    20589673.5084
  21846290.880   -20046306.422 9 -15585760.05447  21846290.448    21846303.0854
 02  1 26  0 14 30.0000000  0  6 10 06 23 05 30 24
  21146871.389   -23085542.837 9 -17972450.43147  21146870.426    21146882.4484
  22633148.911   -17953645.720 8 -13974862.39746  22633148.498    22633162.5204
  24314875.644    -4167812.482 8  -3224249.06445  24314875.153    24314895.3804
  20437430.203   -27200899.999 9 -21180763.23648  20437429.472    20437440.0144
  20583184.269   -25743879.288 9 -20044421.31347  20583184.368    20583194.6624
  21859612.510   -19976300.845 9 -15531210.30747  21859612.105    21859624.7284
 02  1 26  0 15  0.0000000  0  6 10 06 23 05 30 24
  21137461.832   -23134990.179 9 -18010980.73647  21137460.851    21137472.8514
  22620564.496   -18019776.466 8 -14026392.68546  22620564.120    22620578.1234
  24294830.037    -4273151.598 8  -3306331.07345  24294829.430    24294849.5704
  20444639.707   -27163013.908 9 -21151241.60948  20444638.971    20444649.5314
  20576807.455   -25777389.380 9 -20070532.99947  20576807.543    20576817.8284
  21872967.062   -19906122.339 8 -15476525.81147  21872966.640    21872979.2674
 02  1 26  0 15 30.0000000  0  7 10 06 23 05 30 17 24
  21128156.497   -23183889.340 9 -18049083.88547  21128155.533    21128167.5364
  22607990.009   -18085855.440 8 -14077882.64646  22607989.625    22608003.5094
  24274787.513    -4378474.220 8  -3388400.23345  24274786.866    24274806.9264
  20451948.360   -27124606.521 9 -21121313.77548  20451947.641    20451958.1804
  20570532.975   -25810361.885 9 -20096225.78847  20570533.066    20570543.3224
  25065338.874    -3304778.461 7  -2545722.32245  25065338.019    25065360.5684
  21886354.118   -19835773.183 9 -15421708.33847  21886353.712    21886366.3074
 02  1 26  0 16  0.0000000  0  7 10 06 23 05 30 17 24
  21118954.855   -23232243.909 9 -18086762.67947  21118953.903    21118965.8894
  22595424.326   -18151887.814 8 -14129336.27846  22595423.944    22595437.7884
  24254747.531    -4483783.600 7  -3470459.10145  24254746.739    24254766.8994
  20459354.954   -27085684.665 9 -21090985.05748  20459354.244    20459364.7624
  20564359.979   -25842800.861 9 -20121502.83747  20564360.070    20564370.3164
  25048381.986    -3393886.311 7  -2615156.56245  25048381.117    25048403.4284
  21899772.195   -19765261.019 8 -15366763.84847  21899771.773    21899784.3494
 02  1 26  0 16 30.0000000  0  7 10 06 23 05 30 17 24
  21109859.228   -23280041.665 9 -18124007.59547  21109858.249    21109870.2014
  22582869.553   -18217862.698 8 -14180745.12846  22582869.195    22582883.0104
  24234712.428    -4589066.801 7  -3552497.57045  24234711.619    24234731.7454
  20466861.274   -27046238.784 9 -21060248.01448  20466860.567    20466871.0754
  20558290.739   -25874694.612 9 -20146355.04147  20558290.831    20558301.0664
  25031450.965    -3482857.850 7  -2684484.60145  25031450.148    25031472.1844
  21913222.904   -19694577.252 8 -15311685.64447  21913222.482    21913235.0864
 02  1 26  0 17  0.0000000  0  7 10 06 23 05 30 17 24
  21100869.028   -23327285.006 9 -18160820.49547  21100868.053    21100879.9844
  22570325.073   -18283783.870 8 -14232112.12146  22570324.699    22570338.5084
  24214681.997    -4694325.323 7  -3634516.82045  24214681.235    24214701.2144
  20474466.288   -27006274.290 9 -21029106.85148  20474465.562    20474476.0784
  20552324.690   -25906046.097 9 -20170784.69647  20552324.802    20552335.0154
  25014545.113    -3571696.892 7  -2753709.41745  25014544.272    25014566.2034
  21926705.064   -19623728.134 8 -15256478.59647  21926704.648    21926717.3224
 02  1 26  0 17 30.0000000  0  7 10 06 23 05 30 17 24
  21091985.244   -23373969.117 9 -18197197.63047  21091984.293    21091996.1904
  22557791.381   -18349648.073 8 -14283434.71246  22557791.046    22557804.7994
  24194657.302    -4799554.058 7  -3716512.84445  24194656.579    24194676.3524
  20482170.339   -26965789.339 9 -20997560.13548  20482169.609    20482180.1214
  20546462.661   -25936851.036 9 -20194788.47147  20546462.780    20546472.9514
  24997665.182    -3660399.691 7  -2822828.06445  24997664.428    24997686.2074
  21940218.767   -19552713.341 8 -15201142.45147  21940218.363    21940231.0874
 02  1 26  0 18  0.0000000  0  7 10 06 23 05 30 17 24
  21083207.791   -23420094.690 9 -18233139.54447  21083206.830    21083218.7164
  22545268.249   -18415457.159 8 -14334714.35446  22545267.896    22545281.6484
  24174638.267    -4904752.864 7  -3798485.57045  24174637.587    24174657.2214
  20489972.752   -26924787.335 9 -20965610.52348  20489972.028    20489982.5664
  20540704.397   -25967110.510 9 -20218367.20547  20540704.536    20540714.6654
  24980810.987    -3748967.942 7  -2891841.90445  24980810.286    24980831.8784
  21953763.118   -19481537.554 8 -15145680.86247  21953762.706    21953775.4364
 02  1 26  0 18 30.0000000  0  7 10 06 23 05 30 17 24
  21074536.969   -23465659.670 9 -18268644.63447  21074536.023    21074547.8844
  22532755.687   -18481210.444 8 -14385950.52446  22532755.329    22532769.0634
  24154625.564    -5009919.007 7  -3880432.86245  24154624.882    24154644.4574
  20497873.334   -26883269.446 9 -20933258.92448  20497872.628    20497883.1474
  20535050.259   -25996823.076 9 -20241519.77648  20535050.371    20535060.4824
  24963982.632    -3837400.679 7  -2960750.14845  24963981.836    24964003.2454
  21967337.821   -19410202.345 8 -15090095.04447  21967337.379    21967350.1524
 02  1 26  0 19  0.0000000  0  7 10 06 23 05 30 17 24
  21065973.389   -23510661.129 9 -18303710.61947  21065972.461    21065984.3224
  22520254.004   -18546906.409 8 -14437142.02946  22520253.643    22520267.3644
  24134619.724    -5115048.741 7  -3962351.76645  24134618.801    24134638.4344
  20505872.121   -26841235.668 9 -20900505.33148  20505871.391    20505881.8874
  20529500.631   -26025986.269 9 -20264244.26448  20529500.743    20529510.8354
  24947180.259    -3925696.016 7  -3029551.33345  24947179.518    24947200.8684
  21980942.657   -19338708.582 8 -15034385.67947  21980942.230    21980955.0394
 02  1 26  0 19 30.0000000  0  7 10 06 23 05 30 17 24
  21057517.099   -23555098.917 9 -18338337.38347  21057516.155    21057527.9874
  22507763.079   -18612545.911 8 -14488289.53346  22507762.731    22507776.4464
  24114620.942    -5220140.930 7  -4044241.41745  24114620.156    24114639.4554
  20513968.573   -26798688.607 9 -20867351.78248  20513967.846    20513978.3454
  20524055.558   -26054600.056 9 -20286540.65048  20524055.662    20524065.7314
  24930403.879    -4013854.624 7  -3098245.97945  24930403.142    24930424.4914
  21994577.017   -19267059.621 8 -14978555.37747  21994576.582    21994589.4294
 02  1 26  0 20  0.0000000  0  7 10 06 23 05 30 17 24
  21049168.826   -23598969.079 9 -18372521.84347  21049167.874    21049179.6634
  22495283.370   -18678126.277 8 -14539390.95346  22495283.040    22495296.7334
  24094630.301    -5325190.897 7  -4126098.18945  24094629.725    24094648.7754
  20522162.892   -26755627.277 9 -20833797.50548  20522162.173    20522172.6664
  20518715.653   -26082661.365 9 -20308406.53548  20518715.749    20518725.7824
  24913654.054    -4101873.593 7  -3166831.82545  24913653.308    24913674.7524
  22008240.928   -19195255.573 8 -14922604.21947  22008240.492    22008253.3494
 02  1 26  0 20 30.0000000  0  7 10 06 23 05 30 17 24
  21040928.336   -23642272.804 9 -18406264.92447  21040927.379    21040939.1624
  22482814.475   -18743650.191 8 -14590448.39746  22482814.131    22482827.7594
  24074647.654    -5430199.173 7  -4207922.45345  24074647.110    24074666.0624
  20530454.254   -26712055.891 9 -20799845.77748  20530453.533    20530464.0114
  20513480.490   -26110171.957 9 -20329843.28648  20513480.603    20513490.5984
  24896930.545    -4189755.402 7  -3235310.80945  24896929.794    24896950.8224
  22021933.331   -19123301.803 8 -14866536.39847  22021932.903    22021945.7134
 02  1 26  0 21  0.0000000  0  7 10 06 23 05 30 17 24
  21032796.427   -23685006.059 9 -18439563.48047  21032795.469    21032807.2254
  22470356.927   -18809114.499 8 -14641459.38746  22470356.576    22470370.1274
  24054673.886    -5535160.562 7  -4289710.20245  24054673.387    24054692.2124
  20538842.957   -26667973.047 9 -20765495.51448  20538842.225    20538852.7114
  20508350.897   -26137127.990 9 -20350847.91248  20508350.994    20508360.9524
  24880233.673    -4277496.809 7  -3303680.38845  24880233.113    24880253.6974
  22035654.395   -19051197.424 8 -14810351.20847  22035653.954    22035666.7844
 02  1 26  0 21 30.0000000  0  7 10 06 23 05 30 17 24
  21024773.281   -23727167.684 9 -18472416.61547  21024772.313    21024784.0454
  22457910.761   -18874519.166 8 -14692423.90946  22457910.372    22457923.9154
  24034709.408    -5640073.003 8  -4371459.78345  24034708.878    24034727.7504
  20547328.658   -26623380.354 9 -20730747.96848  20547327.931    20547338.4134
  20503326.908   -26163528.877 9 -20371419.96448  20503327.012    20503336.9554
  24863563.566    -4365097.412 7  -3371940.23645  24863562.855    24863583.4354
  22049403.523   -18978945.339 8 -14754050.94047  22049403.106    22049415.9574
 02  1 26  0 22  0.0000000  0  7 10 06 23 05 30 17 24
  21016859.313   -23768755.409 9 -18504822.55447  21016858.342    21016870.0554
  22445476.064   -18939863.334 8 -14743341.29146  22445475.701    22445489.1854
  24014754.825    -5744933.669 8  -4453169.03045  24014754.262    24014773.1564
  20555911.179   -26578278.920 9 -20695604.00248  20555910.469    20555920.9524
  20498408.901   -26189372.861 9 -20391558.06548  20498409.017    20498418.9424
  24846920.324    -4452556.246 7  -3440089.61845  24846919.626    24846940.0744
  22063180.479   -18906547.032 8 -14697636.71847  22063180.068    22063192.9174
 02  1 26  0 22 30.0000000  0  7 10 06 23 05 30 17 24
  21009054.837   -23809767.875 9 -18536780.24147  21009053.875    21009065.5614
  22433052.969   -19005146.354 8 -14794211.03546  22433052.641    22433066.0594
  23994810.602    -5849739.884 8  -4534835.86745  23994810.039    23994828.8594
  20564590.275   -26532670.012 9 -20660064.60048  20564589.541    20564600.0344
  20493597.084   -26214658.810 9 -20411261.33648  20493597.198    20493607.1094
  24830304.408    -4539872.432 7  -3508127.84245  24830303.749    24830323.8934
  22076984.955   -18834004.277 8 -14641109.94647  22076984.542    22076997.3914
 02  1 26  0 23  0.0000000  0  7 10 06 23 05 30 17 24
  21001360.033   -23850204.084 9 -18568288.89447  21001359.082    21001370.7474
  22420641.584   -19070368.183 8 -14845033.09146  22420641.244    22420654.6044
  23974877.186    -5954489.714 8  -4616458.76245  23974876.539    23974895.3874
  20573365.569   -26486555.422 9 -20624131.16148  20573364.836    20573375.3414
  20488891.582   -26239386.115 9 -20430529.30148  20488891.686    20488901.5934
  24813715.469    -4627045.887 7  -3576054.85445  24813714.924    24813734.8634
  22090816.351   -18761319.989 8 -14584472.89047  22090815.926    22090828.7934
 02  1 26  0 23 30.0000000  0  7 10 06 23 05 30 17 24
  20993775.658   -23890060.054 9 -18599345.40947  20993774.702    20993786.3324
  22408242.318   -19135526.190 8 -14895805.41146  22408241.967    22408255.2914
  23954955.271    -6059178.366 7  -4698033.99345  23954954.591    23954973.4324
  20582237.321   -26439934.199 9 -20587802.94448  20582236.594    20582247.0734
  20484292.986   -26263551.630 9 -20449359.50548  20484293.079    20484302.9624
  24797154.401    -4714073.764 7  -3643868.43345  24797153.908    24797173.7604
  22104674.777   -18688493.734 8 -14527725.21747  22104674.352    22104687.1894
 02  1 26  0 24  0.0000000  0  7 10 06 23 05 30 17 24
  20986301.581   -23929336.223 9 -18629950.12447  20986300.627    20986312.2374
  22395854.982   -19200621.657 8 -14946529.00546  22395854.642    22395867.9144
  23935045.141    -6163805.253 7  -4779561.08245  23935044.544    23935063.2364
  20591204.785   -26392809.823 9 -20551082.65548  20591204.046    20591214.5524
  20479801.182   -26287156.038 9 -20467752.48448  20479801.279    20479811.1534
  24780620.621    -4800957.379 7  -3711569.62045  24780620.114    24780640.0754
  22118559.470   -18615529.457 8 -14470869.97547  22118559.040    22118571.8884
 02  1 26  0 24 30.0000000  0  7 10 06 23 05 30 17 24
  20978938.253   -23968030.567 9 -18660101.48147  20978937.294    20978948.8964
  22383479.744   -19265653.550 8 -14997203.06746  22383479.370    22383492.6074
  23915147.435    -6268367.212 7  -4861037.58245  23915146.809    23915165.3724
  20600267.883   -26345182.937 9 -20513970.80648  20600267.162    20600277.6534
  20475416.403   -26310197.901 9 -20485707.12448  20475416.504    20475426.3584
  24764114.660    -4887695.395 7  -3779157.34145  24764114.061    24764133.9864
  22132470.133   -18542428.554 8 -14413908.29047  22132469.700    22132482.5704
 02  1 26  0 25  0.0000000  0  7 10 06 23 05 30 17 24
  20971685.998   -24006141.098 9 -18689797.91047  20971685.035    20971696.5964
  22371116.802   -19330620.595 8 -15047826.60246  22371116.449    22371129.6334
  23895262.616    -6372861.061 7  -4942460.98245  23895262.005    23895280.3944
  20609426.468   -26297054.267 9 -20476467.95748  20609425.731    20609436.2374
  20471139.087   -26332675.266 9 -20503221.89448  20471139.175    20471149.0194
  24747636.624    -4974286.513 7  -3846630.60145  24747636.019    24747655.9034
  22146406.496   -18469192.571 8 -14356841.34047  22146406.112    22146418.9954
 02  1 26  0 25 30.0000000  0  7 10 06 23 05 30 17 24
  20964545.119   -24043666.427 9 -18719038.34147  20964544.148    20964555.6794
  22358766.285   -19395522.374 8 -15098399.26146  22358765.919    22358779.1134
  23875391.227    -6477284.301 7  -5023829.39545  23875390.622    23875408.9724
  20618680.236   -26248425.399 9 -20438575.34048  20618679.505    20618690.0104
  20466969.280   -26354587.442 9 -20520296.25548  20466969.372    20466979.1804
  24731186.664    -5060730.365 7  -3913989.10645  24731185.977    24731206.0014
  22160368.168   -18395823.720 8 -14299670.85947  22160367.787    22160380.6684
 02  1 26  0 26  0.0000000  0  7 10 06 23 05 30 17 24
  20957516.058   -24080604.087 9 -18747820.85047  20957515.084    20957526.5904
  22346428.505   -19460357.284 8 -15148919.83947  22346428.150    22346441.3134
  23855533.975    -6581633.289 7  -5105139.95545  23855533.319    23855551.6364
  20628029.101   -26199296.796 9 -20400293.32448  20628028.363    20628038.8744
  20462907.444   -26375932.378 9 -20536928.61348  20462907.534    20462917.3144
  24714765.095    -5147025.194 7  -3981231.49845  24714764.345    24714784.3804
  22174354.968   -18322322.793 8 -14242397.45247  22174354.583    22174367.4524
 02  1 26  0 26 30.0000000  0  7 10 06 23 05 30 17 24
  20950598.820   -24116954.149 9 -18776145.49147  20950597.863    20950609.3104
  22334103.265   -19525126.286 8 -15199389.04647  22334102.902    22334116.0394
  23835691.127    -6685906.963 7  -5186391.83345  23835690.505    23835708.6594
  20637472.501   -26149671.476 9 -20361624.25548  20637471.766    20637482.2724
  20458953.424   -26396710.608 9 -20553119.38048  20458953.511    20458963.2884
  24698371.584    -5233171.974 7  -4048358.53045  24698370.934    24698390.8514
  22188366.290   -18248693.319 8 -14185023.89147  22188365.864    22188378.7364
 02  1 26  0 27  0.0000000  0  7 10 06 23 05 30 17 24
  20943793.916   -24152713.806 9 -18804010.08047  20943792.944    20943804.3884
  22321791.007   -19589827.115 8 -15249805.13747  22321790.636    22321803.7454
  23815863.406    -6790101.275 7  -5267581.85745  23815862.742    23815880.7084
  20647010.457   -26099549.098 9 -20322567.86848  20647009.733    20647020.2264
  20455107.724   -26416919.605 9 -20568866.59148  20455107.814    20455117.5704
  24682006.784    -5319168.373 7  -4115368.36345  24682006.074    24682025.8864
  22202401.958   -18174935.804 8 -14127550.56047  22202401.517    22202414.3954
 02  1 26  0 27 30.0000000  0  7 10 06 23 05 30 17 24
  20937101.448   -24187882.537 9 -18831414.20247  20937100.497    20937111.9344
  22309491.642   -19654460.201 8 -15300168.44147  22309491.261    22309504.3584
  23796050.962    -6894214.728 7  -5348708.87245  23796050.258    23796068.2234
  20656642.569   -26048932.059 9 -20283126.03148  20656641.844    20656652.3314
  20451370.370   -26436559.393 9 -20584170.26548  20451370.471    20451380.1924
  24665670.481    -5405014.872 7  -4182261.41545  24665669.773    24665689.5624
  22216461.427   -18101052.854 8 -14069979.48747  22216461.004    22216473.8984
 02  1 26  0 28  0.0000000  0  7 10 06 23 05 30 17 24
  20930521.927   -24222457.687 9 -18858355.79847  20930520.992    20930532.4054
  22297205.591   -19719023.255 8 -15350477.16447  22297205.186    22297218.2564
  23776254.799    -6998243.111 7  -5429769.60145  23776254.122    23776271.9184
  20666368.778   -25997820.603 9 -20243298.93548  20666368.041    20666378.5614
  20447741.760   -26455627.612 9 -20599028.56048  20447741.873    20447751.5684
  24649363.047    -5490709.265 7  -4249035.93545  24649362.462    24649382.1104
  22230544.640   -18027045.312 8 -14012311.31747  22230544.204    22230557.1104
 02  1 26  0 28 30.0000000  0  7 10 06 23 05 30 17 24
  20924055.591   -24256438.299 9 -18884834.11747  20924054.649    20924066.0404
  22284932.913   -19783516.059 8 -15400731.14747  22284932.552    22284945.5554
  23756475.267    -7102184.505 8  -5510762.54745  23756474.516    23756492.1574
  20676188.658   -25946216.661 9 -20203088.08248  20676187.923    20676198.4594
  20444221.967   -26474123.926 9 -20613441.21448  20444222.080    20444231.7704
  24633084.653    -5576251.401 7  -4315691.81045  24633084.071    24633103.6744
  22244651.130   -17952915.326 8 -13954547.74747  22244650.689    22244663.6074
 02  1 26  0 29  0.0000000  0  7 10 06 23 05 30 17 24
  20917702.430   -24289824.177 9 -18910849.00847  20917701.477    20917712.8524
  22272673.515   -19847939.148 8 -15450930.80347  22272673.159    22272686.1004
  23736712.546    -7206037.190 8  -5591686.35645  23736711.677    23736729.3224
  20686101.832   -25894122.664 9 -20162495.37048  20686101.110    20686111.6254
  20440811.013   -26492048.312 9 -20627408.20948  20440811.131    20440820.8154
  24616835.275    -5661641.726 8  -4382229.39745  24616834.680    24616854.1274
  22258780.332   -17878665.938 8 -13896691.13547  22258779.907    22258792.8574
 02  1 26  0 29 30.0000000  0  7 10 06 23 05 30 17 24
  20911463.055   -24322611.836 9 -18936397.75147  20911462.106    20911473.4524
  22260427.901   -19912289.791 8 -15501074.01547  22260427.537    22260440.4104
  23716967.651    -7309796.372 8  -5672537.31045  23716966.746    23716984.2894
  20696108.354   -25841538.080 9 -20121520.38448  20696107.623    20696118.1394
  20437509.436   -26509397.872 9 -20640927.29248  20437509.557    20437519.2324
  24600615.234    -5746877.521 8  -4448646.57045  24600614.599    24600633.9394
  22272932.297   -17804297.088 8 -13838741.43147  22272931.870    22272944.8694
 02  1 26  0 30  0.0000000  0  7 10 06 23 05 30 17 24
  20905337.622   -24354800.926 9 -18961480.08047  20905336.677    20905348.0044
  22248196.029   -19976567.646 8 -15551160.50547  22248195.735    22248208.5584
  23697240.934    -7413460.043 8  -5753313.82245  23697239.992    23697257.3924
  20706207.839   -25788465.068 9 -20080164.80648  20706207.111    20706217.6374
  20434317.353   -26526172.174 9 -20653998.12048  20434317.467    20434327.1464
  24584424.587    -5831958.799 8  -4514943.34845  24584423.998    24584443.1134
  22287106.520   -17729811.054 8 -13780700.42747  22287106.108    22287119.1924
 02  1 26  0 30 30.0000000  0  7 10 06 23 05 30 17 24
  20899326.148   -24386390.962 9 -18986095.61547  20899325.198    20899336.5214
  22235978.090   -20040772.935 8 -15601190.45347  22235977.763    22235990.5504
  23677532.638    -7517026.509 8  -5834014.60145  23677531.837    23677549.0154
  20716399.774   -25734906.057 9 -20038430.52448  20716399.045    20716409.5924
  20431234.698   -26542371.323 9 -20666620.77648  20431234.811    20431244.4894
  24568263.348    -5916885.530 8  -4581119.67445  24568262.687    24568281.7814
  22301302.605   -17655210.347 8 -13722570.06647  22301302.180    22301315.2934
 02  1 26  0 31  0.0000000  0  7 10 06 23 05 30 17 24
  20893429.418   -24417378.301 9 -19010241.51647  20893428.461    20893439.7784
  22223774.394   -20104903.091 8 -15651161.85747  22223774.042    22223786.8434
  23657843.655    -7620491.067 8  -5914635.95245  23657842.897    23657859.9674
  20726684.255   -25680860.837 9 -19996317.38448  20726683.516    20726694.0684
  20428262.039   -26557992.568 9 -20678793.12248  20428262.159    20428271.8194
  24552131.981    -6001655.451 8  -4647173.81745  24552131.254    24552150.2784
  22315520.441   -17580495.178 8 -13664350.50747  22315520.017    22315533.1904
 02  1 26  0 31 30.0000000  0  7 10 06 23 05 30 17 24
  20887647.190   -24447763.694 9 -19033918.36147  20887646.224    20887657.5344
  22211584.814   -20168959.220 8 -15701075.58647  22211584.480    22211597.2204
  23638174.198    -7723852.977 7  -5995177.31745  23638173.464    23638190.4964
  20737060.650   -25626332.594 9 -19953827.85948  20737059.922    20737070.4684
  20425399.126   -26573036.927 9 -20690515.94248  20425399.230    20425408.8994
  24536030.203    -6086269.531 7  -4713106.52145  24536029.501    24536048.5114
  22329759.382   -17505669.250 8 -13606044.65147  22329758.969    22329772.1064
 02  1 26  0 32  0.0000000  0  7 10 06 23 05 30 17 24
  20881979.990   -24477544.690 9 -19057124.24747  20881979.007    20881990.3134
  22199409.764   -20232939.012 8 -15750929.83147  22199409.439    22199422.1414
  23618525.072    -7827107.907 7  -6075635.31745  23618524.287    23618541.4254
  20747528.976   -25571321.337 9 -19910961.96248  20747528.255    20747538.7854
  20422646.547   -26587501.764 9 -20701787.18848  20422646.646    20422656.2964
  24519958.486    -6170725.492 7  -4778916.02045  24519957.797    24519976.8624
  22344019.379   -17430732.709 8 -13547652.59046  22344018.937    22344032.1094
 02  1 26  0 32 30.0000000  0  7 10 06 23 05 30 17 24
  20876427.942   -24506720.622 9 -19079858.65247  20876426.970    20876438.2694
  22187249.238   -20296842.255 8 -15800724.43947  22187248.957    22187261.6234
  23598896.656    -7930253.959 7  -6156008.46645  23598895.875    23598913.1364
  20758088.810   -25515829.097 9 -19867721.27548  20758088.085    20758098.6224
  20420004.196   -26601387.248 9 -20712606.99448  20420004.295    20420013.9144
  24503916.795    -6255023.590 7  -4844602.49845  24503916.043    24503935.0764
  22358300.023   -17355687.731 8 -13489176.03846  22358299.601    22358312.7604
 02  1 26  0 33  0.0000000  0  7 10 06 23 05 30 17 24
  20870991.251   -24535290.337 9 -19102120.68147  20870990.274    20871001.5534
  22175103.496   -20360668.027 8 -15850458.67747  22175103.206    22175115.8344
  23579289.489    -8033288.492 7  -6236294.72345  23579288.759    23579306.0184
  20768739.810   -25459857.618 9 -19824107.15548  20768739.081    20768749.6404
  20417472.240   -26614692.479 9 -20722974.66048  20417472.348    20417481.9594
  24487905.331    -6339162.996 7  -4910165.34645  24487904.617    24487923.3174
  22372600.941   -17280536.190 8 -13430616.44746  22372600.511    22372613.6784
 02  1 26  0 33 30.0000000  0  7 10 06 23 05 30 17 24
  20865670.248   -24563252.078 9 -19123908.96247  20865669.268    20865680.4994
  22162972.753   -20424415.098 8 -15900131.59447  22162972.444    22162985.0234
  23559704.195    -8136208.440 7  -6316491.70045  23559703.458    23559720.6294
  20779481.824   -25403408.091 9 -19780120.53148  20779481.104    20779491.6654
  20415050.967   -26627416.247 9 -20732889.23448  20415051.054    20415060.6714
  24471924.259    -6423142.852 7  -4975603.86645  24471923.441    24471942.0424
  22386921.779   -17205279.854 8 -13371975.19846  22386921.367    22386934.5264
 02  1 26  0 34  0.0000000  0  7 10 06 23 05 30 17 24
  20860464.919   -24590605.860 9 -19145223.50747  20860463.941    20860475.1484
  22150857.029   -20488083.335 8 -15949743.08647  22150856.711    22150869.2544
  23540141.122    -8239011.750 8  -6396597.80445  23540140.351    23540157.4294
  20790314.380   -25346482.760 9 -19735763.15148  20790313.645    20790324.2224
  20412740.312   -26639558.490 9 -20742350.67448  20412740.404    20412750.0114
  24455973.498    -6506962.956 7  -5040917.91345  24455972.693    24455991.1574
  22401262.183   -17129920.755 8 -13313253.87846  22401261.769    22401274.9054
 02  1 26  0 34 30.0000000  0  7 10 06 23 05 30 17 24
  20855375.595   -24617350.038 9 -19166063.03847  20855374.635    20855385.8074
  22138756.458   -20551671.537 8 -15999292.20847  22138756.128    22138768.6844
  23520600.819    -8341695.270 8  -6476610.57245  23520600.098    23520616.9834
  20801237.193   -25289082.938 9 -19691036.03848  20801236.474    20801247.0524
  20410540.574   -26651118.128 9 -20751358.13548  20410540.667    20410550.2404
  24440053.430    -6590622.312 7  -5106106.70245  24440052.724    24440071.0114
  22415621.897   -17054460.306 8 -13254453.58046  22415621.468    22415634.6144
 02  1 26  0 35  0.0000000  0  7 10 06 23 05 30 17 24
  20850402.532   -24643483.464 9 -19186426.66347  20850401.558    20850412.7164
  22126671.230   -20615179.108 8 -16048778.49847  22126670.895    22126683.4854
  23501083.778    -8444256.517 8  -6556528.08045  23501083.079    23501099.7834
  20812249.999   -25231210.325 9 -19645940.51648  20812249.270    20812259.8574
  20408451.759   -26662094.709 9 -20759911.26748  20408451.843    20408461.3984
  24424163.826    -6674120.755 7  -5171170.13345  24424163.165    24424181.3764
  22430000.561   -16978900.144 8 -13195575.59046  22430000.154    22430013.2504
 02  1 26  0 35 30.0000000  0  7 10 06 23 05 30 17 24
  20845545.936   -24669004.595 9 -19206313.17247  20845544.970    20845556.1074
  22114601.692   -20678604.658 8 -16098200.88547  22114601.350    22114613.8714
  23481590.652    -8546692.160 8  -6636347.72945  23481589.984    23481606.5794
  20823352.549   -25172866.060 9 -19600477.47548  20823351.814    20823362.4114
  20406474.149   -26672486.793 9 -20768008.94748  20406474.242    20406483.7804
  24408305.209    -6757456.702 7  -5236106.92945  24408304.572    24408322.8304
  22444397.925   -16903241.758 8 -13136621.04946  22444397.517    22444410.6114
 02  1 26  0 36  0.0000000  0  7 10 06 23 05 30 17 24
  20840806.116   -24693912.391 9 -19225721.76947  20840805.151    20840816.2524
  22102547.933   -20741947.081 8 -16147558.50047  22102547.565    22102560.0644
  23462121.979    -8648999.285 8  -6716067.24045  23462121.332    23462137.7234
  20834544.581   -25114051.578 9 -19554648.03248  20834543.855    20834554.4344
  20404607.937   -26682293.533 9 -20775650.52148  20404608.044    20404617.5864
  24392477.815    -6840629.559 7  -5300916.67045  24392477.010    24392495.2874
  22458813.706   -16827486.530 8 -13077591.06046  22458813.297    22458826.3644
 02  1 26  0 36 30.0000000  0  7 10 06 23 05 30 17 24
  20836182.997   -24718206.768 9 -19244652.37547  20836182.011    20836193.0904
  22090509.998   -20805206.541 8 -16196851.47347  22090509.598    22090522.0464
  23442678.149    -8751176.193 8  -6795685.28545  23442677.493    23442693.7744
  20845825.600   -25054769.709 9 -19508454.38548  20845824.866    20845835.4214
  20402853.031   -26691515.392 9 -20782836.33548  20402853.129    20402862.6734
  24376681.290    -6923639.640 7  -5365599.55545  24376680.556    24376698.7064
  22473247.392   -16751637.354 8 -13018487.85346  22473246.965    22473260.0574
 02  1 26  0 37  0.0000000  0  7 10 06 23 05 30 17 24
  20831677.049   -24741885.350 9 -19263103.14647  20831676.061    20831687.1044
  22078488.285   -20868380.657 8 -16246077.94047  22078487.891    22078500.2714
  23423259.843    -8853218.754 8  -6875198.66045  23423259.136    23423275.3714
  20857195.544   -24995020.486 9 -19461896.57348  20857194.814    20857205.3624
  20401209.862   -26700150.271 9 -20789564.76648  20401209.956    20401219.4834
  24360916.200    -7006484.878 8  -5430153.98745  24360915.410    24360933.5274
  22487698.915   -16675694.326 8 -12959311.52346  22487698.500    22487711.5934
 02  1 26  0 37 30.0000000  0  7 10 06 23 05 30 17 24
  20827288.330   -24764947.883 9 -19281073.88047  20827287.359    20827298.3734
  22066482.891   -20931468.970 8 -16295237.54847  22066482.512    22066494.8504
  23403867.571    -8955124.759 8  -6954605.63545  23403866.811    23403882.9494
  20868653.923   -24934806.315 9 -19414976.46447  20868653.192    20868663.7504
  20399678.376   -26708198.114 9 -20795835.76548  20399678.477    20399687.9904
  24345182.432    -7089165.251 8  -5494579.95945  24345181.702    24345199.7054
  22502167.849   -16599659.653 8 -12900063.78346  22502167.424    22502180.5254
 02  1 26  0 38  0.0000000  0  7 10 06 23 05 30 17 24
  20823016.804   -24787394.562 9 -19298564.72947  20823015.826    20823026.8354
  22054493.839   -20994471.562 8 -16344330.35947  22054493.442    22054505.7444
  23384501.548    -9056892.636 8  -7033904.98545  23384500.718    23384516.8214
  20880200.272   -24874129.930 9 -19367696.18547  20880199.529    20880210.1134
  20398258.498   -26715659.305 9 -20801649.63048  20398258.610    20398268.1134
  24329480.042    -7171681.120 8  -5558877.74445  24329479.293    24329497.2324
  22516653.757   -16523535.901 8 -12840746.63846  22516653.355    22516666.4814
 02  1 26  0 38 30.0000000  0  7 10 06 23 05 30 17 24
  20818862.854   -24809223.249 9 -19315574.02847  20818861.882    20818872.8824
  22042521.430   -21057386.446 8 -16393354.82047  22042521.030    22042533.3024
  23365162.520    -9158518.692 8  -7113093.82145  23365161.755    23365177.7824
  20891834.428   -24812992.038 9 -19320056.29547  20891833.704    20891844.2924
  20396950.560   -26722532.266 9 -20807005.13948  20396950.675    20396960.1754
  24313809.100    -7254030.861 8  -5623046.11045  24313808.431    24313826.3044
  22531156.465   -16447323.717 8 -12781360.58246  22531156.085    22531169.2444
 02  1 26  0 39  0.0000000  0  7 10 06 23 05 30 17 24
  20814826.810   -24830432.535 9 -19332100.67847  20814825.836    20814836.8154
  22030565.975   -21120212.315 8 -16442309.91947  22030565.587    22030577.8204
  23345851.094    -9259999.718 8  -7192169.65545  23345850.365    23345866.1974
  20903556.145   -24751394.101 9 -19272057.92647  20903555.410    20903566.0124
  20395754.737   -26728816.150 9 -20811901.62248  20395754.853    20395764.3424
  24298170.081    -7336213.461 8  -5687084.21945  24298169.438    24298187.1904
  22545675.828   -16371024.307 8 -12721906.55646  22545675.423    22545688.6184
 02  1 26  0 39 30.0000000  0  7 10 06 23 05 30 17 24
  20810908.595   -24851022.674 9 -19348144.88047  20810907.619    20810918.5814
  22018627.455   -21182949.277 8 -16491195.75047  22018627.082    22018639.2574
  23326567.582    -9361333.964 8  -7271131.13045  23326566.794    23326582.6194
  20915364.825   -24689338.940 9 -19223703.28047  20915364.105    20915374.7234
  20394670.962   -26734511.371 9 -20816339.41148  20394671.063    20394680.5584
  24282562.738    -7418229.353 8  -5750992.44745  24282562.182    24282579.7034
  22560211.257   -16294640.186 8 -12662386.51546  22560210.861    22560224.1214
 02  1 26  0 40  0.0000000  0  7 10 06 23 05 30 17 24
  20807108.431   -24870992.443 9 -19363705.67647  20807107.459    20807118.3994
  22006706.111   -21245595.878 8 -16540011.16747  22006705.735    22006717.8614
  23307312.494    -9462518.294 8  -7349975.79345  23307311.794    23307327.5524
  20927260.365   -24626827.611 9 -19174993.17847  20927259.640    20927270.2694
  20393699.363   -26739616.856 9 -20820317.66348  20393699.476    20393708.9294
  24266987.450    -7500077.401 8  -5814769.86545  24266986.815    24267004.3054
  22574762.569   -16218172.626 8 -12602801.45846  22574762.177    22574775.4954
 02  1 26  0 40 30.0000000  0  7 10 06 23 05 30 17 24
  20803426.526   -24890340.653 9 -19378782.13947  20803425.548    20803436.4684
  21994802.274   -21308150.741 8 -16588755.09547  21994801.866    21994813.9394
  23288086.641    -9563549.569 8  -7428701.19645  23288085.994    23288101.6224
  20939242.451   -24563861.501 9 -19125928.70047  20939241.724    20939252.3564
  20392840.158   -26744131.913 9 -20823835.84148  20392840.260    20392849.7084
  24251444.224    -7581756.828 8  -5878415.89845  24251443.596    24251460.9134
  22589329.479   -16141623.200 8 -12543152.61546  22589329.073    22589342.3924
 02  1 26  0 41  0.0000000  0  7 10 06 23 05 30 17 24
  20799863.027   -24909066.842 9 -19393373.91647  20799862.045    20799872.9294
  21982916.043   -21370613.116 8 -16637426.95747  21982915.615    21982927.6334
  23268890.426    -9664425.248 8  -7507305.36645  23268889.733    23268905.2944
  20951310.668   -24500442.731 9 -19076511.50347  20951309.940    20951320.5754
  20392093.336   -26748056.365 9 -20826893.81248  20392093.437    20392102.8584
  24235933.136    -7663267.230 8  -5941930.22745  24235932.423    24235949.7474
  22603911.729   -16064993.301 8 -12483441.06946  22603911.318    22603924.6004
 02  1 26  0 41 30.0000000  0  7 10 06 23 05 30 17 24
  20796417.824   -24927171.038 9 -19407481.01947  20796416.850    20796427.7194
  21971047.377   -21432982.808 8 -16686026.59947  21971046.951    21971058.9344
  23249724.220    -9765143.295 8  -7585786.71346  23249723.552    23249739.0524
  20963464.550   -24436573.748 9 -19026743.48747  20963463.816    20963474.4474
  20391458.890   -26751390.308 9 -20829491.64148  20391458.977    20391468.4084
  24220454.115    -7744608.601 8  -6005312.82645  24220453.409    24220470.7874
  22618508.886   -15988285.066 8 -12423668.48446  22618508.472    22618521.7804
 02  1 26  0 42  0.0000000  0  7 10 06 23 05 30 17 24
  20793091.365   -24944651.510 9 -19421102.10247  20793090.393    20793101.2524
  21959196.655   -21495257.707 8 -16734552.37547  21959196.275    21959208.2884
  23230588.690    -9865700.013 8  -7664142.34946  23230588.039    23230603.5074
  20975703.962   -24372255.253 9 -18976625.20147  20975703.223    20975713.8564
  20390937.047   -26754132.359 9 -20831628.25848  20390937.138    20390946.5564
  24205007.592    -7825779.262 7  -6068562.40745  24205006.913    24205024.3124
  22633120.795   -15911499.185 8 -12363835.38246  22633120.347    22633133.6904
 02  1 26  0 42 30.0000000  0  7 10 06 23 05 30 17 24
  20789883.628   -24961507.905 9 -19434236.89647  20789882.664    20789893.5164
  21947364.202   -21557437.162 8 -16783003.78047  21947363.816    21947375.8164
  23211484.302    -9966093.141 8  -7742370.51546  23211483.675    23211499.0654
  20988028.452   -24307489.643 9 -18926158.52047  20988027.721    20988038.3544
  20390527.840   -26756282.573 9 -20833303.70848  20390527.941    20390537.3494
  24189593.501    -7906779.303 7  -6131679.04745  24189592.795    24189610.2394
  22647747.141   -15834637.627 8 -12303943.31546  22647746.671    22647760.0104
 02  1 26  0 43  0.0000000  0  7 10 06 23 05 30 17 24
  20786794.851   -24977739.399 9 -19446884.75447  20786793.882    20786804.7084
  21935550.131   -21619520.065 8 -16831379.95547  21935549.755    21935561.7334
  23192411.586   -10066319.725 8  -7820468.88946  23192410.958    23192426.3044
  21000437.715   -24242278.572 9 -18875344.72347  21000436.990    21000447.6404
  20390231.334   -26757840.525 9 -20834517.65748  20390231.437    20390240.8094
  24174212.052    -7987607.929 7  -6194662.10945  24174211.333    24174228.7734
  22662387.589   -15757701.862 8 -12243993.42046  22662387.126    22662400.4544
 02  1 26  0 43 30.0000000  0  7 10 06 23 05 30 17 24
  20783824.891   -24993346.391 9 -19459045.98147  20783823.918    20783834.7344
  21923754.461   -21681506.262 8 -16879680.77047  21923754.071    21923766.0254
  23173371.006   -10166377.939 8  -7898436.07946  23173370.350    23173385.5944
  21012931.188   -24176624.906 9 -18824186.04647  21012930.461    21012941.1274
  20390047.467   -26758806.650 9 -20835270.44048  20390047.554    20390056.9264
  24158863.218    -8068265.478 7  -6257511.85645  24158862.428    24158879.8544
  22677041.639   -15680694.315 8 -12183987.59546  22677041.181    22677054.5554
 02  1 26  0 44  0.0000000  0  7 10 06 23 05 30 17 24
  20780974.081   -25008327.226 9 -19470719.30147  20780973.112    20780983.9264
  21911977.555   -21743394.005 8 -16927904.85947  21911977.164    21911989.0784
  23154363.100   -10266264.179 8  -7976269.25346  23154362.429    23154377.6904
  21025508.723   -24110529.705 9 -18772683.31847  21025507.994    21025518.6464
  20389976.413   -26759179.843 9 -20835561.20248  20389976.523    20389985.8694
  24143547.228    -8148750.506 7  -6320227.19645  24143546.441    24143563.7504
  22691709.368   -15603615.332 8 -12123926.10246  22691708.916    22691722.2444
 02  1 26  0 44 30.0000000  0  7 10 06 23 05 30 17 24
  20778242.468   -25022681.701 9 -19481904.54947  20778241.493    20778252.2934
  21900219.503   -21805182.452 8 -16976051.57747  21900219.114    21900231.0234
  23135388.340   -10365976.171 8  -8053966.65246  23135387.645    23135402.8734
  21038169.856   -24043995.189 9 -18720838.26847  21038169.129    21038179.7634
  20390018.179   -26758960.212 9 -20835390.02448  20390018.274    20390027.6214
  24128264.122    -8229062.887 7  -6382808.00645  24128263.322    24128280.5274
  22706390.300   -15526467.160 8 -12063810.69446  22706389.794    22706403.1034
 02  1 26  0 45  0.0000000  0  7 10 06 23 05 30 17 24
  20775630.250   -25036408.830 9 -19492600.95347  20775629.271    20775640.0454
  21888480.580   -21866870.170 8 -17024119.80647  21888480.231    21888492.1114
  23116447.423   -10465510.645 8  -8131525.73746  23116446.688    23116461.8204
  21050914.317   -23977022.692 9 -18668651.93647  21050913.586    21050924.2284
  20390172.886   -26758147.025 9 -20834756.33548  20390172.987    20390182.2904
  24113013.956    -8309201.680 8  -6445253.58745  24113013.129    24113030.3634
  22721084.100   -15449250.805 8 -12003642.15846  22721083.621    22721096.9094
 02  1 26  0 45 30.0000000  0  7 10 06 23 05 30 17 24
  20773137.380   -25049508.630 9 -19502808.53047  20773136.407    20773147.1704
  21876761.039   -21928456.360 8 -17072108.90747  21876760.694    21876772.5594
  23097540.649   -10564865.377 8  -8208944.76846  23097539.926    23097554.9124
  21063741.636   -23909614.679 9 -18616126.24247  21063740.915    21063751.5684
  20390440.530   -26756740.444 9 -20833660.26248  20390440.642    20390449.9284
  24097796.920    -8389166.711 8  -6507563.76245  24097796.133    24097813.2434
  22735790.492   -15371968.137 8 -11943421.94446  22735790.030    22735803.3854
 02  1 26  0 46  0.0000000  0  7 10 06 23 05 30 17 24
  20770764.230   -25061979.543 9 -19512526.07147  20770763.260    20770773.9894
  21865061.198   -21989938.927 8 -17120017.27847  21865060.853    21865072.6734
  23078668.861   -10664036.593 8  -8286220.79246  23078668.091    23078682.9674
  21076651.740   -23841771.816 9 -18563261.70747  21076651.018    21076661.6594
  20390821.343   -26754739.131 9 -20832100.77048  20390821.458    20390830.7264
  24082613.222    -8468956.527 8  -6569737.41845  24082612.525    24082629.3814
  22750509.397   -15294619.545 8 -11883150.37346  22750508.980    22750522.3544
 02  1 26  0 46 30.0000000  0  7 10 06 23 05 30 17 24
  20768510.323   -25073823.666 9 -19521755.19847  20768509.340    20768520.0604
  21853380.773   -22051319.611 8 -17167846.25347  21853380.410    21853392.1904
  23059831.979   -10763024.205 8  -8363353.75446  23059831.222    23059845.9754
  21089643.712   -23773498.775 9 -18510061.95947  21089643.004    21089653.6184
  20391314.830   -26752145.744 9 -20830079.91648  20391314.927    20391324.1934
  24067462.485    -8548573.109 8  -6631776.09645  24067461.833    24067478.5944
  22765240.102   -15217209.368 8 -11822830.79246  22765239.662    22765253.0614
 02  1 26  0 47  0.0000000  0  7 10 06 23 05 30 17 24
  20766376.567   -25085036.310 9 -19530492.27047  20766375.597    20766386.3114
  21841720.680   -22112593.269 8 -17215591.82947  21841720.332    21841732.0634
  23041031.323   -10861821.537 8  -8440338.45546  23041030.556    23041045.2404
  21102717.913   -23704793.536 9 -18456525.44547  21102717.203    21102727.7974
  20391921.822   -26748955.918 9 -20827594.30648  20391921.926    20391931.1574
  24052345.650    -8628011.865 8  -6693676.20845  24052344.909    24052361.5934
  22779983.078   -15139734.717 8 -11762460.97446  22779982.646    22779995.9944
 02  1 26  0 47 30.0000000  0  7 10 06 23 05 30 17 24
  20764362.156   -25095621.907 9 -19538740.73847  20764361.192    20764371.8724
  21830080.340   -22173763.295 8 -17263256.66147  21830079.980    21830091.6894
  23022266.511   -10960430.378 8  -8517176.28646  23022265.807    23022280.3964
  21115873.086   -23635662.894 9 -18402657.44747  21115872.376    21115882.9674
  20392641.463   -26745174.052 9 -20824647.36748  20392641.558    20392650.7804
  24037261.976    -8707276.907 8  -6755440.97445  24037261.171    24037277.6944
  22794737.178   -15062201.647 8 -11702045.64746  22794736.752    22794750.1164
 02  1 26  0 48  0.0000000  0  7 10 06 23 05 30 17 24
  20762467.916   -25105576.191 9 -19546497.27347  20762466.953    20762477.6064
  21818460.711   -22234824.453 8 -17310836.66247  21818460.364    21818472.0374
  23003538.793   -11058843.936 8  -8593861.94346  23003538.132    23003552.6644
  21129109.613   -23566104.613 9 -18348456.22247  21129108.872    21129119.4954
  20393474.540   -26740796.057 9 -20821235.91548  20393474.641    20393483.8484
  24022212.129    -8786363.651 8  -6817066.80345  24022211.350    24022227.7294
  22809502.882   -14984607.426 8 -11641582.66246  22809502.490    22809515.8614
 02  1 26  0 48 30.0000000  0  7 10 06 23 05 30 17 24
  20760693.657   -25114899.677 9 -19553762.28047  20760692.682    20760703.3154
  21806861.802   -22295776.694 8 -17358331.78847  21806861.434    21806873.0894
  22984848.679   -11157060.555 8  -8670394.14546  22984847.951    22984862.4424
  21142426.933   -23496121.817 9 -18293924.20547  21142426.193    21142436.8104
  20394420.880   -26735822.894 9 -20817360.69448  20394420.986    20394430.1874
  24007196.000    -8865272.853 8  -6878554.27645  24007195.295    24007211.5344
  22824279.818   -14906954.633 8 -11581074.03646  22824279.340    22824292.7844
 02  1 26  0 49  0.0000000  0  7 10 06 23 05 30 17 24
  20759038.775   -25123595.831 9 -19560538.45847  20759037.807    20759048.4344
  21795283.065   -22356622.806 8 -17405744.21447  21795282.690    21795294.3304
  22966195.719   -11255081.686 8  -8746774.03246  22966194.975    22966209.4164
  21155823.930   -23425720.345 9 -18239065.94847  21155823.188    21155833.8194
  20395479.761   -26730258.345 9 -20813024.65648  20395479.863    20395489.0544
  23992213.142    -8944007.817 8  -6939905.97545  23992212.467    23992228.6094
  22839066.721   -14829248.956 8 -11520524.20846  22839066.234    22839079.7254
 02  1 26  0 49 30.0000000  0  7 10 06 23 05 30 17 24
  20757504.270   -25131659.725 9 -19566821.96547  20757503.290    20757513.8924
  21783725.676   -22417356.793 9 -17453069.27747  21783725.301    21783736.9114
  22947581.348   -11352899.523 8  -8822995.50146  22947580.661    22947595.0954
  21169301.116   -23354897.210 9 -18183879.12447  21169300.378    21169311.0274
  20396652.090   -26724097.515 9 -20808223.97948  20396652.202    20396661.3824
  23977264.372    -9022563.129 8  -7001117.68945  23977263.656    23977279.7914
  22853864.328   -14751486.706 8 -11459930.28846  22853863.870    22853877.4324
 02  1 26  0 50  0.0000000  0  7 10 06 23 05 30 17 24
  20756089.788   -25139092.619 9 -19572613.79047  20756088.809    20756099.3814
  21772189.541   -22477979.035 9 -17500307.26647  21772189.157    21772200.7324
  22929005.856   -11450513.004 8  -8899057.74246  22929005.210    22929019.6224
  21182857.873   -23283656.153 9 -18128366.65047  21182857.143    21182867.8054
  20397937.594   -26717342.027 9 -20802959.94048  20397937.702    20397946.8764
  23962349.555    -9100939.946 8  -7062190.32145  23962348.831    23962365.0134
  22868672.257   -14673670.570 8 -11399294.38046  22868671.858    22868685.3904
 02  1 26  0 50 30.0000000  0  7 10 06 23 05 30 17 24
  20754795.348   -25145894.780 9 -19577914.12947  20754794.365    20754804.9214
  21760674.835   -22538488.813 9 -17547457.61347  21760674.459    21760685.9744
  22910469.763   -11547919.795 8  -8974958.92146  22910469.103    22910483.4954
  21196493.624   -23211999.776 9 -18072530.54447  21196492.903    21196503.5774
  20399336.217   -26709992.208 9 -20797232.78248  20399336.313    20399345.4814
  23947468.708    -9179138.253 8  -7123123.84345  23947468.003    23947484.1964
  22883490.036   -14595802.925 8 -11338618.34146  22883489.639    22883503.1704
 02  1 26  0 51  0.0000000  0  7 10 06 23 05 30 17 24
  20753621.992   -25152060.666 9 -19582718.67447  20753621.017    20753631.5564
  21749182.772   -22598879.549 9 -17594515.20547  21749182.384    21749193.8534
  22891974.635   -11645111.547 8  -9050692.54546  22891973.956    22891988.3334
  21210209.160   -23139924.404 9 -18016367.95547  21210208.438    21210219.0994
  20400848.962   -26702042.484 9 -20791038.16448  20400849.056    20400858.2084
  23932623.000    -9257151.970 8  -7183913.54645  23932622.320    23932638.4414
  22898318.516   -14517878.956 8 -11277898.41446  22898318.134    22898331.6754
 02  1 26  0 51 30.0000000  0  7 10 06 23 05 30 17 24
  20752568.310   -25157597.474 9 -19587033.02447  20752567.327    20752577.8684
  21737712.060   -22659157.971 9 -17641485.28047  21737711.686    21737723.1224
  22873519.407   -11742093.803 8  -9126262.92346  22873518.703    22873533.0284
  21224002.449   -23067440.347 9 -17959886.90847  21224001.709    21224012.3754
  20402474.317   -26693501.097 9 -20784382.51348  20402474.411    20402483.5644
  23917811.021    -9334988.656 8  -7244565.29845  23917810.325    23917826.4184
  22913155.911   -14439908.512 8 -11217142.27746  22913155.502    22913169.0094
 02  1 26  0 52  0.0000000  0  7 10 06 23 05 30 17 24
  20751634.297   -25162505.482 9 -19590857.40047  20751633.323    20751643.8484
  21726262.899   -22719323.103 9 -17688367.08247  21726262.502    21726273.9274
  22855104.412   -11838864.139 8  -9201668.17746  22855103.752    22855118.0064
  21237873.079   -22994549.852 9 -17903089.15747  21237872.357    21237883.0124
  20404212.201   -26684368.269 9 -20777265.99648  20404212.298    20404221.4324
  23903032.643    -9412648.226 8  -7305079.05045  23903032.016    23903048.1354
  22928001.866   -14361892.807 8 -11156350.86946  22928001.465    22928014.9974
 02  1 26  0 52 30.0000000  0  7 10 06 23 05 30 17 24
  20750821.016   -25166779.273 9 -19594187.57947  20750820.026    20750830.5264
  21714836.559   -22779368.320 9 -17735155.44047  21714836.182    21714847.5704
  22836731.439   -11935414.156 8  -9276901.75646  22836730.721    22836744.9374
  21251821.712   -22921249.400 9 -17845971.96247  21251820.970    21251831.6614
  20406063.687   -26674638.563 9 -20769684.38048  20406063.776    20406072.9164
  23888289.266    -9490124.629 8  -7365450.06945  23888288.602    23888304.7144
  22942857.128   -14283827.936 8 -11095521.14446  22942856.721    22942870.2984
 02  1 26  0 53  0.0000000  0  7 10 06 23 05 30 17 24
  20750127.460   -25170423.760 9 -19597027.38647  20750126.466    20750136.9554
  21703432.312   -22839297.606 9 -17781853.47447  21703431.937    21703443.3054
  22818399.870   -12031746.348 8  -9351965.60146  22818399.161    22818413.3494
  21265846.975   -22847546.276 9 -17788540.99547  21265846.231    21265856.9224
  20408027.773   -26664317.187 9 -20761641.71848  20408027.856    20408036.9944
  23873579.835    -9567422.532 8  -7425682.00345  23873579.166    23873595.2454
  22957720.568   -14205720.266 8 -11034658.07046  22957720.161    22957733.7484
 02  1 26  0 53 30.0000000  0  7 10 06 23 05 30 17 24
  20749554.315   -25173435.514 9 -19599374.15947  20749553.323    20749563.8004
  21692050.977   -22899106.449 9 -17828457.66847  21692050.606    21692061.9264
  22800110.867   -12127854.769 8  -9426855.08746  22800110.183    22800124.3044
  21279949.098   -22773439.288 9 -17730795.33047  21279948.348    21279959.0644
  20410104.998   -26653401.159 9 -20753135.69148  20410105.098    20410114.2254
  23858905.074    -9644538.102 8  -7485771.84945  23858904.354    23858920.4944
  22972592.601   -14127567.601 8 -10973759.93846  22972592.166    22972605.7244
 02  1 26  0 54  0.0000000  0  7 10 06 23 05 30 17 24
  20749101.172   -25175816.467 9 -19601229.39647  20749100.187    20749110.6544
  21680692.527   -22958795.100 9 -17874968.19947  21680692.149    21680703.4164
  22781864.703   -12223738.205 8  -9501569.25546  22781864.034    22781878.0824
  21294127.372   -22698932.097 9 -17672737.82047  21294126.653    21294137.3664
  20412295.068   -26641892.161 9 -20744167.60548  20412295.172    20412304.2914
  23844264.658    -9721472.686 8  -7545720.65145  23844263.920    23844280.1564
  22987472.534   -14049373.447 8 -10912829.47146  22987472.064    22987485.6144
 02  1 26  0 54 30.0000000  0  7 10 06 23 05 30 17 24
  20748768.291   -25177565.556 9 -19602592.27547  20748767.317    20748777.7544
  21669357.352   -23018361.556 9 -17921383.51247  21669356.976    21669368.2014
  22763661.995   -12319393.411 8  -9576105.59246  22763661.326    22763675.3244
  21308381.493   -22624026.282 9 -17614369.69847  21308380.765    21308391.4994
  20414598.059   -26629789.685 9 -20734737.07348  20414598.158    20414607.2844
  23829658.971    -9798225.193 8  -7605527.59745  23829658.261    23829674.4674
  23002360.272   -13971138.092 8 -10851866.90546  23002359.778    23002373.3814
 02  1 26  0 55  0.0000000  0  7 10 06 23 05 30 17 24
  20748555.662   -25178682.782 9 -19603462.78647  20748554.705    20748565.1264
  21658045.654   -23077804.340 9 -17967702.46447  21658045.297    21658056.5024
  22745503.227   -12414817.557 8  -9650461.86446  22745502.576    22745516.5144
  21322711.118   -22548723.749 9 -17555692.43947  21322710.365    21322721.1284
  20417013.978   -26617093.720 9 -20724844.08048  20417014.075    20417023.2044
  23815088.080    -9874794.787 8  -7665191.99245  23815087.319    23815103.4944
  23017255.559   -13892862.573 8 -10790873.02646  23017255.096    23017268.7274
 02  1 26  0 55 30.0000000  0  7 10 06 23 05 30 17 24
  20748463.205   -25179168.408 9 -19603841.14547  20748462.258    20748472.6634
  21646757.616   -23137122.887 9 -18013924.61547  21646757.292    21646768.4654
  22727388.864   -12510008.421 8  -9724636.37646  22727388.227    22727402.0704
  21337115.697   -22473027.150 9 -17496708.12247  21337114.983    21337125.7554
  20419542.711   -26603804.983 9 -20714489.19248  20419542.815    20419551.9354
  23800551.936    -9951181.652 8  -7724714.01445  23800551.232    23800567.3494
  23032158.199   -13814548.726 8 -10729849.29546  23032157.779    23032171.4094
 02  1 26  0 56  0.0000000  0  7 10 06 23 05 30 17 24
  20748490.914   -25179022.565 9 -19603727.45347  20748489.959    20748500.3474
  21635493.510   -23196315.823 9 -18060048.88447  21635493.160    21635504.3324
  22709319.405   -12604963.243 8  -9798626.94546  22709318.746    22709332.5724
  21351594.865   -22396938.703 9 -17437418.46647  21351594.149    21351604.9384
  20422184.191   -26589923.782 9 -20703672.64448  20422184.286    20422193.3954
  23786050.732   -10027385.336 8  -7784093.28245  23786050.040    23786066.1284
  23047067.961   -13736197.731 8 -10668796.61546  23047067.457    23047081.1734
 02  1 26  0 56 30.0000000  0  7 10 06 23 05 30 17 24
  20748638.860   -25178244.969 9 -19603121.48747  20748637.907    20748648.2804
  21624253.573   -23255381.540 9 -18106074.01647  21624253.221    21624264.3804
  22691295.420   -12699679.118 8  -9872431.32746  22691294.803    22691308.5354
  21366148.283   -22320460.204 9 -17377824.87647  21366147.554    21366158.3794
  20424938.400   -26575450.181 9 -20692394.48948  20424938.499    20424947.5984
  23771584.501   -10103405.075 8  -7843329.22345  23771583.785    23771599.7794
  23061984.484   -13657810.611 8 -10607715.77646  23061984.021    23061997.7464
 02  1 26  0 57  0.0000000  0  7 10 06 23 05 30 17 24
  20748906.860   -25176836.492 9 -19602023.92447  20748905.881    20748916.2604
  21613037.964   -23314319.712 9 -18151999.76047  21613037.606    21613048.7234
  22673317.293   -12794154.227 8  -9946048.09346  22673316.640    22673330.2924
  21380775.292   -22243594.771 9 -17317929.77747  21380774.578    21380785.4104
  20427805.166   -26560385.212 9 -20680655.52748  20427805.265    20427814.3574
  23757153.139   -10179241.411 8  -7902422.24545  23757152.466    23757168.3804
  23076907.566   -13579389.428 8 -10546608.39546  23076907.129    23076920.8204
 02  1 26  0 57 30.0000000  0  7 10 06 23 05 30 17 24
  20749295.100   -25174796.034 9 -19600433.90847  20749294.123    20749304.5004
  21601847.144   -23373127.494 9 -18197823.89847  21601846.793    21601857.8744
  22655385.749   -12888384.309 8 -10019473.92446  22655385.084    22655398.6924
  21395475.836   -22166343.134 9 -17257733.73847  21395475.121    21395485.9524
  20430784.704   -26544727.527 9 -20668454.70448  20430784.802    20430793.8854
  23742757.101   -10254892.417 8  -7961370.85846  23742756.442    23742772.2584
  23091837.152   -13500933.920 8 -10485474.24746  23091836.764    23091850.4174
 02  1 26  0 58  0.0000000  0  7 10 06 23 05 30 17 24
  20749803.280   -25172125.302 9 -19598352.77847  20749802.311    20749812.6894
  21590681.049   -23431805.196 9 -18243546.68247  21590680.683    21590691.7464
  22637500.962   -12982368.517 8 -10092708.17146  22637500.285    22637513.8334
  21410249.182   -22088708.946 9 -17197239.61347  21410248.463    21410259.2814
  20433876.539   -26528479.511 9 -20655793.88948  20433876.632    20433885.7394
  23728396.129   -10330359.352 8  -8020176.02846  23728395.334    23728411.0924
  23106772.829   -13422446.594 8 -10424315.33346  23106772.424    23106786.0944
 02  1 26  0 58 30.0000000  0  7 10 06 23 05 30 17 24
  20750431.279   -25168824.869 9 -19595780.97047  20750430.316    20750440.6754
  21579539.908   -23490351.847 9 -18289167.35047  21579539.536    21579550.5764
  22619663.464   -13076104.414 8 -10165748.92846  22619662.763    22619676.2804
  21425094.815   -22010694.823 9 -17136449.43547  21425094.096    21425104.9324
  20437080.668   -26511641.639 9 -20642673.44848  20437080.773    20437089.8874
  23714070.064   -10405642.161 8  -8078837.73246  23714069.361    23714084.9824
  23121714.268   -13343929.162 8 -10363132.96846  23121713.820    23121727.4894
 02  1 26  0 59  0.0000000  0  7 10 06 23 05 30 17 24
  20751179.472   -25164892.910 9 -19592717.06747  20751178.488    20751188.8734
  21568424.344   -23548763.988 9 -18334683.20747  21568423.991    21568434.9824
  22601874.165   -13169587.018 8 -10238592.30546  22601873.439    22601886.9364
  21440012.722   -21932300.848 9 -17075363.26747  21440012.008    21440022.8404
  20440397.367   -26494212.210 9 -20629092.04748  20440397.457    20440406.5734
  23699779.678   -10480738.023 8  -8137353.74146  23699778.975    23699794.5274
  23136661.578   -13265380.499 8 -10301926.25046  23136661.153    23136674.7964
 02  1 26  0 59 30.0000000  0  7 10 06 23 05 30 17 24
  20752047.391   -25160331.578 9 -19589162.74947  20752046.437    20752056.8244
  21557334.255   -23607042.472 9 -18380094.91147  21557333.908    21557344.8674
  22584133.129   -13262815.943 8 -10311238.01346  22584132.401    22584145.8374
  21455002.104   -21853531.383 9 -17013984.51247  21455001.391    21455012.2174
  20443826.159   -26476193.644 9 -20615051.58248  20443826.254    20443835.3394
  23685524.420   -10555649.250 8  -8195725.88946  23685523.693    23685539.2234
  23151614.031   -13186804.620 8 -10240698.33146  23151613.671    23151627.3504
 02  1 26  1  0  0.0000000  0  7 10 06 23 05 30 17 24
  20753035.236   -25155140.405 9 -19585117.64447  20753034.283    20753044.6304
  21546270.055   -23665185.014 9 -18425400.68347  21546269.698    21546280.6114
  22566441.083   -13355787.805 8 -10383683.40746  22566440.339    22566453.7094
  21470062.666   -21774387.692 9 -16952314.14847  21470061.955    21470072.7934
  20447367.134   -26457585.769 9 -20600551.91448  20447367.242    20447376.2874
  23671304.649   -10630374.211 8  -8253952.90646  23671303.947    23671319.2774
  23166571.852   -13108201.227 8 -10179448.96446  23166571.446    23166585.1444
 02  1 26  1  0 30.0000000  0  7 10 06 23 05 30 17 24
  20754143.023   -25149318.991 9 -19580581.44647  20754142.047    20754152.3784
  21535232.091   -23723189.632 9 -18470598.98847  21535231.720    21535242.6134
  22548798.592   -13448499.125 8 -10455925.77546  22548797.842    22548811.1964
  21485194.114   -21694871.547 9 -16890353.56047  21485193.410    21485204.2854
  20451020.271   -26438388.187 9 -20585592.73648  20451020.363    20451029.4074
  23657120.402   -10704911.889 8  -8312033.98546  23657119.658    23657134.8714
  23181534.772   -13029571.020 8 -10118178.68746  23181534.358    23181547.9884
 02  1 26  1  1  0.0000000  0  7 10 06 23 05 30 17 24
  20755370.507   -25142868.269 9 -19575554.88047  20755369.537    20755379.8674
  21524220.477   -23781055.620 9 -18515689.26647  21524220.103    21524230.9754
  22531205.963   -13540948.024 8 -10527963.67846  22531205.232    22531218.5464
  21500395.895   -21614985.769 9 -16828104.95547  21500395.186    21500406.0744
  20454785.378   -26418602.266 9 -20570175.12248  20454785.497    20454794.5344
  23642971.736   -10779262.705 8  -8369969.45146  23642970.982    23642986.0914
  23196502.433   -12950915.684 8 -10056888.83846  23196501.946    23196515.6324
 02  1 26  1  1 30.0000000  0  7 10 06 23 05 30 17 24
  20756717.356   -25135790.290 9 -19570039.53847  20756716.394    20756726.7074
  21513235.202   -23838783.223 9 -18560671.71147  21513234.838    21513245.6844
  22513663.410   -13633133.670 8 -10599796.43346  22513662.716    22513675.9524
  21515667.277   -21534734.586 9 -16765571.61447  21515666.554    21515677.4114
  20458662.054   -26398230.218 9 -20554300.78448  20458662.163    20458671.2144
  23628858.401   -10853428.094 8  -8427760.43146  23628857.623    23628872.6424
  23211474.299   -12872238.207 8  -9995581.75546  23211473.791    23211487.5064
 02  1 26  1  2  0.0000000  0  7 10 06 23 05 30 17 24
  20758183.962   -25128083.273 9 -19564034.04147  20758182.989    20758193.2874
  21502276.896   -23896368.986 9 -18605543.62947  21502276.514    21502287.3454
  22496171.940   -13725051.157 8 -10671420.23646  22496171.225    22496184.4494
  21531008.162   -21454117.898 9 -16702753.46547  21531007.444    21531018.2994
  20462650.576   -26377270.293 9 -20537968.36348  20462650.682    20462659.7274
  23614780.818   -10927405.352 8  -8485404.81546  23614780.049    23614795.0214
  23226450.505   -12793537.610 8  -9934256.64646  23226450.013    23226463.7524
 02  1 26  1  2 30.0000000  0  7 10 06 23 05 30 17 24
  20759769.864   -25119749.105 9 -19557539.85047  20759768.891    20759779.1844
  21491345.591   -23953812.946 9 -18650305.04747  21491345.222    21491356.0284
  22478731.731   -13816699.134 8 -10742834.03746  22478731.039    22478744.1964
  21546417.904   -21373139.430 9 -16639653.40947  21546417.176    21546428.0384
  20466750.553   -26355724.578 9 -20521179.47948  20466750.663    20466759.7034
  23600738.848   -11001195.583 8  -8542903.47446  23600738.119    23600752.9234
  23241430.670   -12714816.343 8  -9872915.42346  23241430.222    23241443.9554
 02  1 26  1  3  0.0000000  0  7 10 06 23 05 30 17 24
  20761475.303   -25110786.622 9 -19550556.06947  20761474.350    20761484.6384
  21480441.818   -24011112.249 9 -18694953.74047  21480441.460    21480452.2404
  22461343.551   -13908073.684 8 -10814034.78146  22461342.866    22461356.0024
  21561896.276   -21291800.113 9 -16576272.17747  21561895.560    21561906.4254
  20470962.227   -26333592.048 9 -20503933.34348  20470962.348    20470971.3884
  23586732.755   -11074796.894 8  -8600254.91246  23586732.026    23586746.8234
  23256414.949   -12636073.895 8  -9811557.70446  23256414.499    23256428.2064
 02  1 26  1  3 30.0000000  0  7 10 06 23 05 30 17 24
  20763300.110   -25101197.219 9 -19543083.77347  20763299.137    20763309.4094
  21469565.689   -24068266.242 9 -18739489.21047  21469565.339    21469576.0994
  22444007.787   -13999173.027 8 -10885021.08846  22444007.127    22444020.1554
  21577442.756   -21210102.976 9 -16512612.11747  21577442.048    21577452.9244
  20475285.270   -26310874.262 9 -20486231.15948  20475285.395    20475294.4134
  23572762.508   -11148209.966 8  -8657459.67745  23572761.767    23572776.5074
  23271402.837   -12557312.190 8  -9750184.96546  23271402.374    23271416.0434
 02  1 26  1  4  0.0000000  0  7 10 06 23 05 30 17 24
  20765243.873   -25090982.534 9 -19535124.24947  20765242.912    20765253.1914
  21458717.247   -24125274.773 9 -18783911.33447  21458716.900    21458727.6204
  22426724.710   -14089995.875 8 -10955791.94146  22426724.012    22426736.9584
  21593056.655   -21128051.522 9 -16448675.97547  21593055.948    21593066.8244
  20479719.390   -26287573.017 9 -20468074.33048  20479719.495    20479728.5064
  23558827.913   -11221435.567 8  -8714518.35745  23558827.164    23558841.9524
  23286393.832   -12478533.676 8  -9688799.15546  23286393.435    23286407.1444
 02  1 26  1  4 30.0000000  0  7 10 06 23 05 30 17 24
  20767306.952   -25080140.816 9 -19526676.12247  20767305.993    20767316.2834
  21447897.205   -24182134.120 9 -18828217.21847  21447896.830    21447907.5234
  22409495.119   -14180537.106 8 -11026343.35246  22409494.420    22409507.3284
  21608738.032   -21045645.589 9 -16384463.61347  21608737.312    21608748.2184
  20484264.785   -26263686.556 9 -20449461.49448  20484264.899    20484273.9004
  23544929.456   -11294470.905 8  -8771428.78546  23544928.766    23544943.5834
  23301388.448   -12399736.871 8  -9627399.06846  23301387.974    23301401.7374
 02  1 26  1  5  0.0000000  0  7 10 06 23 05 30 17 24
  20769488.908   -25068674.392 9 -19517741.21647  20769487.953    20769498.2124
  21437105.469   -24238844.746 9 -18872407.21447  21437105.101    21437115.7614
  22392319.236   -14270796.137 8 -11096674.87446  22392318.551    22392331.4004
  21624485.983   -20962889.433 9 -16319978.35247  21624485.280    21624496.2254
  20488921.064   -26239217.604 9 -20430394.76748  20488921.185    20488930.1744
  23531066.918   -11367317.896 8  -8828192.45746  23531066.242    23531081.0904
  23316385.791   -12320925.075 8  -9565987.30946  23316385.332    23316399.1064
 02  1 26  1  5 30.0000000  0  7 10 06 23 05 30 17 24
  20771789.621   -25056584.062 9 -19508320.14447  20771788.650    20771798.8934
  21426342.274   -24295405.224 9 -18916480.21147  21426341.902    21426352.5174
  22375197.537   -14360770.359 8 -11166784.46746  22375196.844    22375209.6754
  21640300.208   -20879785.584 8 -16255222.16347  21640299.482    21640310.4344
  20493688.013   -26214167.052 9 -20410874.85148  20493688.135    20493697.1284
  23517240.340   -11439976.151 8  -8884809.06746  23517239.684    23517254.4514
  23331385.973   -12242098.943 8  -9504564.38346  23331385.498    23331399.2874
 02  1 26  1  6  0.0000000  0  7 10 06 23 05 30 17 24
  20774208.919   -25043870.248 9 -19498413.23847  20774207.945    20774218.2054
  21415607.983   -24351813.903 9 -18960434.91847  21415607.604    21415618.2074
  22358130.546   -14450456.920 8 -11236669.90946  22358129.879    22358142.7354
  21656180.107   -20796336.190 8 -16190196.71847  21656179.379    21656190.3894
  20498565.609   -26188535.109 9 -20390901.90148  20498565.718    20498574.7364
  23503449.835   -11512445.026 8  -8941278.11446  23503449.171    23503463.8964
  23346388.603   -12163259.790 8  -9443131.30646  23346388.171    23346401.9334
 02  1 26  1  6 30.0000000  0  7 10 06 23 05 30 17 24
  20776746.662   -25030534.015 9 -19488021.33547  20776745.708    20776755.9774
  21404902.714   -24408069.941 9 -19004270.68547  21404902.355    21404912.9464
  22341118.690   -14539853.871 8 -11306329.68946  22341118.036    22341130.8614
  21672125.205   -20712544.256 8 -16124904.35947  21672124.500    21672135.5234
  20503553.549   -26162323.299 9 -20370477.10848  20503553.665    20503562.6584
  23489695.271   -11584724.780 8  -8997599.80246  23489694.593    23489709.3264
  23361393.479   -12084409.002 8  -9381689.14746  23361393.005    23361406.7424
 02  1 26  1  7  0.0000000  0  7 10 06 23 05 30 17 24
  20779403.021   -25016574.718 9 -19477143.93347  20779402.069    20779412.3134
  21394227.060   -24464170.431 9 -19047985.24547  21394226.715    21394237.2944
  22324162.718   -14628957.322 8 -11375760.77246  22324162.054    22324174.8404
  21688135.333   -20628410.795 8 -16059345.87947  21688134.607    21688145.6284
  20508651.931   -26135531.123 9 -20349600.08448  20508652.056    20508661.0444
  23475977.090   -11656813.997 8  -9053773.01046  23475976.390    23475991.0824
  23376400.560   -12005546.345 8  -9320237.75346  23376400.095    23376413.8304
 02  1 26  1  7 30.0000000  0  7 10 06 23 05 30 17 24
  20782177.629   -25001993.944 9 -19465782.25647  20782176.679    20782186.9054
  21383581.101   -24520114.823 9 -19091578.18047  21383580.755    21383591.3084
  22307262.928   -14717765.550 8 -11444961.81046  22307262.254    22307274.9744
  21704209.823   -20543939.085 8 -15993523.82447  21704209.089    21704220.1224
  20513860.457   -26108160.139 9 -20328272.03948  20513860.580    20513869.5484
  23462295.063   -11728712.977 8  -9109797.99446  23462294.332    23462308.9954
  23391409.531   -11926673.542 8  -9258778.45446  23391409.075    23391422.8854
 02  1 26  1  8  0.0000000  0  7 10 06 23 05 30 17 24
  20785070.246   -24986793.026 9 -19453937.35647  20785069.286    20785079.4914
  21372965.027   -24575902.332 9 -19135048.87647  21372964.684    21372975.2104
  22290419.693   -14806276.697 8 -11513931.35346  22290419.044    22290431.6954
  21720348.119   -20459131.955 8 -15927440.40747  21720347.396    21720358.4454
  20519178.826   -26080211.905 9 -20306494.18748  20519178.948    20519187.9194
  23448649.109   -11800422.312 8  -9165675.19146  23448648.378    23448662.9684
  23406420.138   -11847791.965 8  -9197312.31046  23406419.732    23406433.6234
 02  1 26  1  8 30.0000000  0  7 10 06 23 05 30 17 24
  20788080.864   -24970972.074 9 -19441609.30647  20788079.902    20788090.0884
  21362379.151   -24631531.172 9 -19178395.93847  21362378.793    21362389.2724
  22273633.599   -14894487.764 8 -11582667.07546  22273632.925    22273645.4874
  21736549.850   -20373991.477 8 -15861097.23347  21736549.130    21736560.1844
  20524606.958   -26051686.834 9 -20284266.85048  20524607.050    20524616.0584
  23435039.391   -11871941.255 8  -9221404.02646  23435038.681    23435053.1654
  23421432.425   -11768902.611 8  -9135840.13146  23421431.970    23421445.7704
 02  1 26  1  9  0.0000000  0  7 10 06 23 05 30 17 24
  20791209.035   -24954533.222 9 -19428799.78147  20791208.086    20791218.2474
  21351823.494   -24687001.116 9 -19221619.17747  21351823.131    21351833.5794
  22256904.812   -14982397.393 8 -11651167.91246  22256904.146    22256916.6164
  21752814.330   -20288521.350 8 -15794497.19547  21752813.610    21752824.7034
  20530144.430   -26022587.161 9 -20261591.77148  20530144.547    20530153.5344
  23421465.640   -11943270.915 8  -9276985.37646  23421464.948    23421479.3694
  23436445.589   -11690007.842 8  -9074363.71746  23436445.156    23436458.9834
 02  1 26  1  9 30.0000000  0  7 10 06 23 05 30 17 24
  20794455.216   -24937474.334 9 -19415507.11047  20794454.259    20794464.4214
  21341298.943   -24742307.664 9 -19264715.09347  21341298.587    21341308.9834
  22240234.424   -15070000.219 8 -11719429.68046  22240233.747    22240246.1724
  21769141.671   -20202720.872 8 -15727639.73247  21769140.937    21769152.0634
  20535791.663   -25992910.756 9 -20238467.29648  20535791.767    20535800.7534
  23407928.521   -12014407.907 8  -9332416.58946  23407927.849    23407942.2364
  23451460.187   -11611105.537 8  -9012881.42846  23451459.752    23451473.6204
 02  1 26  1 10  0.0000000  0  7 10 06 23 05 30 17 24
  20797818.949   -24919797.609 9 -19401733.01247  20797817.990    20797828.1534
  21330805.534   -24797450.589 9 -19307683.50147  21330805.171    21330815.5494
  22223622.608   -15157295.023 8 -11787451.42746  22223621.937    22223634.3464
  21785531.112   -20116593.890 8 -15660527.85947  21785530.381    21785541.5264
  20541548.235   -25962659.804 9 -20214895.12648  20541548.332    20541557.3134
  23394427.844   -12085353.322 8  -9387698.52646  23394427.185    23394441.5404
  23466475.819   -11532198.147 8  -8951395.18146  23466475.367    23466489.2364
 02  1 26  1 10 30.0000000  0  7 10 06 23 05 30 17 24
  20801299.849   -24901505.210 9 -19387479.16147  20801298.901    20801309.0614
  21320343.307   -24852429.580 9 -19350524.16647  21320342.944    21320353.3054
  22207069.751   -15244280.276 8 -11855231.97646  22207069.067    22207081.4394
  21801982.082   -20030143.771 8 -15593164.19147  21801981.332    21801992.4934
  20547413.691   -25931836.499 9 -20190876.96448  20547413.801    20547422.7684
  23380963.555   -12156107.942 8  -9442831.79346  23380962.886    23380977.2154
  23481492.064   -11453287.216 8  -8889906.19546  23481491.632    23481505.5084
 02  1 26  1 11  0.0000000  0  8 10 06 23 05 30 17 15 24
  20804895.619   -24882609.286 9 -19372755.04047  20804894.661    20804904.8204
  21309910.307   -24907254.852 9 -19393245.05947  21309909.937    21309920.3064
  22190574.010   -15330965.293 8 -11922778.57047  22190573.326    22190585.6334
  21818491.811   -19943384.834 8 -15525559.88247  21818491.083    21818502.2054
  20553385.684   -25900453.438 9 -20166422.63348  20553385.797    20553394.7664
  23367533.348   -12226683.368 8  -9497825.43446  23367532.664    23367546.9424
  24713744.662    -4847083.550 7  -3736241.28945  24713743.791    24713763.3224
  23496506.490   -11374385.697 8  -8828424.51146  23496506.057    23496520.0014
 02  1 26  1 11 30.0000000  0  8 10 06 23 05 30 17 15 24
  20808608.704   -24863096.701 9 -19357550.39647  20808607.741    20808617.9024
  21299509.510   -24961910.933 9 -19435834.13047  21299509.157    21299519.4924
  22174138.527   -15417333.641 8 -11990078.41147  22174137.834    22174150.0974
  21835062.482   -19856305.584 8 -15457705.98147  21835061.761    21835072.8584
  20559466.609   -25868497.845 9 -20141522.17448  20559466.707    20559475.7004
  23354139.981   -12297065.297 8  -9552668.29146  23354139.296    23354153.4814
  24697087.686    -4934615.393 7  -3804447.65845  24697086.973    24697106.3454
  23511521.718   -11295480.334 8  -8766939.84646  23511521.282    23511535.1564
 02  1 26  1 12  0.0000000  0  8 10 06 23 05 30 17 15 24
  20812439.580   -24842965.249 9 -19341863.52247  20812438.619    20812448.7674
  21289141.853   -25016392.828 9 -19478287.47247  21289141.514    21289151.8144
  22157764.458   -15503379.435 8 -12057126.91647  22157763.770    22157775.9634
  21851694.263   -19768905.063 8 -15389601.73947  21851693.567    21851704.6554
  20565656.978   -25835967.173 9 -20116173.60448  20565657.102    20565666.0844
  23340784.159   -12367250.126 8  -9607357.57246  23340783.432    23340797.5734
  24680457.744    -5022004.488 7  -3872542.76545  24680457.086    24680476.4414
  23526538.021   -11216569.187 8  -8705450.68046  23526537.597    23526551.4334
 02  1 26  1 12 30.0000000  0  8 10 06 23 05 30 17 15 24
  20816387.301   -24822219.790 9 -19325698.20547  20816386.336    20816396.4554
  21278806.911   -25070702.968 9 -19520606.97947  21278806.569    21278816.8454
  22141451.385   -15589104.220 8 -12123925.28347  22141450.713    22141462.8804
  21868386.047   -19681189.362 8 -15321251.90947  21868385.362    21868396.4814
  20571955.863   -25802866.332 9 -20090380.74748  20571955.971    20571964.9724
  23327465.027   -12437241.815 8  -9661896.35746  23327464.283    23327478.3744
  24663854.454    -5109253.869 7  -3940529.01445  24663853.660    24663873.1894
  23541554.585   -11137656.828 8  -8643960.57646  23541554.151    23541568.0274
 02  1 26  1 13  0.0000000  0  8 10 06 23 05 30 17 15 24
  20820451.808   -24800860.502 9 -19309054.57647  20820450.842    20820460.9434
  21268505.114   -25124838.948 9 -19562790.76447  21268504.781    21268515.0244
  22125200.112   -15674504.641 8 -12190470.90747  22125199.433    22125211.5804
  21885137.490   -19593160.282 8 -15252657.88947  21885136.785    21885147.9174
  20578363.160   -25769195.795 9 -20064143.97148  20578363.276    20578372.2864
  23314182.868   -12507039.010 8  -9716283.58946  23314182.158    23314196.1844
  24647278.021    -5196362.289 7  -4008405.46245  24647277.285    24647296.6244
  23556571.374   -11058743.208 8  -8582469.47545  23556570.975    23556584.7914
 02  1 26  1 13 30.0000000  0  8 10 06 23 05 30 17 15 24
  20824632.375   -24778891.392 9 -19291935.75847  20824631.418    20824641.5174
  21258236.162   -25178802.304 9 -19604840.04347  21258235.820    21258246.0504
  22109010.392   -15759581.316 8 -12256764.26047  22109009.771    22109021.8584
  21901947.529   -19504823.251 8 -15183823.90547  21901946.828    21901957.9784
  20584878.064   -25734959.637 9 -20037466.45148  20584878.175    20584887.1784
  23300937.146   -12576644.716 8  -9770521.62046  23300936.428    23300950.3684
  24630727.977    -5283332.336 7  -4076174.06145  24630727.203    24630746.5424
  23571587.571   -10979832.878 8  -8520980.95145  23571587.140    23571600.9154
 02  1 26  1 14  0.0000000  0  8 10 06 23 05 30 17 15 24
  20828929.210   -24756311.282 9 -19274340.83947  20828928.253    20828938.3234
  21248000.722   -25232589.426 9 -19646751.99747  21248000.386    21248010.6074
  22092883.186   -15844329.788 8 -12322801.87447  22092882.556    22092894.5694
  21918816.039   -19416178.920 8 -15114750.46847  21918815.330    21918826.5014
  20591500.816   -25700156.963 9 -20010347.49248  20591500.931    20591509.9354
  23287728.378   -12646056.590 8  -9824608.61146  23287727.642    23287741.5034
  24614204.895    -5370161.205 7  -4143832.68945  24614204.031    24614223.3084
  23586603.577   -10900923.898 8  -8459493.47045  23586603.134    23586616.8824
 02  1 26  1 14 30.0000000  0  8 10 06 23 05 30 17 15 24
  20833341.766   -24733123.172 9 -19256272.15447  20833340.798    20833350.8644
  21237798.815   -25286200.681 9 -19688526.92247  21237798.478    21237808.6504
  22076818.575   -15928749.391 8 -12388583.22747  22076817.947    22076829.9044
  21935742.215   -19327231.589 8 -15045440.93247  21935741.502    21935752.6554
  20598230.796   -25664790.677 9 -19982789.35448  20598230.901    20598239.9024
  23274556.118   -12715276.254 8  -9878545.83646  23274555.431    23274569.2234
  24597708.353    -5456850.219 8  -4211382.31645  24597707.522    24597726.6964
  23601618.604   -10822019.297 8  -8398009.41346  23601618.210    23601631.9314
 02  1 26  1 15  0.0000000  0  8 10 06 23 05 30 17 15 24
  20837869.756   -24709328.251 9 -19237730.63247  20837868.794    20837878.8674
  21227630.551   -25339634.812 9 -19730163.83247  21227630.208    21227640.3644
  22060816.950   -16012838.007 8 -12454106.67447  22060816.305    22060828.2114
  21952725.506   -19237984.159 8 -14975897.54647  21952724.775    21952735.9404
  20605067.734   -25628862.311 9 -19954793.23548  20605067.848    20605076.8414
  23261420.493   -12784303.897 8  -9932333.42746  23261419.764    23261433.4854
  24581238.494    -5543399.034 7  -4278822.68045  24581237.583    24581256.8924
  23616632.560   -10743120.179 8  -8336529.61846  23616632.216    23616646.0284
 02  1 26  1 15 30.0000000  0  8 10 06 23 05 30 17 15 24
  20842513.441   -24684925.280 9 -19218715.30247  20842512.479    20842522.5464
  21217496.828   -25392887.538 9 -19771659.37647  21217496.493    21217506.6534
  22044879.253   -16096590.601 8 -12519368.28947  22044878.588    22044890.4624
  21969765.936   -19148436.370 8 -14906120.12047  21969765.178    21969776.4114
  20612011.907   -25592370.468 9 -19926358.04348  20612012.021    20612021.0254
  23248321.948   -12853136.739 8  -9985969.24546  23248321.232    23248334.8394
  24564795.926    -5629804.525 8  -4346151.37945  24564795.027    24564814.1244
  23631645.926   -10664224.911 8  -8275052.82146  23631645.492    23631659.3424
 02  1 26  1 16  0.0000000  0  8 10 06 23 05 30 17 15 24
  20847271.815   -24659919.672 9 -19199230.39147  20847270.875    20847280.9344
  21207397.098   -25445961.806 9 -19813015.86547  21207396.745    21207406.8744
  22029005.042   -16180009.340 8 -12584369.76147  22029004.388    22029016.2324
  21986862.178   -19058595.049 8 -14836113.97047  21986861.452    21986872.7234
  20619062.230   -25555320.760 9 -19897488.15048  20619062.360    20619071.3674
  23235259.651   -12921779.109 8 -10039456.64446  23235258.896    23235272.4804
  24548379.932    -5716070.679 8  -4413371.50945  24548378.981    24548398.0484
  23646657.434   -10585338.747 8  -8213583.12246  23646657.030    23646670.9804
 02  1 26  1 16 30.0000000  0  8 10 06 23 05 30 17 15 24
  20852145.417   -24634308.785 9 -19179273.82847  20852144.471    20852154.5204
  21197332.306   -25498852.219 9 -19854229.09047  21197331.963    21197342.0664
  22013195.655   -16263087.732 8 -12649106.02747  22013194.993    22013206.8134
  22004014.555   -18968458.880 8 -14765878.06747  22004013.838    22004025.0954
  20626219.217   -25517710.591 9 -19868181.52848  20626219.335    20626228.3404
  23222234.253   -12990226.927 8 -10092792.45446  23222233.533    23222247.1214
  24531991.198    -5802192.979 7  -4480479.53145  24531990.187    24532009.2234
  23661667.797   -10506458.652 8  -8152118.16246  23661667.428    23661681.4034
 02  1 26  1 17  0.0000000  0  8 10 06 23 05 30 17 15 24
  20857133.666   -24608095.266 9 -19158847.68347  20857132.707    20857142.7564
  21187302.577   -25551558.542 9 -19895298.87047  21187302.236    21187312.3274
  21997451.154   -16345825.043 8 -12713576.52247  21997450.472    21997462.2764
  22021222.324   -18878031.785 8 -14695415.47147  22021221.605    22021232.8664
  20633482.316   -25479542.703 9 -19838440.32448  20633482.427    20633491.4344
  23209245.735   -13058481.337 8 -10145977.55946  23209245.034    23209258.5434
  24515629.661    -5888172.261 7  -4547476.12245  24515628.664    24515647.6604
  23676676.706   -10427586.850 8  -8090659.65046  23676676.288    23676690.3154
 02  1 26  1 17 30.0000000  0  8 10 06 23 05 30 17 15 24
  20862235.788   -24581283.345 9 -19137955.25447  20862234.825    20862244.8854
  21177307.570   -25604082.221 9 -19936226.32647  21177307.215    21177317.3164
  21981771.396   -16428221.942 8 -12777781.75947  21981770.727    21981782.5044
  22038484.385   -18787319.386 8 -14624730.56147  22038483.665    22038494.9494
  20640850.752   -25440821.451 9 -19808267.92548  20640850.866    20640859.8634
  23196293.436   -13126545.282 8 -10199014.25846  23196292.751    23196306.2314
  24499294.897    -5974011.271 8  -4614363.40645  24499293.952    24499312.8724
  23691683.233   -10348727.292 8  -8029210.67245  23691682.800    23691696.8244
 02  1 26  1 18  0.0000000  0  8 10 06 23 05 30 17 15 24
  20867452.525   -24553869.220 9 -19116593.57847  20867451.574    20867461.6264
  21167348.589   -25656416.865 9 -19977006.49547  21167348.230    21167358.2964
  21966157.851   -16510271.159 8 -12841716.07947  21966157.186    21966168.8904
  22055801.195   -18696319.398 8 -14553821.55147  22055800.477    22055811.7374
  20648325.137   -25401543.219 9 -19777661.51948  20648325.242    20648334.2344
  23183378.315   -13194413.923 8 -10251898.76946  23183377.642    23183391.1034
  24482987.774    -6059704.644 7  -4681137.20345  24482986.802    24483005.6094
  23706687.999   -10269876.196 8  -7967768.31545  23706687.592    23706701.7164
 02  1 26  1 18 30.0000000  0  8 10 06 23 05 30 17 15 24
  20872783.234   -24525856.032 9 -19094765.10047  20872782.274    20872792.2984
  21157425.554   -25708562.541 9 -20017639.41247  21157425.180    21157435.2144
  21950610.609   -16591972.148 8 -12905379.06147  21950609.949    21950621.5874
  22073171.863   -18605035.894 8 -14482691.63347  22073171.171    22073182.4764
  20655904.971   -25361711.056 9 -19746623.48148  20655905.074    20655914.0694
  23170500.197   -13262088.567 8 -10304632.12546  23170499.507    23170512.8844
  24466708.159    -6145253.586 7  -4747798.46545  24466707.271    24466725.9074
  23721690.846   -10191035.708 8  -7906334.22045  23721690.455    23721704.5924
 02  1 26  1 19  0.0000000  0  8 10 06 23 05 30 17 15 24
  20878227.291   -24497247.067 9 -19072472.37647  20878226.335    20878236.3604
  21147538.310   -25760519.819 9 -20058125.50747  21147537.944    21147547.9564
  21935129.639   -16673324.627 8 -12968770.47447  21935128.987    21935140.6014
  22090595.609   -18513473.767 8 -14411344.60447  22090594.919    22090606.2774
  20663589.529   -25321328.497 9 -19715156.56048  20663589.645    20663598.6294
  23157658.578   -13329571.373 8 -10357215.99246  23157657.877    23157671.2174
  24450455.698    -6230659.713 8  -4814348.42945  24450454.883    24450473.3644
  23736691.173   -10112208.852 8  -7844910.73245  23736690.781    23736704.9134
 02  1 26  1 19 30.0000000  0  8 10 06 23 05 30 17 15 24
  20883785.162   -24468040.223 9 -19049713.77447  20883784.207    20883794.2244
  21137687.902   -25812283.669 9 -20098460.88347  21137687.544    21137697.5384
  21919716.099   -16754322.662 8 -13031885.69547  21919715.427    21919727.0224
  22108072.612   -18421631.886 8 -14339779.58047  22108071.910    22108083.2704
  20671379.267   -25280393.326 9 -19683259.03748  20671379.372    20671388.3264
  23144854.118   -13396858.606 8 -10409647.48046  23144853.451    23144866.7274
  24434231.257    -6315918.766 8  -4880783.78345  24434230.435    24434248.8564
  23751689.403   -10033393.049 8  -7783495.86145  23751689.008    23751703.0904
 02  1 26  1 20  0.0000000  0  8 10 06 23 05 30 17 15 24
  20889455.796   -24438240.861 9 -19026493.47147  20889454.831    20889464.8334
  21127873.866   -25863856.545 9 -20138647.45747  21127873.508    21127883.4804
  21904369.693   -16834968.100 8 -13094726.16647  21904369.011    21904380.5784
  22125601.546   -18329517.176 8 -14268001.96747  22125600.815    22125612.1724
  20679273.028   -25238911.199 9 -19650935.31148  20679273.137    20679282.0754
  23132086.167   -13463954.292 8 -10461929.70146  23132085.461    23132098.6944
  24418034.126    -6401034.490 8  -4947107.47545  24418033.368    24418051.6864
  23766684.534    -9954593.297 8  -7722093.49045  23766684.137    23766698.1384
 02  1 26  1 20 30.0000000  0  8 10 06 23 05 30 17 15 24
  20895239.297   -24407848.159 9 -19002810.82347  20895238.348    20895248.3534
  21118096.873   -25915234.561 9 -20178682.20347  21118096.516    21118106.4514
  21889091.218   -16915256.450 8 -13157288.39647  21889090.558    21889102.0794
  22143182.276   -18237129.945 8 -14196012.00347  22143181.564    22143192.9344
  20687271.109   -25196881.232 9 -19618184.70348  20687271.230    20687280.1564
  23119355.010   -13530856.101 8 -10514060.85746  23119354.334    23119367.5124
  24401864.769    -6486004.025 8  -5013317.23745  24401863.942    24401882.1244
  23781677.031    -9875807.808 8  -7660702.24045  23781676.568    23781690.4334
 02  1 26  1 21  0.0000000  0  8 10 06 23 05 30 17 15 24
  20901135.339   -24376864.170 9 -18978667.43547  20901134.386    20901144.3794
  21108357.159   -25966416.793 9 -20218564.38747  21108356.809    21108366.7234
  21873880.987   -16995186.131 8 -13219571.13947  21873880.338    21873891.8064
  22160814.398   -18144473.139 8 -14123811.97147  22160813.678    22160825.0384
  20695372.974   -25154305.688 9 -19585008.97047  20695373.091    20695382.0274
  23106660.715   -13597564.631 8 -10566041.40746  23106660.053    23106673.2184
  24385723.142    -6570827.555 7  -5079413.22045  24385722.336    24385740.3104
  23796666.439    -9797038.096 8  -7599323.28245  23796665.931    23796679.8614
 02  1 26  1 21 30.0000000  0  8 10 06 23 05 30 17 15 24
  20907143.859   -24345289.168 9 -18954063.51647  20907142.906    20907152.8944
  21098655.180   -26017400.670 9 -20258292.00347  21098654.855    21098664.7434
  21858739.722   -17074753.799 8 -13281571.79247  21858739.040    21858750.4984
  22178497.453   -18051548.403 8 -14051403.17447  22178496.726    22178508.1024
  20703578.573   -25111184.940 9 -19551408.40847  20703578.701    20703587.6114
  23094003.382   -13664078.700 8 -10617870.42146  23094002.725    23094015.9014
  24369609.562    -6655503.724 7  -5145394.38445  24369608.701    24369626.7474
  23811652.932    -9718283.776 8  -7537956.31145  23811652.466    23811666.3424
 02  1 26  1 22  0.0000000  0  8 10 06 23 05 30 17 15 24
  20913264.070   -24313127.242 9 -18929002.25347  20913263.109    20913273.0954
  21088990.786   -26068187.056 9 -20297865.72847  21088990.456    21089000.3444
  21843667.247   -17153959.420 8 -13343290.33047  21843666.584    21843678.0444
  22196230.496   -17958360.707 8 -13978789.47047  22196229.800    22196241.2414
  20711887.223   -25067522.771 9 -19517385.95547  20711887.329    20711896.2744
  23081382.664   -13730400.663 8 -10669549.75146  23081381.982    23081395.1594
  24353523.671    -6740034.566 7  -5211262.29345  24353522.817    24353540.7904
  23826635.878    -9639548.372 8  -7476604.07145  23826635.423    23826649.1964
 02  1 26  1 22 30.0000000  0  8 10 06 23 05 30 17 15 24
  20919496.364   -24280376.260 9 -18903481.99047  20919495.405    20919505.3564
  21079364.967   -26118770.809 9 -20337281.55647  21079364.620    21079374.5144
  21828664.758   -17232797.556 8 -13404722.52147  21828664.090    21828675.5234
  22214013.750   -17864909.283 8 -13905970.26646  22214013.049    22214024.5344
  20720299.212   -25023317.569 9 -19482940.35947  20720299.335    20720308.2654
  23068799.178   -13796527.134 8 -10721076.74546  23068798.473    23068811.5644
  24337466.178    -6824416.155 7  -5277013.89645  24337465.384    24337483.3704
  23841615.674    -9560829.247 8  -7415264.50945  23841615.283    23841629.0944
 02  1 26  1 23  0.0000000  0  8 10 06 23 05 30 17 15 24
  20925839.896   -24247040.839 9 -18877506.31547  20925838.913    20925848.8624
  21069777.456   -26169153.153 9 -20376540.44547  21069777.117    21069786.9934
  21813732.055   -17311268.941 8 -13465868.93447  21813731.388    21813742.7884
  22231846.147   -17771199.679 8 -13832949.88646  22231845.454    22231856.9424
  20728813.702   -24978573.720 9 -19448075.04047  20728813.811    20728822.7194
  23056252.316   -13862460.875 8 -10772453.56046  23056251.619    23056264.6534
  24321436.542    -6908651.032 7  -5342651.14545  24321435.812    24321453.4924
  23856591.716    -9482129.651 8  -7353940.17445  23856591.396    23856605.1624
 02  1 26  1 23 30.0000000  0  8 10 06 23 05 30 17 15 24
  20932294.838   -24213119.510 9 -18851074.09347  20932293.884    20932303.8274
  21060229.098   -26219329.653 9 -20415638.94047  21060228.767    21060238.6144
  21798870.070   -17389368.644 8 -13526725.71947  21798869.397    21798880.7944
  22249727.713   -17677231.721 8 -13759728.19146  22249727.024    22249738.5434
  20737430.905   -24933290.101 9 -19412789.12247  20737431.005    20737439.9134
  23043742.679   -13928199.096 8 -10823678.02646  23043742.000    23043754.9574
  24305435.265    -6992736.122 7  -5408171.68645  24305434.488    24305452.4954
  23871564.373    -9403448.015 8  -7292629.84845  23871563.990    23871577.7364
 02  1 26  1 24  0.0000000  0  8 10 06 23 05 30 17 15 24
  20938860.442   -24178617.017 9 -18824189.01447  20938859.479    20938869.4254
  21050719.675   -26269301.778 9 -20454578.17247  21050719.330    21050729.1814
  21784078.646   -17467097.545 8 -13587293.56747  21784077.977    21784089.3484
  22267657.386   -17583011.169 8 -13686309.67246  22267656.662    22267668.2204
  20746149.910   -24887471.456 9 -19377086.29847  20746150.029    20746158.9524
  23031269.644   -13993744.868 8 -10874752.51846  23031268.954    23031281.8694
  24289462.159    -7076674.083 7  -5473577.60345  24289461.346    24289479.2374
  23886532.982    -9324787.933 8  -7231336.29345  23886532.538    23886546.2644
 02  1 26  1 24 30.0000000  0  8 10 06 23 05 30 17 15 24
  20945536.723   -24143532.807 9 -18796850.64747  20945535.757    20945545.7034
  21041249.791   -26319066.023 9 -20493355.41747  21041249.436    21041259.2364
  21769358.591   -17544451.445 8 -13647569.20647  21769357.927    21769369.2544
  22285635.012   -17488538.571 8 -13612694.74646  22285634.286    22285645.8214
  20754970.848   -24841117.253 9 -19340966.15747  20754970.943    20754979.8744
  23018833.610   -14059096.046 8 -10925675.37846  23018832.914    23018845.8154
  24273517.596    -7160462.298 7  -5538866.82345  24273516.804    24273534.6114
  23901497.562    -9246148.241 8  -7170058.64345  23901497.118    23901510.8214
 02  1 26  1 25  0.0000000  0  8 10 06 23 05 30 17 15 24
  20952323.060   -24107870.251 9 -18769061.62647  20952322.089    20952332.0554
  21031819.481   -26368622.544 9 -20531970.80047  21031819.125    21031828.8844
  21754709.982   -17621429.944 8 -13707552.32947  21754709.308    21754720.6054
  22303659.697   -17393818.528 8 -13538887.01446  22303658.958    22303670.5354
  20763893.035   -24794230.913 9 -19304431.37247  20763893.126    20763902.0574
  23006434.306   -14124254.383 8 -10976447.97046  23006433.598    23006446.5074
  24257601.388    -7244102.021 7  -5604040.33045  24257600.503    24257618.2444
  23916457.765    -9167531.501 8  -7108798.86145  23916457.291    23916471.0434
 02  1 26  1 25 30.0000000  0  8 10 06 23 05 30 17 15 24
  20959219.397   -24071629.562 9 -18740822.11147  20959218.445    20959228.3744
  21022429.247   -26417968.168 9 -20570421.84347  21022428.885    21022438.6194
  21740133.473   -17698029.489 8 -13767240.16347  21740132.809    21740144.0744
  22321731.296   -17298852.010 8 -13464887.22646  22321730.587    22321742.1764
  20772916.425   -24746812.770 9 -19267482.19247  20772916.519    20772925.4724
  22994071.925   -14189218.452 8 -11027069.18246  22994071.216    22994084.1564
  24241713.643    -7327591.560 8  -5669096.81745  24241712.822    24241730.4474
  23931413.745    -9088936.735 7  -7047556.20245  23931413.298    23931427.1554
 02  1 26  1 26  0.0000000  0  8 10 06 23 05 30 17 15 24
  20966225.817   -24034810.508 9 -18712131.92247  20966224.865    20966234.7734
  21013079.822   -26467099.418 9 -20608705.83347  21013079.478    21013089.1864
  21725629.891   -17774245.964 8 -13826629.49847  21725629.200    21725640.4194
  22339849.616   -17203639.798 8 -13390695.98846  22339848.914    22339860.5664
  20782041.045   -24698862.589 9 -19230118.43547  20782041.152    20782050.0924
  22981746.845   -14253986.295 8 -11077537.49546  22981746.158    22981759.1114
  24225854.848    -7410928.755 8  -5734034.57645  24225854.010    24225871.6544
  23946365.709    -9010363.059 7  -6986329.98445  23946365.276    23946379.2494
 02  1 26  1 26 30.0000000  0  8 10 06 23 05 30 17 15 24
  20973340.973   -23997420.115 9 -18682996.53547  20973340.029    20973349.9184
  21003770.437   -26516020.095 9 -20646825.75547  21003770.093    21003779.7964
  21711198.567   -17850082.663 8 -13885722.90647  21711197.871    21711209.0584
  22358013.216   -17108190.007 8 -13316319.61346  22358012.550    22358024.1764
  20791265.546   -24650387.487 9 -19192345.64747  20791265.646    20791274.6034
  22969458.178   -14318563.378 8 -11127857.16246  22969457.465    22969470.3834
  24210024.205    -7494118.446 8  -5798857.39145  24210023.380    24210040.9674
  23961312.621    -8931816.474 7  -6925124.87145  23961312.209    23961326.2384
 02  1 26  1 27  0.0000000  0  8 10 06 23 05 30 17 15 24
  20980565.448   -23959455.062 9 -18653413.35847  20980564.507    20980574.3894
  20994502.377   -26564723.655 9 -20684776.50247  20994502.049    20994511.7114
  21696840.804   -17925532.668 8 -13944514.99547  21696840.130    21696851.2644
  22376222.470   -17012500.247 8 -13241756.26346  22376221.764    22376233.4064
  20800590.574   -24601384.325 9 -19154161.38547  20800590.671    20800599.6234
  22957206.676   -14382944.720 8 -11178024.29946  22957205.987    22957218.8554
  24194222.547    -7577155.352 8  -5863561.14845  24194221.749    24194239.3354
  23976255.189    -8853292.536 7  -6863937.42145  23976254.714    23976268.9604
 02  1 26  1 27 30.0000000  0  8 10 06 23 05 30 17 15 24
  20987898.581   -23920919.080 9 -18623385.30447  20987897.651    20987907.5094
  20985275.644   -26613210.330 9 -20722558.24547  20985275.306    20985284.9234
  21682556.714   -18000595.720 8 -14003005.56547  21682556.049    21682567.1124
  22394476.473   -16916575.190 8 -13167009.55846  22394475.747    22394487.4604
  20810015.355   -24551856.832 9 -19115568.55247  20810015.446    20810024.4144
  22944992.079   -14447132.162 8 -11228040.35646  22944991.403    22945004.2264
  24178449.732    -7660040.957 8  -5928146.99145  24178448.909    24178466.4094
  23991192.989    -8774794.133 7  -6802769.86145  23991192.453    23991206.8104
 02  1 26  1 28  0.0000000  0  8 10 06 23 05 30 17 15 24
  20995339.733   -23881815.647 9 -18592915.08447  20995338.809    20995348.6574
  20976090.118   -26661480.346 9 -20760171.15747  20976089.765    20976099.3514
  21668346.311   -18075271.383 8 -14061194.27347  21668345.647    21668356.6694
  22412774.374   -16820419.222 8 -13092082.92746  22412773.660    22412785.3984
  20819539.212   -24501808.418 9 -19076569.81047  20819539.313    20819548.3194
  22932814.021   -14511127.702 8 -11277906.88546  22932813.374    22932826.1524
  24162705.425    -7742776.759 8  -5992616.11845  24162704.648    24162722.0614
  24006125.496    -8696323.573 7  -6741624.00445  24006124.915    24006139.2154
 02  1 26  1 28 30.0000000  0  8 10 06 23 05 30 17 15 24
  21002889.099   -23842143.424 9 -18562001.65347  21002888.153    21002897.9934
  20966946.687   -26709528.891 9 -20797611.49747  20966946.345    20966955.9314
  21654210.583   -18149554.609 9 -14119077.19047  21654209.903    21654220.9154
  22431116.351   -16724031.965 8 -13016976.08046  22431115.612    22431127.3644
  20829162.473   -24451237.895 9 -19037164.23347  20829162.571    20829171.5894
  22920673.058   -14574928.126 8 -11327621.36046  22920672.480    22920685.2314
  24146990.259    -7825359.377 8  -6056965.89145  24146989.468    24147006.8434
  24021053.062    -8617878.836 7  -6680498.27045  24021052.481    24021066.8774
 02  1 26  1 29  0.0000000  0  8 10 06 23 05 30 17 15 24
  21010546.143   -23801905.317 9 -18530647.26347  21010545.192    21010555.0174
  20957845.496   -26757355.545 9 -20834878.93147  20957845.166    20957854.7424
  21640149.689   -18223444.569 9 -14176653.66047  21640149.017    21640160.0034
  22449501.536   -16627417.319 8 -12941692.02946  22449500.834    22449512.5834
  20838884.490   -24400148.333 9 -18997354.20747  20838884.600    20838893.6164
  22908569.017   -14638534.725 8 -11377184.80946  22908568.398    22908581.1024
  24131304.060    -7907789.713 8  -6121197.01445  24131303.247    24131320.5494
  24035975.498    -8539461.174 7  -6619393.62645  24035974.970    24035989.3774
 02  1 26  1 29 30.0000000  0  8 10 06 23 05 30 17 15 24
  21018310.434   -23761103.735 9 -18498853.80647  21018309.467    21018319.3054
  20948786.736   -26804959.301 9 -20871972.68347  20948786.407    20948795.9634
  21626163.924   -18296939.902 9 -14233922.63647  21626163.269    21626174.1814
  22467929.447   -16530578.518 8 -12866233.32546  22467928.747    22467940.4984
  20848704.843   -24348542.183 9 -18957141.65047  20848704.962    20848713.9794
  22896501.790   -14701947.988 8 -11426597.61046  22896501.162    22896513.8564
  24115646.798    -7990067.994 8  -6185309.65045  24115645.946    24115663.2274
  24050892.496    -8461072.074 8  -6558311.24545  24050891.994    24050906.3914
 02  1 26  1 30  0.0000000  0  8 10 06 23 05 30 17 15 24
  21026181.452   -23719741.012 9 -18466623.09547  21026180.518    21026190.3364
  20939770.627   -26852338.946 9 -20908891.80547  20939770.289    20939779.8314
  21612253.552   -18370039.148 9 -14290882.96447  21612252.869    21612263.7394
  22486399.387   -16433518.739 8 -12790602.42446  22486398.700    22486410.4584
  20858623.054   -24296421.755 9 -18916528.35247  20858623.156    20858632.1794
  22884471.205   -14765168.542 8 -11475860.25246  22884470.581    22884483.2214
  24100018.371    -8072194.378 8  -6249303.93445  24100017.595    24100034.7414
  24065803.907    -8382712.829 8  -6497252.12445  24065803.360    24065817.7684
 02  1 26  1 30 30.0000000  0  8 10 06 23 05 30 17 15 24
  21034159.221   -23677817.618 9 -18433955.49747  21034158.275    21034168.0774
  20930797.759   -26899491.308 9 -20945633.82347  20930797.421    20930806.9414
  21598419.155   -18442738.777 9 -14347531.90447  21598418.486    21598429.3114
  22504911.161   -16336239.186 8 -12714800.27246  22504910.465    22504922.2174
  20868639.034   -24243787.487 9 -18875514.66147  20868639.152    20868648.1754
  22872477.545   -14828195.070 8 -11524971.70446  22872476.924    22872489.5444
  24084419.180    -8154167.033 8  -6313178.44645  24084418.505    24084435.5194
  24080709.698    -8304382.412 8  -6436215.46045  24080709.202    24080723.5694
 02  1 26  1 31  0.0000000  0  8 10 06 23 05 30 17 15 24
  21042243.381   -23635334.934 9 -18400852.08347  21042242.439    21042252.2494
  20921868.515   -26946414.462 9 -20982197.24047  20921868.182    20921877.6914
  21584661.256   -18515036.440 9 -14403867.62547  21584660.591    21584671.4024
  22523464.277   -16238742.292 8 -12638828.76346  22523463.541    22523475.3494
  20878752.461   -24190641.122 9 -18834101.93247  20878752.570    20878761.6234
  22860520.895   -14891027.157 8 -11573931.65146  22860520.221    22860532.8474
  24068849.532    -8235985.200 8  -6376932.59445  24068848.723    24068865.6654
  24095609.886    -8226081.667 8  -6375201.91545  24095609.396    24095623.7204
 02  1 26  1 31 30.0000000  0  8 10 06 23 05 30 17 15 24
  21050433.302   -23592296.565 9 -18367315.67747  21050432.369    21050442.1584
  20912982.868   -26993108.510 9 -21018582.13147  20912982.534    20912992.0324
  21570979.909   -18586931.949 9 -14459889.98947  21570979.242    21570990.0264
  22542057.913   -16141032.234 8 -12562691.15846  22542057.218    22542069.0684
  20888962.693   -24136986.155 9 -18792292.89047  20888962.792    20888971.8344
  22848600.912   -14953666.719 8 -11622741.58246  22848600.263    22848612.7964
  24053308.954    -8317650.482 8  -6440567.63845  24053308.141    24053324.9534
  24110504.064    -8147812.448 8  -6314212.94845  24110503.576    24110517.8274
 02  1 26  1 32  0.0000000  0  8 10 06 23 05 30 17 15 24
  21058728.834   -23548703.221 9 -18333346.81647  21058727.896    21058737.6554
  20904141.370   -27039570.465 9 -21054786.16747  20904141.034    20904150.5074
  21557375.683   -18658421.999 9 -14515596.40647  21557375.040    21557385.8164
  22560691.838   -16043110.621 8 -12486388.70246  22560691.148    22560703.0324
  20899269.524   -24082823.358 9 -18750088.12747  20899269.627    20899278.6644
  22836717.858   -15016112.307 8 -11671400.35946  22836717.190    22836729.6614
  24037797.775    -8399161.142 8  -6504082.17945  24037796.990    24037813.6714
  24125392.354    -8069574.348 8  -6253248.21345  24125391.809    24125406.0854
 02  1 26  1 32 30.0000000  0  8 10 06 23 05 30 17 15 24
  21067129.487   -23504557.422 9 -18298947.47347  21067128.520    21067138.3074
  20895344.217   -27085799.385 9 -21090808.61947  20895343.905    20895353.3514
  21543848.862   -18729505.378 9 -14570985.93647  21543848.225    21543858.9874
  22579365.435   -15944980.783 8 -12409923.99246  22579364.691    22579376.6284
  20909672.522   -24028155.273 9 -18707489.62847  20909672.625    20909681.7024
  22824871.489   -15078364.889 8 -11719908.74946  22824870.811    22824883.2934
  24022315.957    -8480517.666 8  -6567476.63245  24022315.158    24022331.7204
  24140274.531    -7991368.429 8  -6192308.54645  24140274.036    24140288.1924
 02  1 26  1 33  0.0000000  0  8 10 06 23 05 30 17 15 24
  21075634.948   -23459860.786 9 -18264118.90347  21075633.972    21075643.7744
  20886591.868   -27131793.037 9 -21126647.74747  20886591.534    20886600.9594
  21530399.869   -18800179.832 9 -14626056.82047  21530399.215    21530409.9674
  22598078.113   -15846645.122 8 -12333298.90846  22598077.406    22598089.3224
  20920171.366   -23972983.610 9 -18664498.73147  20920171.477    20920180.5494
  22813061.907   -15140423.932 8 -11768266.31946  22813061.237    22813073.7174
  24006863.676    -8561719.055 8  -6630750.20745  24006862.775    24006879.3334
  24155150.510    -7913194.900 8  -6131394.11945  24155150.038    24155164.1804
 02  1 26  1 33 30.0000000  0  8 10 06 23 05 30 17 15 24
  21084244.824   -23414615.456 9 -18228862.78447  21084243.872    21084253.6714
  20877884.598   -27177549.731 9 -21162302.23648  20877884.262    20877893.6814
  21517029.084   -18870443.318 9 -14680807.47547  21517028.421    21517039.1534
  22616829.448   -15748106.337 8 -12256515.54546  22616828.755    22616840.6984
  20930765.610   -23917310.391 9 -18621117.01947  20930765.732    20930774.8064
  22801289.190   -15202289.620 8 -11816473.22646  22801288.507    22801300.9824
  23991440.919    -8642765.174 8  -6693902.80245  23991440.072    23991456.4684
  24170020.209    -7835054.249 8  -6070505.31245  24170019.794    24170033.8164
 02  1 26  1 34  0.0000000  0  8 10 06 23 05 30 17 15 24
  21092958.722   -23368823.626 9 -18193180.81747  21092957.749    21092967.5294
  20869222.586   -27223068.483 9 -21197771.31148  20869222.258    20869231.6614
  21503736.701   -18940294.724 9 -14735237.02747  21503736.024    21503746.7564
  22635618.883   -15649367.663 8 -12179576.41946  22635618.197    22635630.1624
  20941454.866   -23861138.106 9 -18577346.43047  20941454.992    20941464.0714
  22789553.081   -15263962.649 8 -11864530.01246  22789552.391    22789564.8674
  23976047.548    -8723656.470 7  -6756934.75445  23976046.709    23976063.0694
  24184883.376    -7756948.145 8  -6009643.42445  24184882.904    24184896.9694
 02  1 26  1 34 30.0000000  0  8 10 06 23 05 30 17 15 24
  21101776.318   -23322486.630 9 -18157074.04947  21101775.355    21101785.1254
  20860606.379   -27268346.653 9 -21233052.92148  20860606.033    20860615.4244
  21490523.281   -19009731.172 9 -14789343.24547  21490522.601    21490533.2924
  22654445.988   -15550430.966 8 -12102482.98846  22654445.314    22654457.2684
  20952238.807   -23804467.999 9 -18533187.93347  20952238.937    20952248.0334
  22777853.790   -15325442.274 8 -11912436.10246  22777853.121    22777865.5734
  23960683.901    -8804391.672 7  -6819845.09045  23960683.045    23960699.4004
  24199739.913    -7678875.929 8  -5948807.95045  24199739.419    24199753.5964
 02  1 26  1 35  0.0000000  0  8 10 06 23 05 30 17 15 24
  21110697.256   -23275606.490 9 -18120544.05447  21110696.319    21110706.0894
  20852036.229   -27313382.708 9 -21268145.87048  20852035.886    20852045.2444
  21477389.149   -19078750.892 9 -14843124.73447  21477388.504    21477399.1544
  22673310.241   -15451298.843 8 -12025237.27946  22673309.564    22673321.6184
  20963117.115   -23747302.339 9 -18488643.29347  20963117.236    20963126.3254
  22766191.295   -15386728.623 8 -11960191.58846  22766190.605    22766203.0454
  23945350.096    -8884970.630 7  -6882633.66345  23945349.181    23945365.4104
  24214589.859    -7600838.389 8  -5887999.48945  24214589.458    24214603.5914
 02  1 26  1 35 30.0000000  0  8 10 06 23 05 30 17 15 24
  21119721.120   -23228185.755 9 -18083592.81947  21119720.172    21119729.9564
  20843512.414   -27358175.458 9 -21303049.25148  20843512.077    20843521.3924
  21464334.595   -19147352.579 9 -14896580.48247  21464333.951    21464344.5884
  22692211.098   -15351974.696 8 -11947841.94646  22692210.380    22692222.4594
  20974089.221   -23689643.615 9 -18443714.45047  20974089.320    20974098.4424
  22754565.458   -15447822.376 8 -12007796.99346  22754564.783    22754577.1834
  23930045.779    -8965393.676 7  -6945300.72845  23930044.865    23930061.1044
  24229433.079    -7522836.679 8  -5827218.93145  24229432.603    24229446.7764
 02  1 26  1 36  0.0000000  0  8 10 06 23 05 30 17 15 24
  21128847.357   -23180226.840 9 -18046222.22547  21128846.414    21128856.2164
  20835035.123   -27402723.641 9 -21337762.05448  20835034.776    20835044.0674
  21451359.908   -19215534.567 9 -14949709.19347  21451359.263    21451369.8754
  22711147.969   -15252461.364 8 -11870299.18246  22711147.230    22711159.3514
  20985154.669   -23631494.317 9 -18398403.34247  20985154.780    20985163.8994
  22742976.230   -15508723.760 8 -12055252.50146  22742975.566    22742987.8894
  23914771.306    -9045660.726 7  -7007846.24945  23914770.409    23914786.5964
  24244269.360    -7444871.470 7  -5766466.83245  24244268.962    24244282.9544
 02  1 26  1 36 30.0000000  0  8 10 06 23 05 30 17 15 24
  21138075.925   -23131730.277 9 -18008432.69047  21138074.995    21138084.7664
  20826605.032   -27447023.902 9 -21372281.67948  20826604.682    20826613.9534
  21438465.691   -19283293.714 9 -15002508.41847  21438465.040    21438475.6204
  22730120.580   -15152760.220 8 -11792610.08246  22730119.786    22730131.9684
  20996313.387   -23572854.949 9 -18352710.35947  20996313.515    20996322.6234
  22731423.806   -15569431.461 8 -12102557.08746  22731423.163    22731435.4584
  23899526.801    -9125770.147 7  -7070268.94545  23899525.922    23899541.9834
  24259098.868    -7366941.898 7  -5705742.49345  24259098.456    24259112.4384
 02  1 26  1 37  0.0000000  0  8 10 06 23 05 30 17 15 24
  21147406.135   -23082699.835 9 -17970227.14447  21147405.186    21147414.9544
  20818222.047   -27491076.506 9 -21406608.31548  20818221.695    20818230.9594
  21425651.915   -19350630.120 9 -15054978.23347  21425651.261    21425661.8194
  22749127.983   -15052875.959 8 -11714778.30246  22749127.217    22749139.4074
  21007564.597   -23513729.506 9 -18306638.62047  21007564.725    21007573.8444
  22719907.904   -15629947.562 8 -12149712.38346  22719907.256    22719919.5074
  23884312.059    -9205723.440 8  -7132569.97645  23884311.146    23884327.2284
  24273921.150    -7289050.316 7  -5645047.77945  24273920.765    24273934.8134
 02  1 26  1 37 30.0000000  0  8 10 06 23 05 30 17 15 24
  21156837.563   -23033137.281 9 -17931606.96647  21156836.607    21156846.3584
  20809886.619   -27534879.225 9 -21440740.23848  20809886.266    20809895.4904
  21412919.078   -19417541.306 9 -15107116.71747  21412918.425    21412928.9414
  22768169.886   -14952810.517 8 -11636805.33646  22768169.154    22768181.3524
  21018908.002   -23454119.672 9 -18260189.43547  21018908.143    21018917.2504
  22708428.581   -15690271.529 8 -12196717.96246  22708427.913    22708440.1164
  23869127.193    -9285519.798 8  -7194748.73045  23869126.328    23869142.2474
  24288736.088    -7211197.024 7  -5584382.86245  24288735.649    24288749.7904
 02  1 26  1 38  0.0000000  0  8 10 06 23 05 30 17 15 24
  21166370.048   -22983043.792 9 -17892573.07647  21166369.098    21166378.8704
  20801599.216   -27578429.640 9 -21474675.55348  20801598.863    20801608.0574
  21400267.606   -19484024.835 9 -15158921.95347  21400266.944    21400277.4524
  22787245.853   -14852565.885 8 -11558692.73746  22787245.108    22787257.3534
  21030343.277   -23394026.874 9 -18213363.90847  21030343.406    21030352.5444
  22696985.968   -15750402.655 8 -12243573.26246  22696985.274    22696997.4584
  23853972.280    -9365158.325 8  -7256804.50845  23853971.480    23853987.3834
  24303543.848    -7133381.211 7  -5523747.17945  24303543.447    24303557.6384
 02  1 26  1 38 30.0000000  0  8 10 06 23 05 30 17 15 24
  21176003.016   -22932422.029 9 -17853127.54347  21176002.089    21176011.8424
  20793360.112   -27621726.174 9 -21508413.03848  20793359.767    20793368.9294
  21387697.785   -19550079.118 9 -15210392.71547  21387697.116    21387707.6194
  22806355.377   -14752145.081 8 -11480442.86446  22806354.619    22806366.8454
  21041870.025   -23333453.631 9 -18166164.00547  21041870.176    21041879.3084
  22685579.916   -15810341.479 8 -12290278.72546  22685579.250    22685591.3894
  23838847.534    -9444638.975 8  -7318737.26045  23838846.661    23838862.4994
  24318344.266    -7055603.934 7  -5463141.54245  24318343.990    24318358.1204
 02  1 26  1 39  0.0000000  0  8 10 06 23 05 30 17 15 24
  21185735.836   -22881275.736 9 -17813273.28647  21185734.891    21185744.6554
  20785169.304   -27664768.678 9 -21541952.58448  20785168.957    20785178.1344
  21375209.697   -19615703.977 9 -15261528.86047  21375209.031    21375219.5034
  22825497.603   -14651552.364 8 -11402059.04246  22825496.897    22825509.1374
  21053487.445   -23272403.652 9 -18118592.62447  21053487.594    21053496.7364
  22674210.162   -15870089.537 8 -12336835.54146  22674209.482    22674221.6174
  23823752.431    -9523962.908 8  -7380547.91145  23823751.620    23823767.3984
  24333136.992    -6977867.666 7  -5402567.83245  24333136.610    24333150.9504
 02  1 26  1 39 30.0000000  0 10 26 10 18 06 23 05 30 17 15 24
  24443926.989    -2530722.299 7  -1942943.45445  24443926.692    24443941.7004
  21195567.710   -22829608.775 9 -17773013.31647  21195566.775    21195576.5274
  24765372.569    -3316715.664 7  -2553124.09845  24765372.100    24765388.3614
  20777026.834   -27707557.215 9 -21575294.23448  20777026.514    20777035.6594
  21362803.309   -19680899.653 9 -15312330.58147  21362802.650    21362813.0744
  22844671.643   -14550792.525 8 -11323544.98146  22844670.903    22844683.2214
  21065194.850   -23210881.005 9 -18070652.92947  21065194.989    21065204.1184
  22662876.253   -15929649.062 8 -12383245.44746  22662875.558    22662887.6924
  23808687.017    -9603131.721 8  -7442237.68845  23808686.230    23808701.8474
  24347921.458    -6900174.340 7  -5342027.61045  24347921.135    24347935.4994
 02  1 26  1 40  0.0000000  0 10 26 10 18 06 23 05 30 17 15 24
  24426639.676    -2621566.677 7  -2013731.15745  24426639.350    24426654.4264
  21205498.947   -22777419.685 9 -17732346.48947  21205498.009    21205507.7934
  24744115.275    -3428422.214 7  -2640167.88945  24744114.707    24744131.1254
  20768933.733   -27750086.558 9 -21608433.91048  20768933.397    20768942.5214
  21350479.616   -19745660.747 9 -15362793.66647  21350478.961    21350489.3374
  22863877.667   -14449864.391 8 -11244899.78546  22863876.957    22863889.3024
  21076992.490   -23148884.295 9 -18022343.83047  21076992.622    21077001.7554
  22651578.917   -15989016.273 8 -12429505.49746  22651578.229    22651590.3734
  23793651.845    -9682141.705 8  -7503803.71345  23793651.008    23793666.5064
  24362698.470    -6822520.882 7  -5281518.40445  24362698.215    24362712.5344
 02  1 26  1 40 30.0000000  0 10 26 10 18 06 23 05 30 17 15 24
  24409349.784    -2712425.405 7  -2084530.04045  24409349.539    24409364.4534
  21215529.571   -22724708.572 9 -17691272.89847  21215528.645    21215538.4074
  24722867.317    -3540079.546 7  -2727173.32645  24722866.806    24722883.1254
  20760890.646   -27792352.940 9 -21641368.68748  20760890.295    20760899.4124
  21338239.345   -19809983.450 9 -15412915.15247  21338238.705    21338249.0214
  22883115.603   -14348768.737 8 -11166124.06646  22883114.909    22883127.2634
  21088880.261   -23086413.708 9 -17973665.48647  21088880.392    21088889.5244
  22640318.561   -16048189.487 8 -12475614.38446  22640317.874    22640329.9584
  23778647.212    -9760990.808 8  -7565244.37545  23778646.416    23778661.8034
  24377468.243    -6744905.894 7  -5221039.20245  24377467.920    24377482.2794
 02  1 26  1 41  0.0000000  0 10 26 10 18 06 23 05 30 17 15 24
  24392057.209    -2803298.394 7  -2155340.02845  24392057.070    24392071.7114
  21225658.481   -22671480.829 9 -17649796.72947  21225657.523    21225667.2844
  24701628.517    -3651688.459 7  -2814141.03545  24701628.000    24701644.2584
  20752897.352   -27834357.780 9 -21674099.66348  20752897.018    20752906.1134
  21326082.214   -19873869.216 9 -15462696.16547  21326081.571    21326091.8524
  22902384.355   -14247511.382 8 -11087222.33846  22902383.669    22902396.0504
  21100857.189   -23023474.676 9 -17924622.11147  21100857.311    21100866.4424
  22629094.511   -16107171.859 8 -12521574.55746  22629093.795    22629105.8334
  23763672.613    -9839681.742 8  -7626561.78645  23763671.823    23763687.2884
  24392229.965    -6667332.759 8  -5160592.61045  24392229.611    24392243.9144
 02  1 26  1 41 30.0000000  0 10 26 10 18 06 23 05 30 17 15 24
  24374763.022    -2894179.226 7  -2226156.13545  24374762.973    24374777.5094
  21235885.884   -22617735.475 9 -17607917.23247  21235884.943    21235894.6724
  24680399.944    -3763243.670 7  -2901066.87945  24680399.545    24680415.6544
  20744954.755   -27876096.148 9 -21706623.00848  20744954.407    20744963.4654
  21314009.165   -19937313.225 9 -15512132.95547  21314008.519    21314018.7494
  22921683.978   -14146091.659 8 -11008194.08646  22921683.279    22921695.6574
  21112923.455   -22960066.266 9 -17875212.99247  21112923.577    21112932.6914
  22617907.329   -16165960.238 8 -12567383.56246  22617906.629    22617918.6414
  23748728.843    -9918211.083 8  -7687753.27946  23748728.058    23748743.5154
  24406984.332    -6589798.550 8  -5100176.33945  24406983.957    24406998.2914
 02  1 26  1 42  0.0000000  0 10 26 10 18 06 23 05 30 17 15 24
  24357467.400    -2985068.064 7  -2296978.49545  24357467.306    24357481.8014
  21246210.757   -22563477.772 9 -17565638.49947  21246209.845    21246219.5694
  24659181.579    -3874745.738 7  -2987951.31445  24659181.125    24659197.2234
  20737062.588   -27917569.604 9 -21738939.92448  20737062.231    20737071.2804
  21302019.845   -20000317.148 9 -15561226.81947  21302019.189    21302029.4004
  22941013.316   -14044515.652 8 -10929044.05746  22941012.618    22941025.0574
  21125077.969   -22896193.859 9 -17825442.32147  21125078.093    21125087.2264
  22606756.458   -16224558.045 8 -12613044.07646  22606755.759    22606767.7584
  23733815.239    -9996581.785 8  -7748821.16246  23733814.453    23733829.8824
  24421730.531    -6512307.273 8  -5039793.52245  24421730.128    24421744.3904
 02  1 26  1 42 30.0000000  0 10 26 10 18 06 23 05 30 17 15 24
  24340170.924    -3075961.208 7  -2367804.18945  24340170.831    24340185.2324
  21256632.760   -22508709.767 9 -17522962.12847  21256631.840    21256641.5784
  24637973.864    -3986192.092 7  -3074792.32045  24637973.197    24637989.2404
  20729221.231   -27958775.873 9 -21771048.64848  20729220.879    20729229.9174
  21290114.665   -20062878.876 9 -15609976.12347  21290114.011    21290124.1794
  22960371.963   -13942785.630 8 -10849774.02246  22960371.256    22960383.7354
  21137320.401   -22831859.480 9 -17775311.66847  21137320.527    21137329.6784
  22595641.900   -16282965.023 8 -12658555.89246  22595641.223    22595653.1614
  23718931.874   -10074793.154 8  -7809764.88646  23718931.126    23718946.5464
  24436468.562    -6434858.651 8  -4979443.95745  24436468.125    24436482.4034
 02  1 26  1 43  0.0000000  0 10 26 10 18 06 23 05 30 17 15 24
  24322874.560    -3166854.268 7  -2438629.81745  24322874.265    24322888.6904
  21267151.655   -22453432.499 9 -17479888.92447  21267150.738    21267160.4974
  24616777.323    -4097579.207 7  -3161587.15245  24616776.601    24616792.8704
  20721431.278   -27999712.159 9 -21802946.98948  20721430.922    20721439.9354
  21278294.133   -20124995.702 9 -15658378.74547  21278293.484    21278303.6204
  22979759.717   -13840903.000 8 -10770385.06846  22979759.004    22979771.4424
  21149650.549   -22767064.230 9 -17724821.89647  21149650.671    21149659.8304
  22584563.797   -16341180.276 8 -12703918.30846  22584563.133    22584575.0464
  23704079.124   -10152843.963 8  -7870583.48845  23704078.398    23704093.8154
  24451198.487    -6357452.168 8  -4919127.22545  24451198.127    24451212.4394
 02  1 26  1 43 30.0000000  0 10 26 10 18 06 23 05 30 17 15 24
  24305578.342    -3257745.700 7  -2509454.18145  24305578.188    24305592.5624
  21277766.778   -22397649.733 9 -17436421.82647  21277765.829    21277775.5934
  24595592.185    -4208906.561 7  -3248335.44145  24595591.547    24595607.5624
  20713692.664   -28040378.503 9 -21834634.98448  20713692.329    20713701.3054
  21266558.310   -20186667.551 9 -15706434.63447  21266557.669    21266567.7654
  22999175.608   -13738872.282 8 -10690880.72546  22999174.842    22999187.3264
  21162067.630   -22701812.108 9 -17673976.12447  21162067.735    21162076.9134
  22573521.890   -16399205.371 8 -12749132.54546  22573521.217    22573533.1364
  23689256.655   -10230735.567 8  -7931278.03345  23689255.930    23689271.3324
  24465919.980    -6280089.896 7  -4858844.94945  24465919.646    24465933.9484
 02  1 26  1 44  0.0000000  0 10 26 10 18 06 23 05 30 17 15 24
  24288283.241    -3348631.663 7  -2580274.26545  24288283.092    24288297.3794
  21288477.745   -22341363.093 9 -17392562.09947  21288476.804    21288486.5974
  24574418.956    -4320170.978 7  -3335034.62545  24574418.105    24574434.3634
  20706005.925   -28080772.334 9 -21866110.62048  20706005.581    20706014.5664
  21254907.550   -20247892.174 9 -15754142.03147  21254906.904    21254917.0114
  23018619.256   -13636695.440 8 -10611262.51246  23018618.571    23018631.0274
  21174571.348   -22636104.867 9 -17622775.70747  21174571.449    21174580.6214
  22562516.214   -16457040.013 8 -12794198.38846  22562515.556    22562527.4404
  23674464.732   -10308467.083 8  -7991847.82945  23674463.940    23674479.3624
  24480633.277    -6202771.422 8  -4798596.79445  24480632.931    24480647.1564
 02  1 26  1 44 30.0000000  0 10 26 10 18 06 23 05 30 17 15 24
  24270989.649    -3439509.339 7  -2651087.87645  24270989.484    24271003.8684
  21299284.024   -22284575.666 9 -17348312.15047  21299283.083    21299292.8654
  24553258.081    -4431370.883 7  -3421683.57245  24553257.194    24553273.3604
  20698371.273   -28120892.399 9 -21897372.93448  20698370.926    20698379.9144
  21243342.108   -20308668.542 9 -15801500.14247  21243341.481    21243351.5514
  23038090.165   -13534375.713 8 -10531532.96246  23038089.492    23038101.9384
  21187161.163   -22569945.273 9 -17571222.81847  21187161.263    21187170.4394
  22551546.697   -16514684.835 8 -12839116.31246  22551546.050    22551557.8604
  23659703.189   -10386038.898 8  -8052293.19645  23659702.360    23659717.7804
  24495338.067    -6125497.647 8  -4738383.46945  24495337.680    24495351.8464
 02  1 26  1 45  0.0000000  0 10 26 10 18 06 23 05 30 17 15 24
  24253698.532    -3530374.010 7  -2721891.34545  24253698.484    24253712.8424
  21310185.447   -22227288.264 9 -17303672.61147  21310184.506    21310194.2914
  24532110.177    -4542502.352 7  -3508279.21045  24532109.385    24532125.4664
  20690789.316   -28160735.405 9 -21928419.36048  20690788.985    20690797.9594
  21231862.559   -20368993.497 9 -15848506.50647  21231861.928    21231871.9884
  23057588.034   -13431914.327 8 -10451693.03546  23057587.344    23057599.8344
  21199836.845   -22503334.209 9 -17519318.12747  21199836.958    21199846.1424
  22540613.638   -16572138.206 8 -12883885.07146  22540612.988    22540624.7394
  23644972.302   -10463449.202 8  -8112612.70045  23644971.447    23644986.8134
  24510034.541    -6048267.610 8  -4678204.22445  24510034.077    24510048.2244
 02  1 26  1 45 30.0000000  0 10 26 10 18 06 23 05 30 17 15 24
  24236409.824    -3621225.942 7  -2792684.89145  24236409.823    24236424.2174
  21321180.899   -22169506.644 9 -17258647.96347  21321179.934    21321189.7274
  24510975.089    -4653566.618 7  -3594822.47145  24510974.475    24510990.3514
  20683259.808   -28200303.036 9 -21959251.21048  20683259.468    20683268.4274
  21220468.524   -20428869.010 9 -15895162.65247  21220467.916    21220477.9494
  23077111.626   -13329317.417 8 -10371747.49046  23077110.988    23077123.4334
  21212597.293   -22436277.674 9 -17467066.30947  21212597.404    21212606.6034
  22529716.215   -16629404.078 8 -12928507.71646  22529715.573    22529727.2844
  23630271.479   -10540701.256 8  -8172808.89145  23630270.694    23630286.1014
  24524721.942    -5971085.269 7  -4618062.15045  24524721.329    24524735.6014
 02  1 26  1 46  0.0000000  0 10 26 10 18 06 23 05 30 17 15 24
  24219125.210    -3712056.829 7  -2863462.02745  24219125.139    24219139.5094
  21332270.952   -22111227.962 9 -17213235.99547  21332269.997    21332279.7644
  24489854.239    -4764556.658 8  -3681307.91045  24489853.617    24489869.3914
  20675783.959   -28239588.569 9 -21989863.25548  20675783.633    20675792.5494
  21209161.252   -20488288.601 9 -15941463.53847  21209160.644    21209170.6704
  23096661.460   -13226582.811 8 -10291694.66346  23096660.784    23096673.3054
  21225443.010   -22368772.964 9 -17414465.25847  21225443.131    21225452.3594
  22518855.378   -16686477.571 8 -12972980.45546  22518854.721    22518866.4684
  23615601.758   -10617790.251 8  -8232878.03845  23615600.961    23615616.2624
  24539400.950    -5893945.903 8  -4557953.54345  24539400.367    24539414.7094
 02  1 26  1 46 30.0000000  0 10 26 10 18 06 23 05 30 17 15 24
  24201844.467    -3802867.349 7  -2934223.28845  24201844.372    24201858.5954
  21343454.421   -22052458.413 9 -17167441.53747  21343453.485    21343463.2394
  24468747.357    -4875473.460 8  -3767736.29645  24468746.759    24468762.3114
  20668361.441   -28278593.946 9 -22020256.99448  20668361.111    20668370.0044
  21197940.345   -20547254.565 9 -15987410.95147  21197939.732    21197949.7354
  23116236.284   -13123716.771 8 -10211539.42346  23116235.593    23116248.1124
  21238372.890   -22300826.242 9 -17361519.78847  21238373.000    21238382.2184
  22508030.459   -16743362.455 8 -13017306.22146  22508029.796    22508041.5244
  23600962.457   -10694719.184 8  -8292822.45645  23600961.665    23600976.9474
  24554071.159    -5816853.694 7  -4497881.69745  24554070.630    24554084.9434
 02  1 26  1 47  0.0000000  0 10 26 10 18 06 23 05 30 17 15 24
  24184568.440    -3893653.029 7  -3004965.16345  24184568.303    24184582.4234
  21354731.074   -21993199.312 9 -17121265.61047  21354730.128    21354739.8734
  24447654.925    -4986313.796 8  -3854105.08645  24447654.472    24447669.7704
  20660992.766   -28317316.411 9 -22050430.28648  20660992.433    20661001.3014
  21186806.236   -20605764.258 9 -16033002.82347  21186805.620    21186815.6074
  23135835.837   -13020721.013 8 -10131283.09446  23135835.124    23135847.6564
  21251386.578   -22232438.880 9 -17308230.96747  21251386.701    21251395.9344
  22497241.570   -16800058.010 8 -13061484.45046  22497240.894    22497252.6114
  23586353.934   -10771486.918 8  -8352641.26745  23586353.108    23586368.3404
  24568732.469    -5739807.594 7  -4437845.79745  24568731.981    24568746.2564
 02  1 26  1 47 30.0000000  0 10 26 10 18 06 23 05 30 17 15 24
  24167297.740    -3984410.126 7  -3075684.78645  24167297.638    24167311.5774
  21366100.520   -21933452.534 9 -17074709.67447  21366099.577    21366109.2904
  24426577.543    -5097075.033 7  -3940412.23245  24426577.023    24426592.4004
  20653678.336   -28355753.752 9 -22080381.39648  20653678.016    20653686.8784
  21175759.322   -20663815.781 9 -16078237.68247  21175758.708    21175768.6794
  23155459.656   -12917597.681 8 -10050927.36146  23155458.910    23155471.4774
  21264483.726   -22163612.955 9 -17254600.41047  21264483.824    21264493.1004
  22486488.789   -16856563.806 8 -13105514.82746  22486488.129    22486499.7834
  23571776.172   -10848093.125 8  -8412334.21245  23571775.320    23571790.4264
  24583384.921    -5662807.937 7  -4377846.06545  24583384.507    24583398.7524
 02  1 26  1 48  0.0000000  0 10 26 10 18 06 23 05 30 17 15 24
  24150032.934    -4075136.262 7  -3146380.30245  24150032.881    24150046.7444
  21377562.051   -21873221.487 9 -17027776.38947  21377561.103    21377570.8684
  24405515.499    -5207755.569 7  -4026656.48845  24405514.964    24405530.3544
  20646418.320   -28393905.203 9 -22110109.73648  20646417.992    20646426.8214
  21164799.723   -20721408.529 9 -16123115.05547  21164799.094    21164809.0584
  23175107.055   -12814350.365 8  -9970475.02146  23175106.327    23175118.9044
  21277663.737   -22094351.771 9 -17200630.69247  21277663.840    21277673.1094
  22475771.877   -16912881.051 8 -13149398.28746  22475771.198    22475782.8314
  23557228.927   -10924538.411 8  -8471901.76945  23557228.051    23557243.1134
  24598028.381    -5585855.728 7  -4317883.30045  24598027.969    24598042.2264
 02  1 26  1 48 30.0000000  0 10 26 10 18 06 23 05 30 17 15 24
  24132774.823    -4165827.219 7  -3217048.35945  24132774.678    24132788.5934
  21389115.509   -21812507.597 9 -16980466.86447  21389114.594    21389124.3654
  24384469.421    -5318352.528 7  -4112835.64445  24384468.844    24384484.1924
  20639213.187   -28431768.047 9 -22139613.18848  20639212.850    20639221.6914
  21153927.830   -20778540.319 9 -16167633.24047  21153927.211    21153937.1414
  23194777.676   -12710981.064 8  -9889927.62346  23194776.900    23194789.5304
  21290926.250   -22024656.850 9 -17146323.00247  21290926.358    21290935.6134
  22465091.000   -16969009.014 8 -13193134.24947  22465090.322    22465101.9174
  23542712.593   -11000821.932 8  -8531343.27945  23542711.720    23542726.6334
  24612662.917    -5508950.757 7  -4257957.35045  24612662.498    24612676.7174
 02  1 26  1 49  0.0000000  0 10 26 10 18 06 23 05 30 17 15 24
  24115523.750    -4256481.036 7  -3287687.49645  24115523.681    24115537.6594
  21400760.182   -21751314.389 9 -16932783.84247  21400759.253    21400769.0394
  24363439.465    -5428864.851 7  -4198948.84945  24363438.803    24363454.1304
  20632063.098   -28469341.726 9 -22168891.31948  20632062.760    20632071.6024
  21143143.709   -20835211.012 9 -16211792.13247  21143143.067    21143152.9894
  23214470.717   -12607493.575 8  -9809288.12946  23214469.957    23214482.6834
  21304270.586   -21954532.103 9 -17091680.38647  21304270.690    21304279.9564
  22454445.861   -17024949.093 8 -13236723.79847  22454445.192    22454456.7434
  23528226.834   -11076944.502 8  -8590659.37045  23528225.968    23528240.7954
  24627288.263    -5432094.012 7  -4198069.00245  24627287.773    24627301.9294
 02  1 26  1 49 30.0000000  0 10 26 10 18 06 23 05 30 17 15 24
  24098280.840    -4347092.051 7  -3358293.28645  24098280.857    24098294.8184
  21412496.012   -21689642.247 9 -16884727.63047  21412495.108    21412504.8664
  24342426.373    -5539287.673 7  -4284992.30645  24342425.690    24342441.0574
  20624968.810   -28506622.208 9 -22197940.98648  20624968.472    20624977.3094
  21132448.025   -20891416.722 9 -16255588.69847  21132447.391    21132457.2684
  23234186.124   -12503888.330 8  -9728556.88646  23234185.438    23234198.2494
  21317696.669   -21883977.599 9 -17036702.89647  21317696.766    21317706.0714
  22443836.840   -17080699.282 8 -13280165.39347  22443836.166    22443847.7334
  23513772.237   -11152903.607 8  -8649848.10945  23513771.295    23513786.0134
  24641904.756    -5355283.800 7  -4138216.89445  24641904.265    24641918.3714
 02  1 26  1 50  0.0000000  0 10 26 10 18 06 23 05 30 17 15 24
  24081046.295    -4437659.823 7  -3428865.38245  24081046.269    24081060.1454
  21424321.987   -21627496.382 9 -16836302.27347  21424321.071    21424330.8224
  24321430.246    -5649621.692 7  -4370966.57145  24321429.575    24321445.0204
  20617930.120   -28543610.567 9 -22226763.01948  20617929.784    20617938.5994
  21121840.567   -20947158.979 9 -16299024.13347  21121839.935    21121849.7814
  23253922.956   -12400170.699 8  -9647738.06646  23253922.324    23253935.1614
  21331203.541   -21812998.558 9 -16981394.59647  21331203.665    21331212.9734
  22433263.480   -17136262.365 8 -13323461.19647  22433262.795    22433274.3294
  23499348.095   -11228702.045 8  -8708911.63745  23499347.201    23499361.7744
  24656511.658    -5278523.144 7  -4078403.38745  24656511.392    24656525.2754
 02  1 26  1 50 30.0000000  0 10 26 10 18 06 23 05 30 17 15 24
  24063821.190    -4528178.219 7  -3499399.01345  24063821.043    24063834.9874
  21436238.136   -21564876.477 9 -16787507.54747  21436237.222    21436246.9864
  24300451.950    -5759861.699 7  -4456867.59845  24300451.508    24300466.6134
  20610947.884   -28580302.420 9 -22255354.01348  20610947.528    20610956.3404
  21111322.068   -21002433.709 9 -16342095.26447  21111321.416    21111331.2434
  23273681.231   -12296340.711 8  -9566831.70046  23273680.616    23273693.4714
  21344791.230   -21741594.962 9 -16925755.47147  21344791.348    21344800.6714
  22422726.134   -17191636.096 8 -13366609.44347  22422725.431    22422736.9674
  23484955.078   -11304336.987 8  -8767847.77345  23484954.235    23484968.6074
  24671109.595    -5201809.684 7  -4018626.63845  24671109.476    24671123.2984
 02  1 26  1 51  0.0000000  0 10 26 10 18 06 23 05 30 17 15 24
  24046605.545    -4618646.743 7  -3569893.78845  24046605.462    24046619.2544
  21448243.535   -21501787.745 9 -16738347.49647  21448242.591    21448252.3704
  24279491.556    -5870007.992 7  -4542695.58145  24279491.029    24279506.0274
  20604021.816   -28616698.698 9 -22283714.69048  20604021.473    20604030.2664
  21100892.305   -21057242.200 9 -16384803.08947  21100891.667    21100901.4814
  23293459.896   -12192403.769 8  -9485841.98846  23293459.223    23293472.1424
  21358458.724   -21669771.964 9 -16869789.53147  21358458.846    21358468.1554
  22412224.275   -17246823.174 8 -13409612.25147  22412223.561    22412235.1024
  23470592.713   -11379810.778 8  -8826658.34146  23470591.937    23470606.2194
  24685698.259    -5125146.588 7  -3958889.15845  24685697.947    24685711.9514
 02  1 26  1 51 30.0000000  0 10 26 10 18 06 23 05 30 17 15 24
  24029399.805    -4709062.173 7  -3640347.19545  24029399.673    24029413.5274
  21460337.575   -21438233.191 9 -16688824.46647  21460336.638    21460346.3924
  24258549.364    -5980058.749 7  -4628449.14545  24258548.956    24258563.5854
  20597152.319   -28652797.798 9 -22311843.79548  20597151.989    20597160.7864
  21090551.432   -21111583.616 9 -16427146.95947  21090550.786    21090560.5704
  23313258.406   -12088362.772 8  -9404771.19546  23313257.677    23313270.5864
  21372205.461   -21597532.405 9 -16813499.00547  21372205.600    21372214.9054
  22401757.891   -17301824.010 8 -13452469.93847  22401757.167    22401768.6874
  23456261.029   -11455123.646 8  -8885343.50946  23456260.229    23456274.4924
  24700277.214    -5048534.253 7  -3899191.21545  24700276.824    24700290.8184
 02  1 26  1 52  0.0000000  0 10 26 10 18 06 23 05 30 17 15 24
  24012205.590    -4799417.404 7  -3710753.68945  24012205.557    24012219.2404
  21472520.556   -21374211.006 8 -16638937.05047  21472519.624    21472529.3904
  24237626.558    -6090007.974 7  -4714123.56645  24237626.031    24237640.6324
  20590340.471   -28688594.207 9 -22339737.03748  20590340.134    20590348.9094
  21080300.411   -21165452.648 9 -16469122.74347  21080299.772    21080309.5324
  23333076.852   -11984216.663 8  -9323618.49946  23333076.137    23333089.0514
  21386031.783   -21524874.959 9 -16756882.85947  21386031.908    21386041.2104
  22391327.594   -17356635.080 8 -13495179.76247  22391326.887    22391338.3584
  23441960.645   -11530271.781 8  -8943900.30946  23441959.839    23441974.0864
  24714846.957    -4971968.935 7  -3839529.90445  24714846.637    24714860.9024
 02  1 26  1 52 30.0000000  0 10 26 10 18 06 23 05 30 17 15 24
  23995022.812    -4889712.722 8  -3781113.50945  23995022.762    23995036.4434
  21484791.334   -21309727.486 9 -16588690.15447  21484790.419    21484800.1964
  24216722.899    -6199856.792 7  -4799719.76945  24216722.212    24216736.8434
  20583585.840   -28724089.745 9 -22367395.83848  20583585.500    20583594.2614
  21070138.876   -21218851.508 9 -16510732.16047  21070138.237    21070147.9764
  23352914.104   -11879971.655 8  -9242388.73546  23352913.344    23352926.3004
  21399936.396   -21451805.913 9 -16699945.98247  21399936.502    21399945.8034
  22380932.678   -17411260.244 8 -13537744.71847  22380931.963    22380943.4204
  23427691.128   -11605258.375 8  -9002331.24946  23427690.287    23427704.5174
  24729407.102    -4895454.973 7  -3779908.61745  24729406.828    24729421.0054
 02  1 26  1 53  0.0000000  0 10 26 10 18 06 23 05 30 17 15 24
  23977852.533    -4979942.707 8  -3851422.43245  23977852.449    23977866.1174
  21497149.838   -21244783.074 8 -16538084.11947  21497148.923    21497158.7134
  24195839.062    -6309600.871 8  -4885234.36445  24195838.410    24195852.9494
  20576889.207   -28759280.554 9 -22394817.18948  20576888.856    20576897.6144
  21060067.407   -21271777.088 9 -16551972.78647  21060066.769    21060076.4814
  23372769.966   -11775628.376 8  -9161082.40946  23372769.289    23372782.2174
  21413919.234   -21378325.714 9 -16642688.72347  21413919.352    21413928.6674
  22370573.516   -17465697.633 8 -13580163.36047  22370572.825    22370584.2054
  23413452.585   -11680081.505 8  -9060634.80246  23413451.676    23413465.9664
  24743957.842    -4818990.321 7  -3720325.74245  24743957.595    24743971.6344
 02  1 26  1 53 30.0000000  0 10 26 10 18 06 23 05 30 17 15 24
  23960694.848    -5070106.355 8  -3921679.64745  23960694.756    23960708.3544
  21509595.167   -21179382.576 8 -16487122.69047  21509594.218    21509604.0074
  24174975.117    -6419240.361 8  -4970667.44245  24174974.484    24174989.0324
  20570250.379   -28794167.376 9 -22422001.66848  20570250.042    20570258.7854
  21050085.801   -21324230.451 9 -16592845.44947  21050085.159    21050094.8534
  23392643.590   -11671191.964 8  -9079703.51146  23392642.910    23392655.8784
  21427979.363   -21304439.369 9 -16585114.98047  21427979.478    21427988.8074
  22360249.594   -17519949.839 8 -13622437.69747  22360248.902    22360260.2354
  23399244.674   -11754743.339 8  -9118812.67246  23399243.811    23399258.1334
  24758498.575    -4742578.057 7  -3660783.70045  24758498.318    24758512.4894
 02  1 26  1 54  0.0000000  0 10 26 10 18 06 23 05 30 17 15 24
  23943550.971    -5160197.643 8  -3991880.50645  23943550.854    23943564.4614
  21522127.312   -21113525.951 9 -16435805.84147  21522126.352    21522136.1314
  24154132.026    -6528770.260 8  -5056015.13345  24154131.453    24154145.8954
  20563670.281   -28828745.858 9 -22448945.87248  20563669.938    20563678.6654
  21040194.763   -21376207.799 9 -16633347.19247  21040194.127    21040203.7874
  23412534.928   -11566662.566 8  -8998252.13946  23412534.299    23412547.2904
  21442116.759   -21230146.958 9 -16527224.83147  21442116.881    21442126.2594
  22349961.372   -17574014.491 8 -13664565.89547  22349960.664    22349971.9624
  23385068.012   -11829241.104 8  -9176862.71346  23385067.185    23385081.5584
  24773029.979    -4666215.478 7  -3601280.36945  24773029.678    24773043.8504
 02  1 26  1 54 30.0000000  0 10 26 10 18 06 23 05 30 17 15 24
  23926421.188    -5250214.917 7  -4062023.68945  23926421.034    23926434.5104
  21534745.423   -21047217.334 8 -16384136.78847  21534744.467    21534754.2424
  24133309.938    -6638189.991 8  -5141276.97745  24133309.378    24133323.8174
  20557148.898   -28863015.802 9 -22475649.65748  20557148.542    20557157.2434
  21030394.250   -21427709.446 9 -16673478.26347  21030393.632    21030403.2634
  23432443.150   -11462044.216 8  -8916731.46846  23432442.548    23432455.6794
  21456330.669   -21155452.606 9 -16469021.48047  21456330.771    21456340.1484
  22339708.456   -17627893.495 8 -13706549.42547  22339707.743    22339719.0074
  23370922.374   -11903576.348 8  -9234786.10346  23370921.538    23370935.8714
  24787551.518    -4589904.564 7  -3541817.27745  24787551.066    24787565.3624
 02  1 26  1 55  0.0000000  0 10 26 10 18 06 23 05 30 17 15 24
  23909306.224    -5340154.244 8  -4132106.13245  23909306.082    23909319.5014
  21547449.149   -20980458.696 8 -16332117.07347  21547448.182    21547457.9834
  24112509.361    -6747496.820 8  -5226450.84445  24112508.788    24112523.0984
  20550686.599   -28896975.111 9 -22502111.39148  20550686.256    20550694.9454
  21020684.591   -21478733.760 9 -16713237.38347  21020683.964    21020693.5854
  23452367.981   -11357339.151 8  -8835143.22445  23452367.274    23452380.5384
  21470620.617   -21080358.486 9 -16410506.62347  21470620.708    21470630.0704
  22329491.001   -17681586.188 8 -13748387.78047  22329490.296    22329501.5164
  23356807.779   -11977748.345 8  -9292582.28246  23356806.900    23356821.2624
  24802063.219    -4513644.639 7  -3482393.94045  24802062.799    24802076.9584
 02  1 26  1 55 30.0000000  0 10 26 10 18 06 23 05 30 17 15 24
  23892206.563    -5430012.806 7  -4202125.63245  23892206.350    23892219.8404
  21560237.939   -20913253.159 8 -16279749.12347  21560236.979    21560246.7754
  24091730.609    -6856688.944 8  -5311535.33645  24091730.023    24091744.1854
  20544283.630   -28930622.545 9 -22528330.10648  20544283.299    20544291.9924
  21011065.866   -21529280.155 9 -16752624.10047  21011065.232    21011074.8224
  23472308.686   -11252550.657 8  -8753489.98145  23472307.959    23472321.1994
  21484986.055   -21004867.680 9 -16351682.65947  21484986.144    21484995.5164
  22319308.751   -17735093.710 8 -13790081.84447  22319308.065    22319319.2294
  23342723.998   -12051757.712 8  -9350251.74346  23342723.199    23342737.5844
  24816565.116    -4437436.579 7  -3423011.00445  24816564.730    24816578.8574
 02  1 26  1 56  0.0000000  0 10 26 10 18 06 23 05 30 17 15 24
  23875122.995    -5519786.660 7  -4272079.14445  23875122.846    23875136.3724
  21573111.343   -20845602.738 8 -16227034.51547  21573110.406    21573120.2014
  24070974.367    -6965763.279 8  -5396528.04345  24070973.722    24070987.8024
  20537940.446   -28963955.889 9 -22554304.08248  20537940.120    20537948.7814
  21001538.406   -21579346.886 9 -16791637.05347  21001537.778    21001547.3574
  23492264.832   -11147680.836 8  -8671773.35545  23492264.104    23492277.3984
  21499426.560   -20928982.446 9 -16292551.35247  21499426.647    21499436.0564
  22309161.860   -17788415.595 8 -13831631.25447  22309161.169    22309172.3174
  23328671.474   -12125603.670 8  -9407793.86346  23328670.657    23328685.0094
  24831057.141    -4361280.409 7  -3363668.50445  24831056.658    24831070.8424
 02  1 26  1 56 30.0000000  0 10 26 10 18 06 23 05 30 17 15 24
  23858056.138    -5609472.521 7  -4341964.07145  23858056.012    23858069.6024
  21586068.854   -20777510.526 8 -16173975.64947  21586067.936    21586077.7164
  24050240.859    -7074717.976 8  -5481427.52145  24050240.046    24050254.1904
  20531657.411   -28996973.323 9 -22580031.89248  20531657.080    20531665.7044
  20992102.431   -21628932.904 9 -16830275.42247  20992101.801    20992111.3534
  23512235.904   -11042732.597 8  -8589995.62145  23512235.208    23512248.4314
  21513941.578   -20852705.498 9 -16233114.80747  21513941.678    21513951.1114
  22299050.188   -17841552.302 8 -13873036.37247  22299049.489    22299060.6324
  23314650.065   -12199286.189 8  -9465208.62746  23314649.194    23314663.5354
  24845539.252    -4285176.332 7  -3304366.59245  24845538.752    24845553.0194
 02  1 26  1 57  0.0000000  0 10 26 10 18 06 23 05 30 17 15 24
  23841006.687    -5699067.239 7  -4411777.99245  23841006.565    23841020.1714
  21599110.035   -20708978.678 8 -16120574.21747  21599109.108    21599118.8834
  24029530.506    -7183550.875 8  -5566232.11245  24029529.733    24029543.7444
  20525434.770   -29029673.315 9 -22605512.35048  20525434.438    20525443.0364
  20982758.159   -21678037.142 9 -16868538.38047  20982757.529    20982767.0764
  23532221.373   -10937708.620 8  -8508158.88045  23532220.703    23532233.8684
  21528530.632   -20776039.699 9 -16173375.26347  21528530.728    21528540.1664
  22288973.680   -17894504.198 8 -13914297.48447  22288972.996    22288984.1114
  23300659.674   -12272805.341 8  -9522496.11246  23300658.860    23300673.1184
  24860011.312    -4209124.563 7  -3245105.44145  24860010.823    24860025.2854
 02  1 26  1 57 30.0000000  0  9 26 10 18 06 23 05 30 17 15
  23823975.105    -5788567.891 7  -4481518.61745  23823974.956    23823988.4924
  21612234.298   -20640010.337 8 -16066832.65847  21612233.382    21612243.1404
  24008843.504    -7292260.301 7  -5650940.49145  24008842.814    24008856.8514
  20519272.738   -29062054.786 9 -22630744.60348  20519272.413    20519280.9884
  20973505.605   -21726659.264 9 -16906425.65747  20973504.965    20973514.4914
  23552220.726   -10832612.197 8  -8426265.67045  23552220.027    23552233.2254
  21543193.068   -20698988.391 9 -16113335.33047  21543193.177    21543202.5994
  22278932.213   -17947272.004 8 -13955415.13947  22278931.517    22278942.6254
  23286700.181   -12346162.000 8  -9579656.94846  23286699.404    23286713.6434
 02  1 26  1 58  0.0000000  0  9 26 10 18 06 23 05 30 17 15
  23806962.081    -5877971.562 7  -4551183.66645  23806961.904    23806975.4324
  21625440.926   -20570609.074 8 -16012753.75747  21625439.999    21625449.7444
  23988180.285    -7400844.445 8  -5735551.25945  23988179.679    23988193.5754
  20513171.556   -29094116.380 9 -22655727.60548  20513171.227    20513179.7794
  20964344.906   -21774798.690 9 -16943936.81747  20964344.277    20964353.7484
  23572233.181   -10727446.500 8  -8344318.48645  23572232.512    23572245.6674
  21557928.250   -20621554.714 9 -16052997.44747  21557928.367    21557937.7724
  22268925.661   -17999856.512 8 -13996389.96447  22268924.994    22268936.0304
  23272771.613   -12419356.430 8  -9636691.38146  23272770.846    23272785.0274
 02  1 26  1 58 30.0000000  0  9 26 10 18 06 23 05 30 17 15
  23789968.694    -5967271.884 7  -4620768.18645  23789968.478    23789981.8474
  21638730.043   -20500774.455 8 -15958337.17447  21638729.110    21638738.8444
  23967542.012    -7509298.207 8  -5820060.43845  23967541.426    23967555.3024
  20507132.142   -29125853.479 9 -22680457.76748  20507131.808    20507140.3594
  20955276.849   -21822451.347 9 -16981068.67248  20955276.224    20955285.6734
  23592258.998   -10622211.118 8  -8262317.01345  23592258.299    23592271.4004
  21572736.282   -20543738.297 9 -15992361.32047  21572736.385    21572745.7784
  22258954.469   -18052255.142 8 -14037219.95147  22258953.787    22258964.7894
  23258874.572   -12492385.260 8  -9693596.77746  23258873.827    23258887.8784
 02  1 26  1 59  0.0000000  0  9 26 10 18 06 23 05 30 17 15
  23772994.992    -6056468.283 7  -4690271.74145  23772994.798    23773008.1734
  21652100.494   -20430512.120 8 -15903587.31447  21652099.583    21652109.3014
  23946928.514    -7617621.848 8  -5904468.22745  23946927.977    23946941.7794
  20501154.280   -29157267.144 9 -22704935.88648  20501153.957    20501162.5124
  20946301.062   -21869619.019 9 -17017822.61848  20946300.428    20946309.8764
  23612297.015   -10516911.509 8  -8180265.47445  23612296.247    23612309.4054
  21587616.016   -20465544.764 9 -15931431.33647  21587616.124    21587625.5204
  22249018.045   -18104470.707 8 -14077907.29547  22249017.356    22249028.3634
  23245008.499   -12565251.138 8  -9750375.18846  23245007.776    23245021.7544
 02  1 26  1 59 30.0000000  0  9 26 10 18 06 23 05 30 17 15
  23756042.293    -6145555.231 8  -4759690.00845  23756042.094    23756055.3294
  21665552.380   -20359822.328 8 -15848504.36347  21665551.451    21665561.1414
  23926340.569    -7725811.112 8  -5988771.30445  23926340.010    23926353.7044
  20495238.685   -29188353.603 9 -22729159.03848  20495238.342    20495246.8854
  20937418.126   -21916298.710 9 -17054196.31748  20937417.508    20937426.9394
  23632347.038   -10411548.299 8  -8098164.39045  23632346.297    23632359.5704
  21602567.446   -20386974.768 9 -15870208.01047  21602567.563    21602576.9774
  22239116.848   -18156501.514 8 -14118450.67047  22239116.151    22239127.1404
  23231173.898   -12637952.070 8  -9807025.07146  23231173.134    23231187.0184
 02  1 26  2  0  0.0000000  0  9 26 10 18 06 23 05 30 17 15
  23739110.630    -6234530.979 7  -4829021.63245  23739110.455    23739123.6484
  21679084.737   -20288709.488 8 -15793091.77147  21679083.783    21679093.4814
  23905778.363    -7833865.317 8  -6072969.14745  23905777.765    23905791.3044
  20489385.366   -29219112.841 9 -22753127.21848  20489385.014    20489393.5534
  20928627.990   -21962490.853 9 -17090190.10948  20928627.363    20928636.7764
  23652408.324   -10306125.829 8  -8016017.12445  23652407.589    23652420.9504
  21617589.669   -20308032.650 9 -15808694.72447  21617589.764    21617599.1924
  22229250.437   -18208349.424 8 -14158851.53147  22229249.731    22229260.6664
  23217370.298   -12710489.630 8  -9863547.64846  23217369.540    23217383.4194
 02  1 26  2  0 30.0000000  0  9 26 10 18 06 23 05 30 17 15
  23722201.052    -6323390.564 8  -4898262.74045  23722200.932    23722214.1484
  21692697.355   -20217174.573 8 -15737350.28647  21692696.409    21692706.1134
  23885242.565    -7941780.883 8  -6157058.95345  23885241.921    23885255.4034
  20483594.904   -29249541.648 9 -22776837.91848  20483594.563    20483603.0844
  20919931.065   -22008193.159 9 -17125802.21148  20919930.434    20919939.8184
  23672480.690   -10200645.224 8  -7933824.56445  23672479.953    23672493.4484
  21632682.458   -20228719.672 9 -15746892.45847  21632682.555    21632692.0234
  22219419.059   -18260013.192 8 -14199108.90847  22219418.357    22219429.2744
  23203598.140   -12782862.335 8  -9919941.77946  23203597.364    23203611.1854
 02  1 26  2  1  0.0000000  0  9 26 10 18 06 23 05 30 17 15
  23705313.994    -6412132.309 8  -4967412.03545  23705313.812    23705326.8954
  21706389.495   -20145221.962 8 -15681283.32347  21706388.560    21706398.2694
  23864733.219    -8049557.088 8  -6241040.16045  23864732.699    23864746.0194
  20477867.313   -29279640.021 9 -22800291.13948  20477866.978    20477875.4874
  20911327.206   -22053406.388 9 -17161033.21548  20911326.580    20911335.9474
  23692563.242   -10095110.943 8  -7851590.18845  23692562.540    23692576.1344
  21647844.934   -20149040.347 9 -15684804.72047  21647845.029    21647854.5394
  22209622.398   -18311494.793 8 -14239224.33947  22209621.699    22209632.5674
  23189857.039   -12855071.671 8  -9976208.60346  23189856.257    23189869.9914
 02  1 26  2  1 30.0000000  0  9 26 10 18 06 23 05 30 17 15
  23688450.233    -6500751.762 8  -5036466.01845  23688450.088    23688462.9994
  21720160.815   -20072853.201 8 -15624892.09147  21720159.866    21720169.5544
  23844251.015    -8157190.706 8  -6324910.25945  23844250.469    23844263.7404
  20472203.173   -29309405.105 9 -22823484.66148  20472202.849    20472211.3324
  20902816.768   -22098128.777 9 -17195881.74748  20902816.142    20902825.4974
  23712655.753    -9989524.583 8  -7769315.22645  23712655.040    23712668.5894
  21663076.778   -20068996.549 8 -15622432.97547  21663076.894    21663086.3964
  22199860.517   -18362793.596 8 -14279197.34247  22199859.797    22199870.6174
  23176147.123   -12927117.052 8 -10032347.67946  23176146.368    23176159.9794
 02  1 26  2  2  0.0000000  0  9 26 10 18 06 23 05 30 17 15
  23671610.125    -6589246.640 8  -5105422.93545  23671609.976    23671622.8054
  21734010.608   -20000072.182 8 -15568179.61747  21734009.638    21734019.3154
  23823796.199    -8264680.790 8  -6408668.50745  23823795.640    23823808.8304
  20466602.546   -29338836.381 9 -22846418.06548  20466602.206    20466610.6924
  20894399.691   -22142360.413 9 -17230347.87048  20894399.059    20894408.4104
  23732757.594    -9883889.857 8  -7687002.57845  23732756.774    23732770.3294
  21678377.288   -19988592.107 8 -15559780.20547  21678377.401    21678386.9054
  22190133.107   -18413910.914 8 -14319028.92447  22190132.421    22190143.2524
  23162468.278   -12998999.374 8 -10088359.68146  23162467.458    23162481.0184
 02  1 26  2  2 30.0000000  0  9 26 10 18 06 23 05 30 17 15
  23654794.628    -6677611.888 8  -5174278.83445  23654794.597    23654807.2464
  21747938.585   -19926880.117 8 -15511146.84847  21747937.616    21747947.3154
  23803369.369    -8372023.328 8  -6492311.78045  23803368.781    23803381.9824
  20461066.081   -29367930.505 9 -22869088.75548  20461065.749    20461074.2034
  20886076.498   -22186098.677 9 -17264429.55148  20886075.871    20886085.1964
  23752868.366    -9778207.713 7  -7604652.99745  23752867.482    23752881.1044
  21693746.235   -19907828.098 8 -15496847.26247  21693746.332    21693755.8174
  22180440.453   -18464845.448 8 -14358718.08847  22180439.791    22180450.5904
  23148820.774   -13070716.772 8 -10144243.18846  23148819.936    23148833.5094
 02  1 26  2  3  0.0000000  0  9 26 10 18 06 23 05 30 17 15
  23638004.341    -6765845.203 8  -5243031.92845  23638004.241    23638016.8654
  21761944.051   -19853280.600 8 -15453796.58047  21761943.140    21761952.8584
  23782970.803    -8479217.286 8  -6575839.26245  23782970.203    23782983.4414
  20455593.887   -29396686.777 9 -22891496.17748  20455593.557    20455602.0104
  20877847.159   -22229343.883 9 -17298127.02948  20877846.528    20877855.8364
  23772987.381    -9672482.115 7  -7522269.54045  23772986.514    23773000.0844
  21709182.806   -19826708.569 8 -15433637.28547  21709182.895    21709192.3864
  22170782.411   -18515598.554 8 -14398265.87547  22170781.747    22170792.5184
  23135204.428   -13142270.559 8 -10199999.20646  23135203.592    23135217.0684
 02  1 26  2  3 30.0000000  0  9 26 10 18 06 23 05 30 17 15
  23621239.949    -6853942.146 8  -5311678.74245  23621239.816    23621252.5434
  21776026.749   -19779275.573 8 -15396130.33647  21776025.821    21776035.5534
  23762601.055    -8586259.480 8  -6659248.48845  23762600.454    23762613.7914
  20450186.486   -29425102.655 9 -22913638.36348  20450186.141    20450194.5884
  20869711.975   -22272094.277 9 -17331438.93748  20869711.330    20869720.6274
  23793114.331    -9566714.587 8  -7439853.41945  23793113.460    23793127.0214
  21724686.706   -19745235.135 8 -15370151.54547  21724686.812    21724696.3354
  22161158.993   -18566169.504 8 -14437671.72547  22161158.319    22161169.0794
  23121619.396   -13213659.601 8 -10255626.84846  23121618.537    23121631.9044
 02  1 26  2  4  0.0000000  0  9 26 10 18 06 23 05 30 17 15
  23604502.105    -6941899.686 8  -5380216.93545  23604501.884    23604514.6244
  21790186.018   -19704868.203 8 -15338150.57347  21790185.069    21790194.8114
  23742260.598    -8693147.844 8  -6742537.85145  23742260.036    23742273.3614
  20444844.061   -29453176.992 9 -22935514.41148  20444843.729    20444852.1554
  20861670.986   -22314349.532 9 -17364365.02548  20861670.346    20861679.6154
  23813248.716    -9460908.208 8  -7357407.00745  23813247.801    23813261.4974
  21740257.282   -19663411.271 8 -15306392.74747  21740257.393    21740266.9344
  22151570.136   -18616558.999 8 -14476936.17047  22151569.468    22151580.2344
  23108065.633   -13284884.317 8 -10311126.46246  23108064.790    23108078.1114
 02  1 26  2  4 30.0000000  0  9 26 10 18 06 23 05 30 17 15
  23587791.329    -7029714.483 8  -5448643.89945  23587791.213    23587803.9054
  21804421.283   -19630061.299 8 -15279859.48547  21804420.354    21804430.0914
  23721949.965    -8799880.243 8  -6825705.69445  23721949.327    23721962.6734
  20439567.015   -29480907.986 9 -22957122.91948  20439566.663    20439575.0554
  20853724.375   -22356108.913 9 -17396904.71848  20853723.738    20853732.9824
  23833389.925    -9355065.763 8  -7274932.49745  23833389.018    23833402.7114
  21755893.996   -19581239.929 8 -15242363.17747  21755894.108    21755903.6524
  22142015.662   -18666767.532 8 -14516059.60947  22142015.012    22142025.7724
  23094543.163   -13355944.544 8 -10366497.91746  23094542.341    23094555.6244
 02  1 26  2  5  0.0000000  0  9 26 10 18 06 23 05 30 17 15
  23571108.471    -7117383.181 8  -5516957.01945  23571108.242    23571121.0334
  21818732.091   -19554857.378 8 -15221259.04347  21818731.157    21818740.9124
  23701669.312    -8906454.894 8  -6908750.60045  23701668.677    23701681.8934
  20434355.555   -29508294.258 9 -22978462.81948  20434355.200    20434363.5744
  20845872.266   -22397371.742 9 -17429057.48648  20845871.633    20845880.8534
  23853537.466    -9249190.005 8  -7192432.01945  23853536.650    23853550.2214
  21771596.289   -19498723.926 8 -15178065.04147  21771596.387    21771605.9694
  22132495.627   -18716795.284 8 -14555042.19247  22132494.983    22132505.7174
  23081051.984   -13426840.646 8 -10421741.45546  23081051.141    23081064.3544
 02  1 26  2  5 30.0000000  0  9 26 10 18 06 23 05 30 17 15
  23554454.054    -7204902.510 8  -5585153.74145  23554453.851    23554466.5414
  21833117.889   -19479259.501 8 -15162351.61347  21833116.948    21833126.7234
  23681419.112    -9012869.671 8  -6991670.92345  23681418.516    23681431.6074
  20429210.008   -29535334.023 9 -22999532.70748  20429209.653    20429218.0014
  20838114.774   -22438137.327 9 -17460822.79548  20838114.144    20838123.3364
  23873690.956    -9143283.526 8  -7109907.61445  23873690.077    23873703.6714
  21787363.608   -19415866.239 8 -15113500.66247  21787363.712    21787373.3144
  22123009.918   -18766642.837 8 -14593884.35347  22123009.249    22123019.9724
  23067592.029   -13497572.567 8 -10476857.07446  23067591.180    23067604.3554
 02  1 26  2  6  0.0000000  0  9 26 10 18 06 23 05 30 17 15
  23537828.523    -7292269.946 8  -5653232.10245  23537828.311    23537840.9954
  21847577.929   -19403271.481 8 -15103140.17747  21847576.967    21847586.7714
  23661199.498    -9119123.331 8  -7074465.71545  23661198.893    23661211.9154
  20424130.512   -29562026.643 9 -23020332.09348  20424130.169    20424138.4964
  20830451.835   -22478405.994 9 -17492200.88848  20830451.209    20830460.3874
  23893849.531    -9037350.021 8  -7027362.12945  23893848.683    23893862.2144
  21803195.187   -19332670.828 8 -15048673.12447  21803195.292    21803204.8914
  22113558.222   -18816311.465 8 -14632587.09047  22113557.523    22113568.2444
  23054163.096   -13568141.271 8 -10531845.50346  23054162.246    23054175.3974
 02  1 26  2  6 30.0000000  0  9 26 10 18 06 23 05 30 17 15
  23521232.924    -7379479.909 8  -5721187.77045  23521232.710    23521245.3624
  21862112.153   -19326893.644 8 -15043624.99747  21862111.185    21862120.9914
  23641011.314    -9225211.427 8  -7157131.49045  23641010.769    23641023.6914
  20419117.790   -29588368.444 9 -23040858.11348  20419117.449    20419125.7674
  20822884.030   -22518174.826 9 -17523189.50348  20822883.398    20822892.5254
  23914013.134    -8931390.146 8  -6944796.11545  23914012.284    23914025.8594
  21819090.964   -19249138.370 8 -14983582.95647  21819091.068    21819100.6884
  22104140.939   -18865799.334 8 -14671148.96347  22104140.242    22104150.9054
  23040765.622   -13638544.696 8 -10586705.14846  23040764.761    23040777.8914
 02  1 26  2  7  0.0000000  0  9 26 10 18 06 23 05 30 17 15
  23504667.645    -7466529.819 8  -5789018.69045  23504667.458    23504680.1094
  21876719.839   -19250129.797 8 -14983809.02747  21876718.863    21876728.6744
  23620855.029    -9331132.557 8  -7239667.16845  23620854.453    23620867.2334
  20414172.001   -29614358.566 9 -23061110.10448  20414171.653    20414179.9574
  20815411.284   -22557444.062 9 -17553788.82348  20815410.651    20815419.7664
  23934181.133    -8825407.379 8  -6862212.25845  23934180.262    23934193.7784
  21835050.138   -19165272.510 8 -14918232.97747  21835050.239    21835059.9004
  22094757.858   -18915107.479 8 -14709570.80247  22094757.178    22094767.7844
  23027399.359   -13708783.818 8 -10641436.76546  23027398.534    23027411.6564
 02  1 26  2  7 30.0000000  0  9 26 10 18 06 23 05 30 17 15
  23488133.517    -7553416.230 8  -5856722.23045  23488133.414    23488146.0224
  21891400.467   -19172982.527 8 -14923694.28547  21891399.539    21891409.3434
  23600731.048    -9436884.312 8  -7322070.88645  23600730.364    23600743.0194
  20409293.404   -29639995.396 9 -23081086.80048  20409293.061    20409301.3654
  20808033.683   -22596213.174 9 -17583998.43948  20808033.059    20808042.1554
  23954352.965    -8719404.118 7  -6779612.44445  23954352.107    23954365.6604
  21851072.172   -19081076.282 8 -14852625.58047  21851072.287    21851081.9444
  22085408.877   -18964236.262 8 -14747852.87747  22085408.210    22085418.7914
  23014064.474   -13778858.264 8 -10696040.07046  23014063.695    23014076.8344
 02  1 26  2  8  0.0000000  0  9 26 10 18 06 23 05 30 17 15
  23471630.906    -7640137.323 8  -5924296.93745  23471630.798    23471643.3364
  21906153.238   -19095456.220 8 -14863284.17947  21906152.326    21906162.1184
  23580639.155    -9542466.734 8  -7404342.64745  23580638.574    23580651.0924
  20404482.053   -29665279.001 9 -23100788.25348  20404481.711    20404490.0044
  20800751.116   -22634483.025 9 -17613819.01948  20800750.490    20800759.5644
  23974527.903    -8613384.684 8  -6697000.02245  23974527.030    23974540.6214
  21867156.246   -18996554.049 8 -14786764.14847  21867156.383    21867166.0404
  22076093.666   -19013187.688 8 -14785996.75047  22076092.999    22076103.5614
  23000760.595   -13848769.866 8 -10750516.46646  23000759.776    23000772.9314
 02  1 26  2  8 30.0000000  0  9 26 10 18 06 23 05 30 17 15
  23455161.090    -7726685.933 8  -5991737.25145  23455161.050    23455173.5854
  21920978.347   -19017550.117 8 -14802578.13547  21920977.393    21920987.1674
  23560580.579    -9647873.815 8  -7486477.78345  23560580.010    23560592.5204
  20399738.896   -29690204.137 9 -23120210.37648  20399738.565    20399746.8484
  20793564.329   -22672249.445 9 -17643247.31248  20793563.686    20793572.7494
  23994706.046    -8507348.115 8  -6614374.25845  23994705.251    23994718.8774
  21883302.527   -18911705.245 8 -14720648.26147  21883302.655    21883312.2844
  22066812.881   -19061958.363 8 -14823999.78747  22066812.204    22066822.7094
  22987488.421   -13918515.229 8 -10804863.32746  22987487.604    22987500.6504
 02  1 26  2  9  0.0000000  0  9 26 10 18 06 23 05 30 17 15
  23438724.157    -7813061.859 8  -6059043.00345  23438724.129    23438736.5334
  21935874.542   -18939270.011 8 -14741580.64947  21935873.591    21935883.3664
  23540555.306    -9753106.246 8  -7568476.83745  23540554.783    23540567.2714
  20395063.748   -29714772.054 9 -23139354.15048  20395063.411    20395071.6794
  20786472.912   -22709514.877 9 -17672285.22848  20786472.265    20786481.2974
  24014886.323    -8401300.022 8  -6531739.52945  24014885.551    24014899.2944
  21899509.747   -18826535.880 8 -14654282.59647  21899509.865    21899519.5044
  22057565.775   -19110551.824 8 -14861864.72547  22057565.105    22057575.5704
  22974247.273   -13988097.307 8 -10859082.94246  22974246.411    22974259.4754
 02  1 26  2  9 30.0000000  0  9 26 10 18 06 23 05 30 17 15
  23422320.909    -7899261.174 8  -6126211.14945  23422320.855    23422333.2304
  21950841.433   -18860618.426 8 -14680293.70547  21950840.499    21950850.2634
  23520563.796    -9858161.471 8  -7650337.80445  23520563.243    23520575.6844
  20390456.916   -29738980.914 9 -23158218.14448  20390456.581    20390464.8324
  20779477.017   -22746278.185 9 -17700931.88348  20779476.368    20779485.3734
  24035068.433    -8295242.607 7  -6449097.52645  24035067.638    24035081.5614
  21915777.503   -18741048.259 8 -14587668.92547  21915777.643    21915787.3014
  22048352.432   -19158967.766 8 -14899591.34247  22048351.764    22048362.2494
  22961037.165   -14057515.784 8 -10913175.07946  22961036.336    22961049.4354
 02  1 26  2 10  0.0000000  0  9 26 10 18 06 23 05 30 17 15
  23405952.220    -7985278.747 8  -6193237.66245  23405952.117    23405964.5054
  21965878.859   -18781596.403 8 -14618718.09447  21965877.919    21965887.6884
  23500606.744    -9963035.690 8  -7732057.72845  23500606.150    23500618.4744
  20385918.996   -29762827.482 9 -23176799.82348  20385918.672    20385926.9174
  20772577.063   -22782537.321 9 -17729185.67348  20772576.415    20772585.4054
  24055251.991    -8189176.954 7  -6366449.10345  24055251.226    24055265.2664
  21932105.591   -18655243.808 8 -14520808.37047  21932105.739    21932115.4074
  22039173.108   -19207204.995 8 -14937178.70147  22039172.438    22039182.8894
  22947858.567   -14126768.997 8 -10967138.42546  22947857.719    22947870.8094
 02  1 26  2 10 30.0000000  0  9 26 10 18 06 23 05 30 17 15
  23389618.463    -8071112.634 8  -6260121.05045  23389618.374    23389630.6884
  21980985.888   -18702208.373 8 -14556857.28547  21980984.941    21980994.7084
  23480684.237   -10067728.387 8  -7813636.19545  23480683.611    23480695.8664
  20381450.091   -29786311.558 9 -23195099.04548  20381449.776    20381458.0024
  20765772.890   -22818293.214 9 -17757047.32448  20765772.235    20765781.2024
  24075436.445    -8083107.198 7  -6283797.53145  24075435.812    24075449.8694
  21948493.117   -18569126.940 8 -14453704.37447  21948493.254    21948502.9724
  22030027.448   -19255265.313 8 -14974628.20347  22030026.780    22030037.2274
  22934711.180   -14195858.386 8 -11020974.11746  22934710.321    22934723.3474
 02  1 26  2 11  0.0000000  0  9 26 10 18 06 23 05 30 17 15
  23373320.259    -8156759.537 8  -6326858.74545  23373320.117    23373332.4024
  21996162.058   -18622457.052 8 -14494713.39147  21996161.114    21996170.8944
  23460796.621   -10172237.231 8  -7895071.41045  23460796.129    23460808.2334
  20377050.464   -29809431.495 9 -23213114.51848  20377050.142    20377058.3514
  20759064.552   -22853545.460 9 -17784516.52848  20759063.899    20759072.8394
  24095621.151    -7977035.736 7  -6201144.50345  24095620.579    24095634.7374
  21964939.585   -18482700.585 8 -14386359.21447  21964939.728    21964949.4414
  22020915.374   -19303149.074 8 -15011940.12847  22020914.698    22020925.1424
  22921594.895   -14264784.116 8 -11074682.27646  22921594.061    22921607.0074
 02  1 26  2 11 30.0000000  0  9 26 10 18 06 23 05 30 17 15
  23357058.603    -8242214.315 8  -6393446.72345  23357058.535    23357070.6724
  22011407.140   -18542343.584 8 -14432287.30747  22011406.191    22011416.0124
  23440944.743   -10276558.611 8  -7976360.54845  23440944.172    23440956.1824
  20372720.715   -29832184.287 9 -23230843.90348  20372720.389    20372728.5924
  20752452.406   -22888291.994 9 -17811591.66848  20752451.767    20752460.6784
  24115806.008    -7870963.878 7  -6118491.23645  24115805.445    24115819.7304
  21981444.654   -18395966.190 8 -14318774.02747  21981444.782    21981454.5334
  22011837.146   -19350855.019 8 -15049113.49847  22011836.493    22011846.9104
  22908510.110   -14333544.669 8 -11128261.72746  22908509.270    22908522.1244
 02  1 26  2 12  0.0000000  0  9 26 10 18 06 23 05 30 17 15
  23340834.144    -8327473.801 8  -6459882.53245  23340834.107    23340846.2704
  22026720.499   -18461871.192 8 -14369581.53747  22026719.559    22026729.3804
  23421128.788   -10380691.041 8  -8057502.44045  23421128.221    23421140.2184
  20368461.067   -29854568.640 9 -23248286.19948  20368460.748    20368468.9194
  20745936.578   -22922532.606 9 -17838272.58748  20745935.938    20745944.8334
  24135990.533    -7764894.400 7  -6035839.81545  24135989.862    24136004.1554
  21998007.719   -18308927.071 8 -14250951.39847  21998007.816    21998017.6124
  22002792.649   -19398383.829 8 -15086148.84147  22002791.984    22002802.3864
  22895456.675   -14402140.343 8 -11181712.68846  22895455.816    22895468.6134
 02  1 26  2 12 30.0000000  0  9 26 10 18 06 23 05 30 17 15
  23324647.091    -8412536.617 8  -6526165.09545  23324647.113    23324659.1914
  22042101.291   -18381044.620 8 -14306599.78647  22042100.341    22042110.1844
  23401348.815   -10484634.053 8  -8138496.74245  23401348.264    23401360.2814
  20364271.456   -29876584.972 9 -23265441.72548  20364271.129    20364279.2764
  20739516.697   -22956268.870 9 -17864560.51048  20739516.062    20739524.9464
  24156173.692    -7658831.821 8  -5953193.78545  24156173.079    24156187.3634
  22014627.794   -18221588.073 8 -14182895.09647  22014627.900    22014637.6804
  21993781.442   -19445737.847 8 -15123047.98947  21993780.753    21993791.1284
  22882434.202   -14470573.250 8 -11235036.83346  22882433.361    22882446.0794
 02  1 26  2 13  0.0000000  0  9 26 10 18 06 23 05 30 17 15
  23308498.819    -8497396.159 8  -6592289.25345  23308498.852    23308510.8184
  22057549.497   -18299863.542 8 -14243341.79246  22057548.537    22057558.3964
  23381605.955   -10588382.248 8  -8219339.22245  23381605.452    23381617.4144
  20360152.784   -29898228.571 9 -23282306.80548  20360152.450    20360160.5704
  20733193.483   -22989497.333 9 -17890452.74048  20733192.849    20733201.7144
  24176355.498    -7552775.963 8  -5870553.00245  24176354.878    24176369.2994
  22031305.005   -18133949.225 8 -14114605.14547  22031305.095    22031314.8694
  21984803.946   -19492914.351 8 -15159808.81047  21984803.258    21984813.6394
  22869443.318   -14538840.304 8 -11288231.73046  22869442.475    22869455.1384
 02  1 26  2 13 30.0000000  0  9 26 10 18 06 23 05 30 17 15
  23292389.460    -8582051.033 8  -6658253.93845  23292389.455    23292401.4054
  22073064.267   -18218332.813 8 -14179811.34846  22073063.297    22073073.1704
  23361900.245   -10691935.215 8  -8300029.58345  23361899.743    23361911.6874
  20356104.953   -29919499.869 9 -23298881.78148  20356104.622    20356112.7224
  20726966.575   -23022219.533 9 -17915950.48248  20726965.940    20726974.7824
  24196535.231    -7446731.319 8  -5787920.95745  24196534.557    24196548.9944
  22048038.334   -18046015.303 8 -14046085.26647  22048038.401    22048048.2284
  21975859.862   -19539915.557 8 -15196433.03447  21975859.179    21975869.5194
  22856483.564   -14606943.369 8 -11341298.86346  22856482.777    22856495.3714
 02  1 26  2 14  0.0000000  0  9 26 10 18 06 23 05 30 17 15
  23276319.571    -8666497.878 8  -6724056.53045  23276319.569    23276331.4964
  22088644.959   -18136455.345 8 -14116010.71846  22088644.030    22088653.9064
  23342231.968   -10795291.470 8  -8380566.67446  23342231.480    23342243.4434
  20352128.225   -29940397.495 9 -23315165.58548  20352127.875    20352135.9644
  20720836.064   -23054435.293 9 -17941053.59248  20720835.434    20720844.2574
  24216712.365    -7340700.554 8  -5705299.73745  24216711.719    24216725.9864
  22064827.143   -17957789.407 8 -13977337.86547  22064827.268    22064837.0994
  21966949.056   -19586741.880 8 -15232920.98247  21966948.358    21966958.6794
  22843554.983   -14674882.875 8 -11394238.54946  22843554.187    22843566.6944
 02  1 26  2 14 30.0000000  0  9 26 10 18 06 23 05 30 17 15
  23260290.171    -8750732.156 8  -6789693.46345  23260290.177    23260302.0634
  22104291.435   -18054232.740 8 -14051941.15546  22104290.498    22104300.3564
  23322601.856   -10898447.716 8  -8460947.91046  23322601.269    23322613.2514
  20348223.091   -29960918.810 9 -23331156.16348  20348222.739    20348230.8154
  20714802.191   -23086143.170 9 -17965760.95548  20714801.561    20714810.3624
  24236886.676    -7234684.969 8  -5622690.32345  24236885.992    24236900.1674
  22081671.195   -17869273.593 8 -13908364.56047  22081671.317    22081681.1734
  21958071.617   -19633392.771 8 -15269272.23547  21958070.914    21958081.1784
  22830657.679   -14742657.772 8 -11447049.96846  22830656.876    22830669.3354
 02  1 26  2 15  0.0000000  0  9 26 10 18 06 23 05 30 17 15
  23244301.945    -8834750.037 8  -6855161.77945  23244302.025    23244313.8644
  22120003.052   -17971667.624 8 -13987604.68946  22120002.111    22120011.9574
  23303010.203   -11001401.500 8  -8541171.39246  23303009.623    23303021.5844
  20344389.983   -29981061.694 9 -23346851.85948  20344389.632    20344397.6944
  20708865.137   -23117342.367 9 -17990071.94248  20708864.502    20708873.2834
  24257057.603    -7128686.799 8  -5540094.47945  24257056.848    24257071.1494
  22098569.879   -17780470.459 8 -13839167.36747  22098570.028    22098579.9004
  21949227.604   -19679867.927 8 -15305486.54947  21949226.907    21949237.1634
  22817791.797   -14810267.750 8 -11499732.88846  22817790.983    22817803.3884
 02  1 26  2 15 30.0000000  0  9 26 10 18 06 23 05 30 17 15
  23228355.147    -8918550.417 8  -6920460.62745  23228355.185    23228367.0334
  22135778.865   -17888765.339 8 -13923005.50246  22135777.910    22135787.7614
  23283457.071   -11104153.170 8  -8621237.39046  23283456.499    23283468.3464
  20340628.705   -30000827.125 9 -23362253.43048  20340628.356    20340636.4204
  20703024.423   -23148035.271 9 -18013988.41448  20703023.785    20703032.5504
  24277224.213    -7022711.188 8  -5457516.21145  24277223.428    24277237.7934
  22115522.231   -17691385.455 8 -13769750.53847  22115522.343    22115532.2314
  21940416.455   -19726170.359 8 -15341566.27147  21940415.766    21940426.0124
  22804956.809   -14877715.317 8 -11552289.24846  22804955.938    22804968.3564
 02  1 26  2 16  0.0000000  0  9 26 10 18 06 23 05 30 17 15
  23212450.938    -9002126.970 8  -6985585.05645  23212450.965    23212462.7704
  22151618.883   -17805525.753 8 -13858143.47946  22151617.934    22151627.7304
  23263943.405   -11206697.670 8  -8701141.96746  23263942.808    23263954.5524
  20336940.096   -30020210.609 9 -23377357.38348  20336939.770    20336947.8054
  20697280.689   -23178218.468 9 -18037507.71648  20697280.051    20697288.7964
  24297386.552    -6916757.650 7  -5374955.13645  24297385.809    24297400.1664
  22132528.271   -17602018.302 8 -13700113.85247  22132528.389    22132538.2804
  21931638.721   -19772297.280 8 -15377509.23247  21931638.033    21931648.2814
  22792153.280   -14944997.557 8 -11604716.78846  22792152.422    22792164.8034
 02  1 26  2 16 30.0000000  0  9 26 10 18 06 23 05 30 17 15
  23196589.733    -9085477.684 8  -7050533.49345  23196589.736    23196601.4794
  22167522.243   -17721952.981 8 -13793021.82746  22167521.294    22167531.0314
  23244469.180   -11309034.528 8  -8780884.75146  23244468.590    23244480.2124
  20333324.152   -30039212.249 9 -23392163.79648  20333323.813    20333331.8364
  20691633.735   -23207893.166 9 -18060630.78448  20691633.101    20691641.8174
  24317543.983    -6810830.367 7  -5292414.52145  24317543.175    24317557.5144
  22149587.040   -17512373.795 8 -13630261.05247  22149587.160    22149597.1084
  21922894.011   -19818250.602 8 -15413316.92647  21922893.327    21922903.5594
  22779380.864   -15012116.152 8 -11657016.82346  22779380.014    22779392.3524
 02  1 26  2 17  0.0000000  0  9 26 10 18 06 23 05 30 17 15
  23180772.199    -9168598.827 8  -7115303.03645  23180772.146    23180783.9204
  22183488.535   -17638049.360 8 -13727642.37746  22183487.591    22183497.3384
  23225034.977   -11411160.941 8  -8860463.55346  23225034.403    23225045.9504
  20329781.243   -30057830.097 9 -23406671.14848  20329780.906    20329788.9044
  20686083.652   -23237058.778 9 -18083357.15948  20686083.013    20686091.7054
  24337695.940    -6704931.487 7  -5209896.04845  24337695.054    24337709.4884
  22166698.154   -17422454.526 8 -13560194.15147  22166698.284    22166708.2324
  21914182.361   -19864030.137 8 -15448989.19047  21914181.678    21914191.9074
  22766639.748   -15079070.546 8 -11709188.91746  22766638.864    22766651.1744
 02  1 26  2 17 30.0000000  0  9 26 10 18 06 23 05 30 17 15
  23164999.047    -9251486.917 8  -7179890.99245  23164998.915    23165010.7134
  22199517.204   -17553817.917 8 -13662007.48546  22199516.275    22199526.0464
  23205641.188   -11513075.002 8  -8939876.90646  23205640.650    23205652.1594
  20326311.643   -30076062.720 9 -23420878.32648  20326311.298    20326319.2844
  20680630.491   -23265715.141 9 -18105686.72048  20680629.838    20680638.5154
  24357841.965    -6599063.426 7  -5127401.59045  24357841.188    24357855.6054
  22183860.997   -17332263.534 8 -13489915.51547  22183861.102    22183871.0784
  21905503.700   -19909636.448 8 -15484526.48247  21905503.026    21905513.2334
  22753929.817   -15145860.800 8 -11761233.10746  22753928.973    22753941.2324
 02  1 26  2 18  0.0000000  0  9 26 10 18 06 23 05 30 17 15
  23149270.878    -9334138.273 8  -7244294.46845  23149270.744    23149282.5624
  22215607.779   -17469261.163 8 -13596119.09746  22215606.866    22215616.6444
  23186288.391   -11614774.118 8  -9019122.76646  23186287.807    23186299.2204
  20322915.634   -30093908.578 9 -23434784.12948  20322915.299    20322923.2624
  20675274.263   -23293861.916 9 -18127619.19948  20675273.606    20675282.2704
  24377981.644    -6493228.610 7  -5044933.07245  24377981.014    24377995.3894
  22201074.973   -17241803.571 8 -13419427.28746  22201075.095    22201085.0794
  21896857.970   -19955069.581 8 -15519928.82247  21896857.301    21896867.4614
  22741251.162   -15212486.955 8 -11813149.44646  22741250.350    22741262.4134
 02  1 26  2 18 30.0000000  0  9 26 10 18 06 23 05 30 17 15
  23133588.305    -9416550.002 8  -7308511.22345  23133588.191    23133599.9894
  22231759.656   -17384382.516 8 -13529979.88946  22231758.704    22231768.4834
  23166976.661   -11716257.017 8  -9098200.17246  23166976.056    23166987.3934
  20319593.461   -30111366.562 9 -23448387.69348  20319593.129    20319601.0694
  20670014.986   -23321499.277 9 -18149154.73448  20670014.337    20670022.9834
  24398114.585    -6387430.147 7  -4962492.85345  24398113.947    24398128.3034
  22218339.491   -17151078.241 8 -13348732.26646  22218339.594    22218349.5644
  21888245.091   -20000330.366 8 -15555196.86147  21888244.404    21888254.5404
  22728603.599   -15278949.581 8 -11864938.35246  22728602.816    22728614.8054
 02  1 26  2 19  0.0000000  0  9 26 10 18 06 23 05 30 17 15
  23117952.138    -9498717.836 8  -7372537.93846  23117952.025    23117963.8184
  22247972.348   -17299184.275 8 -13463591.64646  22247971.420    22247981.1754
  23147706.545   -11817521.044 8  -9177107.02146  23147705.987    23147717.2054
  20316345.532   -30128434.307 9 -23461687.17848  20316345.207    20316353.1194
  20664852.801   -23348626.433 9 -18170292.70548  20664852.151    20664860.7784
  24418240.322    -6281669.848 7  -4880082.38445  24418239.594    24418254.0884
  22235654.089   -17060089.739 8 -13277832.20346  22235654.187    22235664.1414
  21879665.047   -20045418.442 8 -15590330.32547  21879664.334    21879674.4534
  22715987.307   -15345247.919 8 -11916599.24146  22715986.510    22715998.4764
 02  1 26  2 19 30.0000000  0  9 26 10 18 06 23 05 30 17 15
  23102362.735    -9580640.009 8  -7436373.21846  23102362.588    23102374.3614
  22264245.052   -17213670.611 8 -13396957.62346  22264244.134    22264253.8924
  23128478.262   -11918565.432 8  -9255842.72546  23128477.719    23128488.9144
  20313171.849   -30145111.948 9 -23474682.68848  20313171.514    20313179.3984
  20659787.424   -23375244.843 9 -18191034.25148  20659786.787    20659795.3724
  24438357.934    -6175951.845 7  -4797704.87245  24438357.286    24438371.8074
  22253017.927   -16968842.532 8 -13206730.54246  22253018.016    22253027.9444
  21871117.500   -20090335.754 8 -15625330.73147  21871116.791    21871126.8834
  22703401.931   -15411383.759 8 -11968133.51846  22703401.143    22703413.0084
 02  1 26  2 20  0.0000000  0  9 26 10 18 06 23 05 30 17 15
  23086821.204    -9662310.514 8  -7500012.38946  23086821.107    23086832.8544
  22280577.740   -17127841.731 8 -13330077.97046  22280576.828    22280586.6174
  23109292.634   -12019385.529 8  -9334403.66946  23109292.130    23109303.1934
  20310073.162   -30161395.455 9 -23487371.08248  20310072.829    20310080.6984
  20654819.430   -23401351.646 9 -18211377.14148  20654818.777    20654827.3424
  24458467.561    -6070275.958 7  -4715360.17645  24458466.955    24458481.4404
  22270430.850   -16877337.425 8 -13135427.92146  22270430.941    22270440.8524
  21862602.872   -20135079.988 8 -15660196.27247  21862602.186    21862612.2484
  22690847.982   -15477354.462 8 -12019539.12446  22690847.174    22690859.0744
 02  1 26  2 20 30.0000000  0  9 26 10 18 06 23 05 30 17 15
  23071328.137    -9743726.750 8  -7563453.44146  23071327.992    23071339.6554
  22296969.666   -17041701.573 8 -13262955.77346  22296968.710    22296978.5584
  23090149.925   -12119980.326 8  -9412789.04246  23090149.383    23090160.4534
  20307049.573   -30177284.247 9 -23499751.90448  20307049.232    20307057.0914
  20649948.586   -23426947.843 9 -18231322.15348  20649947.939    20649956.4804
  24478568.427    -5964645.908 7  -4633051.19545  24478567.840    24478582.3034
  22287892.083   -16785578.166 8 -13063927.25746  22287892.183    22287902.1424
  21854120.971   -20179652.342 8 -15694927.88647  21854120.297    21854130.3194
  22678325.250   -15543161.159 8 -12070816.92946  22678324.453    22678336.3604
 02  1 26  2 21  0.0000000  0  9 26 10 18 06 23 05 30 17 15
  23055883.718    -9824886.730 8  -7626694.81446  23055883.575    23055895.2214
  22313420.058   -16955254.094 8 -13195594.10746  22313419.101    22313428.9224
  23071050.190   -12220349.216 8  -9490998.38646  23071049.695    23071060.6914
  20304101.126   -30192778.293 9 -23511825.13748  20304100.793    20304108.6334
  20645174.646   -23452034.764 9 -18250870.33048  20645174.004    20645182.5204
  24498659.818    -5859065.206 8  -4550780.67445  24498659.251    24498673.8014
  22305400.860   -16693569.203 8 -12992232.02746  22305400.922    22305410.9454
  21845671.448   -20224054.631 8 -15729526.98147  21845670.757    21845680.7554
  22665833.509   -15608805.361 8 -12121968.10946  22665832.671    22665844.5504
 02  1 26  2 21 30.0000000  0  9 26 10 18 06 23 05 30 17 15
  23040488.988    -9905785.634 8  -7689732.74146  23040488.882    23040500.4934
  22329928.665   -16868500.861 8 -13127994.18946  22329927.703    22329937.5274
  23051994.194   -12320488.529 8  -9569028.83746  23051993.657    23052004.6284
  20301228.317   -30207874.686 9 -23523588.51048  20301227.982    20301235.8224
  20640497.948   -23476610.775 9 -18270020.39148  20640497.301    20640505.7874
  24518741.739    -5753534.991 8  -4468549.48745  24518741.198    24518755.7384
  22322956.799   -16601312.195 8 -12920343.52946  22322956.888    22322966.8904
  21837254.415   -20268285.902 8 -15763992.81647  21837253.754    21837263.7104
  22653372.887   -15674285.675 8 -12172991.59346  22653372.057    22653383.8944
 02  1 26  2 22  0.0000000  0 10 26 10 18 06 23 05 30 17 15 22
  23025144.371    -9986421.625 8  -7752565.81046  23025144.274    23025155.8134
  22346494.596   -16781446.414 8 -13060159.55746  22346493.624    22346503.4434
  23032981.848   -12420398.041 8  -9646880.22546  23032981.369    23032992.2614
  20298431.110   -30222573.832 9 -23535042.34348  20298430.779    20298438.6224
  20635918.125   -23500677.681 9 -18288773.74948  20635917.472    20635925.9404
  24538813.253    -5648059.554 7  -4386360.98145  24538812.574    24538827.2714
  22340559.081   -16508811.832 8 -12848265.41046  22340559.173    22340569.1914
  21828869.567   -20312348.045 8 -15798326.85947  21828868.919    21828878.8434
  22640943.087   -15739603.863 8 -12223888.74546  22640942.262    22640954.1234
  24293293.743    -4705063.777 8  -3642391.81545  24293292.655    24293308.3544
 02  1 26  2 22 30.0000000  0 10 26 10 18 06 23 05 30 17 15 22
  23009849.938   -10066793.925 8  -7815193.38746  23009849.843    23009861.2994
  22363116.860   -16694096.035 8 -12992094.32746  22363115.867    22363125.6894
  23014013.208   -12520078.370 8  -9724553.02146  23014012.710    23014023.6004
  20295709.344   -30236876.722 9 -23546187.40548  20295709.003    20295716.8414
  20631434.695   -23524237.927 9 -18307132.30648  20631434.046    20631442.5024
  24558873.310    -5542643.891 8  -4304219.06545  24558872.566    24558887.3174
  22358206.547   -16416073.769 8 -12776002.06246  22358206.686    22358216.7674
  21820516.379   -20356244.016 8 -15832531.42247  21820515.722    21820525.6234
  22628543.738   -15804762.342 8 -12274661.43446  22628542.916    22628554.7794
  24280755.517    -4770951.001 8  -3693732.23145  24280754.504    24280769.9864
 02  1 26  2 23  0.0000000  0 10 26 10 18 06 23 05 30 17 15 22
  22994607.401   -10146893.156 8  -7877608.19546  22994607.295    22994618.7564
  22379795.910   -16606446.739 8 -12923796.17646  22379794.961    22379804.7524
  22995089.749   -12619521.332 8  -9802040.86546  22995089.231    22995100.1054
  20293064.346   -30250776.115 9 -23557018.05648  20293063.994    20293071.8044
  20627048.770   -23547285.628 9 -18325091.47348  20627048.122    20627056.5854
  24578922.665    -5437284.748 7  -4222121.19345  24578921.906    24578936.6594
  22375899.822   -16323095.267 8 -12703551.35046  22375899.936    22375910.0574
  21812195.889   -20399968.265 8 -15866602.16347  21812195.221    21812205.0934
  22616175.874   -15869755.511 8 -12325305.31846  22616175.038    22616186.8644
  24268299.211    -4836407.913 8  -3744737.34345  24268298.187    24268313.4904
 02  1 26  2 23 30.0000000  0 10 26 10 18 06 23 05 30 17 15 22
  22979417.866   -10226714.058 8  -7939806.13446  22979417.810    22979429.1734
  22396531.684   -16518499.488 8 -12855265.84546  22396530.755    22396540.5584
  22976212.206   -12718723.177 8  -9879340.82146  22976211.680    22976222.4954
  20290496.737   -30264268.652 9 -23567531.67748  20290496.402    20290504.1964
  20622760.772   -23569818.911 9 -18342649.79548  20622760.120    20622768.5684
  24598961.074    -5331982.677 7  -4140067.79145  24598960.324    24598975.1534
  22393638.710   -16229877.075 8 -12630913.85446  22393638.846    22393648.9884
  21803908.367   -20443519.319 8 -15900537.96447  21803907.689    21803917.5314
  22603839.726   -15934581.707 8 -12375819.09446  22603838.898    22603850.6844
  24255925.562    -4901430.617 8  -3795404.13845  24255924.504    24255939.7704
 02  1 26  2 24  0.0000000  0 10 26 10 18 06 23 05 30 17 15 22
  22964281.036   -10306257.932 8  -8001788.19746  22964280.979    22964292.1944
  22413322.795   -16430261.814 8 -12786509.22346  22413321.890    22413331.6504
  22957379.986   -12817686.753 8  -9956455.11446  22957379.407    22957390.1364
  20288005.952   -30277357.590 9 -23577730.81148  20288005.616    20288013.4084
  20618569.737   -23591842.611 9 -18359811.04048  20618569.092    20618577.5174
  24618987.354    -5226744.766 7  -4058064.39045  24618986.500    24619001.3734
  22411421.596   -16136427.288 8 -12558095.91046  22411421.736    22411431.8954
  21795652.827   -20486902.045 9 -15934342.58847  21795652.154    21795661.9764
  22591534.461   -15999245.833 8 -12426206.57946  22591533.637    22591545.3684
  24243633.992    -4966022.051 8  -3845734.84845  24243632.983    24243648.2754
 02  1 26  2 24 30.0000000  0 10 26 10 18 06 23 05 30 17 15 22
  22949198.062   -10385518.963 8  -8063549.86446  22949198.011    22949209.1584
  22430169.086   -16341734.159 8 -12717526.64746  22430168.158    22430177.8914
  22938593.817   -12916407.665 8 -10033380.30746  22938593.213    22938603.9734
  20285592.677   -30290039.282 9 -23587612.60848  20285592.347    20285600.1224
  20614476.100   -23613354.459 9 -18376573.44048  20614475.466    20614483.8574
  24639001.258    -5121571.241 7  -3976111.15445  24639000.355    24639015.4324
  22429248.490   -16042746.616 8 -12485098.05046  22429248.654    22429258.8364
  21787429.692   -20530114.533 9 -15968014.56847  21787429.017    21787438.7854
  22579260.507   -16063745.398 8 -12476465.83246  22579259.664    22579271.3574
  24231425.303    -5030178.013 8  -3895726.24245  24231424.304    24231439.5134
 02  1 26  2 25  0.0000000  0 10 26 10 18 06 23 05 30 17 15 22
  22934169.297   -10464494.745 8  -8125089.24646  22934169.245    22934180.3384
  22447069.767   -16252920.541 8 -12648321.24146  22447068.838    22447078.5614
  22919854.041   -13014884.853 8 -10110115.58646  22919853.446    22919864.2014
  20283256.969   -30302313.315 9 -23597176.74948  20283256.624    20283264.3984
  20610479.652   -23634355.611 9 -18392937.89448  20610479.022    20610487.4064
  24659002.340    -5016465.447 7  -3894210.69245  24659001.469    24659016.5874
  22447118.578   -15948839.040 8 -12411923.38646  22447118.723    22447128.8914
  21779238.694   -20573158.080 8 -16001554.90847  21779238.018    21779247.7704
  22567017.647   -16128081.510 8 -12526597.70446  22567016.820    22567028.4554
  24219299.639    -5093897.525 8  -3945377.56245  24219298.709    24219313.7594
 02  1 26  2 25 30.0000000  0 10 26 10 18 06 23 05 30 17 15 22
  22919195.714   -10543180.657 8  -8186402.75946  22919195.672    22919206.7484
  22464024.555   -16163822.402 8 -12578894.12646  22464023.610    22464033.3634
  22901161.238   -13113115.207 8 -10186658.53046  22901160.647    22901171.3774
  20280999.307   -30314177.162 9 -23606421.25948  20280998.967    20281006.7394
  20606580.559   -23654845.054 9 -18408903.61548  20606579.942    20606588.2954
  24678990.203    -4911428.736 7  -3812364.06945  24678989.291    24679004.3274
  22465031.459   -15854706.411 8 -12338573.36246  22465031.642    22465041.7584
  21771080.025   -20616031.883 8 -16034962.97747  21771079.345    21771089.0844
  22554806.092   -16192253.071 8 -12576601.35246  22554805.243    22554816.8924
  24207257.620    -5157177.646 8  -3994686.46645  24207256.575    24207271.4534
 02  1 26  2 26  0.0000000  0  9 26 10 18 06 23 30 17 15 22
  22904277.554   -10621575.264 8  -8247489.28446  22904277.439    22904288.5974
  22481032.605   -16074444.511 8 -12509249.02246  22481031.655    22481041.4064
  22882515.444   -13211098.462 8 -10263008.91846  22882514.845    22882525.6124
  20278819.591   -30325631.334 9 -23615346.54348  20278819.256    20278827.0184
  20602778.474   -23674824.798 9 -18424472.16348  20602777.854    20602786.1984
  22482986.269   -15760353.693 8 -12265051.82846  22482986.432    22482996.5584
  21762953.177   -20658738.279 8 -16068240.59347  21762952.502    21762962.2184
  22542625.402   -16256262.243 8 -12626478.47546  22542624.566    22542636.1954
  24195299.247    -5220018.293 8  -4043652.91545  24195298.194    24195313.1114
 02  1 26  2 26 30.0000000  0  9 26 10 18 06 23 30 17 15 22
  22889416.171   -10699671.953 8  -8308343.66446  22889416.087    22889427.1434
  22498093.875   -15984786.535 8 -12439385.67746  22498092.935    22498102.7274
  22863917.660   -13308829.502 8 -10339162.78446  22863917.130    22863927.8424
  20276718.733   -30336671.273 9 -23623949.05148  20276718.390    20276726.1324
  20599073.954   -23694291.886 9 -18439641.24748  20599073.338    20599081.6604
  22500982.971   -15665780.873 8 -12191358.79846  22500983.133    22500993.3024
  21754858.758   -20701274.324 9 -16101385.47247  21754858.085    21754867.7854
  22530476.240   -16320105.925 8 -12676226.64946  22530475.417    22530486.9894
  24183425.413    -5282414.656 8  -4092273.18745  24183424.334    24183439.1894
 02  1 26  2 27  0.0000000  0  9 26 10 18 06 23 30 17 15 22
  22874611.380   -10777470.878 8  -8368966.02046  22874611.277    22874622.3254
  22515207.353   -15894854.664 8 -12369308.91446  22515206.427    22515216.2354
  22845367.633   -13406309.986 8 -10415121.40646  22845367.072    22845377.7404
  20274696.286   -30347299.174 9 -23632230.49048  20274695.960    20274703.6834
  20595466.323   -23713249.854 9 -18454413.61348  20595465.686    20595473.9804
  22519020.287   -15570994.496 8 -12117499.34846  22519020.426    22519030.5964
  21746796.024   -20743643.819 8 -16134400.56647  21746795.357    21746805.0364
  22518357.892   -16383787.703 8 -12725848.65746  22518357.076    22518368.6204
  24171635.710    -5344368.489 7  -4140548.62845  24171634.695    24171649.5374
 02  1 26  2 27 30.0000000  0  9 26 10 18 06 23 30 17 15 22
  22859864.215   -10854966.868 8  -8429352.31946  22859864.155    22859875.1394
  22532372.751   -15804649.932 8 -12299019.53046  22532371.823    22532381.6054
  22826865.982   -13503536.004 8 -10490881.74646  22826865.410    22826876.0284
  20272752.855   -30357511.875 9 -23640188.38748  20272752.535    20272760.2284
  20591955.871   -23731697.148 9 -18468788.04948  20591955.236    20591963.4994
  22537097.995   -15475995.737 8 -12043474.41146  22537098.112    22537108.3234
  21738765.279   -20785845.301 8 -16167284.73947  21738764.616    21738774.2784
  22506270.663   -16447306.037 8 -12775343.29546  22506269.834    22506281.3084
  24159930.935    -5405876.062 7  -4188476.32345  24159929.969    24159944.7344
 02  1 26  2 28  0.0000000  0  9 26 10 18 06 23 30 17 15 22
  22845175.144   -10932157.908 8  -8489501.01146  22845175.075    22845186.0044
  22549589.241   -15714176.846 8 -12228521.03546  22549588.335    22549598.0344
  22808412.821   -13600507.172 8 -10566443.50846  22808412.255    22808422.7744
  20270888.357   -30367309.607 9 -23647822.94248  20270888.026    20270895.7144
  20588542.272   -23749635.470 9 -18482765.88948  20588541.629    20588549.8844
  22555215.267   -15380789.199 8 -11969287.56946  22555215.369    22555225.5994
  21730766.154   -20827880.688 8 -16200039.48947  21730765.484    21730775.1304
  22494214.242   -16510662.209 8 -12824711.58846  22494213.430    22494224.8764
  24148311.171    -5466937.181 7  -4236056.14945  24148310.314    24148324.9024
 02  1 26  2 28 30.0000000  0  9 26 10 18 06 23 30 17 15 22
  22830544.756   -11009040.424 8  -8549409.28846  22830544.683    22830555.5914
  22566856.312   -15623437.872 8 -12157815.36746  22566855.401    22566865.1094
  22790008.636   -13697221.303 8 -10641804.97746  22790008.066    22790018.4804
  20269103.188   -30376690.697 9 -23655132.83448  20269102.852    20269110.5154
  20585225.561   -23767064.615 9 -18496346.97348  20585224.916    20585233.1534
  22573371.542   -15285377.551 8 -11894940.90046  22573371.650    22573381.8984
  21722798.618   -20869749.887 9 -16232664.73147  21722797.960    21722807.5804
  22482188.737   -16573855.944 8 -12873953.30746  22482187.906    22482199.3474
  24136776.762    -5527549.734 7  -4283286.41545  24136775.799    24136790.6134
 02  1 26  2 29  0.0000000  0  9 26 10 18 06 23 30 17 15 22
  22815974.143   -11085608.979 8  -8609072.91346  22815974.080    22815984.8424
  22584173.861   -15532433.697 8 -12086903.05046  22584172.932    22584182.6634
  22771654.065   -13793674.588 8 -10716963.18346  22771653.513    22771663.8714
  20267397.862   -30385651.975 9 -23662115.60048  20267397.513    20267405.1924
  20582006.015   -23783983.100 9 -18509530.13948  20582005.384    20582013.5964
  22591566.588   -15189762.095 8 -11820435.42946  22591566.713    22591576.9724
  21714863.033   -20911451.394 9 -16265159.29647  21714862.374    21714871.9464
  22470194.464   -16636885.624 8 -12923067.18046  22470193.639    22470205.0924
  24125328.403    -5587710.098 7  -4330164.36545  24125327.354    24125342.1594
 02  1 26  2 29 30.0000000  0  9 26 10 18 06 23 30 17 15 22
  22801463.501   -11161862.333 8  -8668490.93546  22801463.346    22801474.0764
  22601540.998   -15441168.999 8 -12015787.70946  22601540.049    22601549.7824
  22753349.156   -13889866.921 8 -10791918.05946  22753348.595    22753358.8864
  20265772.295   -30394194.216 9 -23668771.84548  20265771.948    20265779.6274
  20578883.235   -23800393.162 9 -18522317.13748  20578882.596    20578890.7954
  22609799.555   -15093947.694 8 -11745774.93546  22609799.651    22609809.9214
  21706958.904   -20952987.483 9 -16297524.96847  21706958.226    21706967.7774
  22458231.008   -16699753.443 8 -12972054.94546  22458230.181    22458241.6014
  24113965.926    -5647418.475 7  -4376690.11345  24113964.930    24113979.7594
 02  1 26  2 30  0.0000000  0  9 26 10 18 06 23 30 17 15 22
  22787013.667   -11237795.731 8  -8727659.65246  22787013.549    22787024.2354
  22618957.394   -15349645.293 8 -11944470.55446  22618956.442    22618966.2004
  22735094.522   -13985794.981 8 -10866667.01146  22735093.982    22735104.1754
  20264226.988   -30402314.707 9 -23675099.44648  20264226.638    20264234.3274
  20575857.378   -23816293.823 9 -18534707.20048  20575856.751    20575864.9204
  22628069.947   -14997936.236 8 -11670960.88346  22628070.073    22628080.3504
  21699086.422   -20994357.131 9 -16329760.94847  21699085.756    21699095.2834
  22446298.593   -16762457.920 8 -13020915.41946  22446297.752    22446309.1404
  24102690.072    -5706671.827 7  -4422861.29945  24102689.026    24102703.9484
 02  1 26  2 30 30.0000000  0  9 26 10 18 06 23 30 17 15 22
  22772625.230   -11313406.708 8  -8786577.12446  22772625.130    22772635.7694
  22636422.262   -15257866.882 8 -11872954.94046  22636421.321    22636431.0404
  22716890.338   -14081458.060 8 -10941209.49146  22716889.774    22716899.8944
  20262761.942   -30410013.163 9 -23681098.19648  20262761.612    20262769.2974
  20572928.200   -23831686.455 9 -18546701.40048  20572927.579    20572935.7214
  22646377.081   -14901731.820 8 -11595996.48846  22646377.199    22646387.5174
  21691245.395   -21035561.770 9 -16361868.35547  21691244.714    21691254.2084
  22434397.127   -16825000.271 8 -13069649.56246  22434396.281    22434407.5974
  24091501.015    -5765469.643 7  -4468677.54745  24091499.982    24091514.9174
 02  1 26  2 31  0.0000000  0  9 26 10 18 06 23 30 17 15 22
  22758298.902   -11388691.173 8  -8845240.17346  22758298.808    22758309.3764
  22653935.284   -15165835.339 8 -11801242.08246  22653934.327    22653944.0624
  22698737.155   -14176852.996 8 -11015543.03446  22698736.602    22698746.7014
  20261377.688   -30417287.287 9 -23686766.29548  20261377.340    20261385.0384
  20570095.857   -23846570.301 9 -18558299.14648  20570095.230    20570103.3584
  22664720.581   -14805336.315 8 -11520883.18846  22664720.710    22664731.0374
  21683435.851   -21076600.685 9 -16393846.62347  21683435.180    21683444.6324
  22422526.594   -16887379.876 8 -13118256.89946  22422525.729    22422536.9984
  24080399.248    -5823809.038 7  -4514136.59945  24080398.237    24080412.9734
 02  1 26  2 31 30.0000000  0  9 26 10 18 06 23 30 17 15 22
  22744035.360   -11463645.914 8  -8903646.29546  22744035.292    22744045.8264
  22671495.895   -15073553.718 8 -11729334.35046  22671494.961    22671504.7174
  22680635.223   -14271978.403 8 -11089666.53946  22680634.664    22680644.7614
  20260074.339   -30424136.193 9 -23692103.05448  20260074.003    20260081.6844
  20567360.195   -23860946.032 9 -18569500.95248  20567359.553    20567367.6824
  22683099.839   -14708753.117 8 -11445623.62546  22683099.956    22683110.2764
  21675657.799   -21117474.310 9 -16425696.08547  21675657.105    21675666.5444
  22410686.954   -16949597.021 8 -13166737.65046  22410686.115    22410697.3224
  24069385.012    -5881688.570 7  -4559237.33845  24069384.132    24069398.7174
 02  1 26  2 32  0.0000000  0  9 26 10 18 06 23 30 17 15 22
  22729835.372   -11538266.978 8  -8961792.41646  22729835.292    22729845.7434
  22689103.729   -14981024.202 8 -11657233.44746  22689102.810    22689112.5314
  22662585.077   -14366831.838 8 -11163578.13546  22662584.499    22662594.6284
  20258852.214   -30430558.244 9 -23697107.19448  20258851.869    20258859.5524
  20564721.232   -23874813.582 9 -18580306.77948  20564720.590    20564728.6964
  22701514.241   -14611984.889 8 -11370219.88846  22701514.369    22701524.7574
  21667911.164   -21158182.615 9 -16457416.73547  21667910.478    21667919.9074
  22398878.315   -17011651.328 8 -13215091.52346  22398877.470    22398888.6094
  24058458.555    -5939106.387 7  -4603978.28245  24058457.706    24058472.3384
 02  1 26  2 32 30.0000000  0  9 26 10 18 06 23 30 17 15 22
  22715699.197   -11612552.474 8  -9019677.05746  22715699.089    22715709.5314
  22706758.005   -14888250.661 8 -11584942.39946  22706757.079    22706766.7804
  22644586.755   -14461412.755 8 -11237277.37546  22644586.189    22644596.3224
  20257711.349   -30436553.456 9 -23701778.74048  20257711.009    20257718.6774
  20562178.625   -23888174.698 9 -18590717.97848  20562178.001    20562186.0954
  22719963.022   -14515035.925 8 -11294675.32546  22719963.167    22719973.5824
  21660195.678   -21198727.381 9 -16489009.95047  21660194.979    21660204.3844
  22387100.329   -17073544.291 8 -13263319.67546  22387099.504    22387110.5924
  24047620.205    -5996061.923 7  -4648359.03045  24047619.340    24047633.7854
 02  1 26  2 33  0.0000000  0  9 26 10 18 06 23 30 17 15 22
  22701627.615   -11686498.428 8  -9077297.11746  22701627.541    22701637.9454
  22724458.251   -14795235.359 8 -11512462.97746  22724457.335    22724467.0484
  22626640.796   -14555718.584 8 -11310762.27246  22626640.243    22626650.3004
  20256652.035   -30442120.003 9 -23706116.25348  20256651.692    20256659.3264
  20559732.492   -23901029.084 9 -18600734.32548  20559731.864    20559739.9444
  22738445.735   -14417908.840 8 -11218991.96146  22738445.891    22738456.3354
  21652511.391   -21239108.157 9 -16520475.38047  21652510.689    21652520.0734
  22375353.158   -17135275.413 8 -13311421.70546  22375352.336    22375363.4094
  24036870.195    -6052553.046 7  -4692377.88645  24036869.262    24036883.7614
 02  1 26  2 33 30.0000000  0  9 26 10 18 06 23 30 17 15 22
  22687621.351   -11760101.117 8  -9134649.70546  22687621.287    22687631.6924
  22742203.952   -14701980.988 8 -11439797.27246  22742203.030    22742212.7804
  22608747.715   -14649746.976 8 -11384030.99246  22608747.160    22608757.1704
  20255674.594   -30447256.389 9 -23710118.58448  20255674.249    20255681.8774
  20557382.740   -23913376.900 9 -18610355.94048  20557382.091    20557390.1664
  22756961.882   -14320606.118 8 -11143171.75046  22756962.013    22756972.4574
  21644858.314   -21279324.894 9 -16551812.99147  21644857.617    21644866.9584
  22363636.913   -17196844.316 8 -13359397.34246  22363636.067    22363647.1074
  24026208.905    -6108577.644 7  -4736033.22145  24026208.012    24026222.4224
 02  1 26  2 34  0.0000000  0  9 26 10 18 06 23 30 17 15 22
  22673681.289   -11833355.950 8  -9191731.22746  22673681.238    22673691.5944
  22759994.889   -14608489.072 8 -11366946.44746  22759994.004    22760003.7534
  22590907.906   -14743494.966 8 -11457081.20846  22590907.360    22590917.2744
  20254779.496   -30451959.916 9 -23713783.61848  20254779.148    20254786.7504
  20555129.579   -23925217.262 9 -18619582.12848  20555128.930    20555136.9794
  22775511.058   -14223129.723 8 -11067216.19146  22775511.211    22775521.6834
  21637236.631   -21319376.504 9 -16583021.93747  21637235.973    21637245.2574
  22351951.753   -17258249.901 8 -13407245.72446  22351950.867    22351961.8974
  24015636.896    -6164132.988 8  -4779322.88445  24015636.031    24015650.3554
 02  1 26  2 34 30.0000000  0  9 26 10 18 06 23 30 17 15 22
  22659807.661   -11906261.573 8  -9248540.65046  22659807.632    22659817.9254
  22777830.174   -14514764.159 8 -11293914.05946  22777829.277    22777839.0604
  22573121.495   -14836962.482 8 -11529912.87646  22573120.964    22573130.8444
  20253966.602   -30456231.413 9 -23717112.00548  20253966.271    20253973.8404
  20552972.487   -23936552.549 9 -18628414.75448  20552971.834    20552979.8744
  22794092.378   -14125484.373 8 -10991128.99446  22794092.548    22794103.0994
  21629645.960   -21359265.464 9 -16614104.14447  21629645.288    21629654.5474
  22340297.211   -17319494.122 8 -13454968.36146  22340296.375    22340307.3584
  24005154.228    -6219219.458 8  -4822247.18445  24005153.299    24005167.5334
 02  1 26  2 35  0.0000000  0  9 26 10 18 06 23 30 17 15 22
  22646001.569   -11978812.581 8  -9305073.74846  22646001.549    22646011.7844
  22795709.635   -14420806.941 8 -11220700.66246  22795708.719    22795718.5514
  22555389.209   -14930145.683 8 -11602523.01346  22555388.679    22555398.4754
  20253236.564   -30460067.631 9 -23720101.21948  20253236.226    20253243.7644
  20550911.792   -23947381.246 9 -18636852.63148  20550911.150    20550919.1684
  22812705.677   -14027671.332 8 -10914911.12046  22812705.842    22812716.3894
  21622086.565   -21398989.940 9 -16645058.19047  21622085.882    21622095.1264
  22328673.841   -17380574.930 8 -13502563.67446  22328673.031    22328683.9384
  23994761.372    -6273833.288 8  -4864803.20145  23994760.473    23994774.6264
 02  1 26  2 35 30.0000000  0  9 26 10 18 06 23 30 17 15 22
  22632263.025   -12051008.226 8  -9361329.95146  22632263.001    22632273.2524
  22813632.301   -14326622.703 8 -11147310.37546  22813631.392    22813641.1854
  22537710.956   -15023045.251 8 -11674912.13346  22537710.388    22537720.1134
  20252589.119   -30463469.790 9 -23722752.20548  20252588.795    20252596.3034
  20548946.908   -23957706.418 9 -18644898.15248  20548946.261    20548954.2764
  22831349.833   -13929696.103 8 -10838566.86646  22831349.975    22831360.5414
  21614557.871   -21438552.753 9 -16675886.26647  21614557.204    21614566.4464
  22317081.030   -17441494.961 8 -13550033.69346  22317080.197    22317091.0634
  23984458.252    -6327975.732 8  -4906991.88045  23984457.336    23984471.4274
 02  1 26  2 36  0.0000000  0  9 26 10 18 06 23 30 17 15 22
  22618593.095   -12122843.404 8  -9417305.25746  22618593.064    22618603.2904
  22831598.035   -14232212.440 8 -11073743.96646  22831597.084    22831606.9154
  22520087.299   -15115657.461 8 -11747077.33246  22520086.718    22520096.3974
  20252024.803   -30466435.076 9 -23725062.77148  20252024.485    20252031.9854
  20547078.073   -23967526.903 9 -18652550.40948  20547077.434    20547085.4244
  22850024.568   -13831559.868 8 -10762097.14946  22850024.707    22850035.3194
  21607060.311   -21477952.394 9 -16706587.19147  21607059.614    21607068.8574
  22305519.192   -17502252.396 8 -13597377.00246  22305518.351    22305529.1684
  23974245.539    -6381643.246 8  -4948810.48145  23974244.616    23974258.6904
 02  1 26  2 36 30.0000000  0  9 26 10 18 06 23 30 17 15 22
  22604992.405   -12194315.008 8  -9472997.25646  22604992.350    22605002.5594
  22849606.191   -14137579.029 8 -11000003.66946  22849605.217    22849615.0424
  22502518.630   -15207980.704 8 -11819017.36746  22502518.071    22502527.6964
  20251543.785   -30468962.499 9 -23727032.14748  20251543.468    20251550.9624
  20545305.172   -23976843.297 9 -18659809.86648  20545304.542    20545312.5044
  22868729.401   -13733265.782 8 -10685504.43046  22868729.548    22868740.1444
  21599593.710   -21517189.247 9 -16737161.27047  21599593.033    21599602.2494
  22293988.199   -17562847.725 8 -13644593.99546  22293987.334    22293998.1024
  23964123.439    -6434834.550 8  -4990258.00345  23964122.613    23964136.4104
 02  1 26  2 37  0.0000000  0  9 26 10 18 06 23 30 17 15 22
  22591461.324   -12265420.405 8  -9528403.91946  22591461.327    22591471.4904
  22867656.200   -14042725.635 8 -10926091.95046  22867655.271    22867665.0874
  22485005.188   -15300013.840 8 -11890731.34346  22485004.616    22485014.2144
  20251146.169   -30471051.731 9 -23728660.07648  20251145.854    20251153.3434
  20543627.982   -23985656.854 9 -18666677.50148  20543627.353    20543635.2884
  22887463.516   -13634817.753 8 -10608791.77146  22887463.639    22887474.2944
  21592157.899   -21556264.345 9 -16767609.31047  21592157.221    21592166.4064
  22282487.898   -17623281.630 8 -13691685.21146  22282487.065    22282497.7894
  23954092.088    -6487548.915 8  -5031333.88745  23954091.228    23954105.0024
 02  1 26  2 37 30.0000000  0  9 26 10 18 06 23 30 17 15 22
  22578000.688   -12336156.010 8  -9583522.42546  22578000.666    22578010.7944
  22885747.580   -13947654.883 8 -10852010.86146  22885746.647    22885756.4754
  22467547.331   -15391754.813 8 -11962217.65046  22467546.731    22467556.3364
  20250832.251   -30472701.233 9 -23729945.36048  20250831.931    20250839.4114
  20542046.400   -23993967.799 9 -18673153.49248  20542045.768    20542053.6814
  22906226.415   -13536218.364 8 -10531961.16046  22906226.549    22906237.2254
  21584752.860   -21595177.683 9 -16797931.29547  21584752.187    21584761.3484
  22271018.324   -17683554.012 8 -13738650.56646  22271017.496    22271028.1854
  23944151.727    -6539784.499 8  -5072036.70045  23944150.889    23944164.6204
 02  1 26  2 38  0.0000000  0  9 26 10 18 06 23 30 17 15 22
  22564611.152   -12406518.062 8  -9638349.85746  22564611.135    22564621.2114
  22903879.888   -13852369.140 8 -10777762.25546  22903878.965    22903888.7564
  22450145.527   -15483201.208 8 -12033474.41246  22450144.958    22450154.5184
  20250602.324   -30473909.386 9 -23730886.73848  20250602.010    20250609.4724
  20540560.454   -24001776.250 9 -18679237.92648  20540559.827    20540567.7214
  22925017.584   -13437470.338 8 -10455014.73546  22925017.720    22925028.4164
  21577378.649   -21633928.980 9 -16828127.00947  21577377.972    21577387.1144
  22259579.614   -17743664.380 8 -13785489.66946  22259578.755    22259589.4034
  23934302.850    -6591539.383 8  -5112364.94245  23934302.057    23934315.8264
 02  1 26  2 38 30.0000000  0  9 26 10 18 06 23 30 17 15 22
  22551293.038   -12476504.466 8  -9692884.56946  22551292.985    22551303.1014
  22922052.424   -13756871.977 8 -10703348.91746  22922051.484    22922061.2734
  22432799.913   -15574352.216 8 -12104501.00446  22432799.356    22432808.8914
  20250456.388   -30474676.120 9 -23731484.15348  20250456.081    20250463.5344
  20539169.765   -24009084.005 9 -18684932.21248  20539169.129    20539177.0174
  22943836.268   -13338577.655 8 -10377955.59146  22943836.433    22943847.1634
  21570035.005   -21672519.669 9 -16858197.58247  21570034.336    21570043.4294
  22248171.478   -17803614.049 8 -13832203.55746  22248170.602    22248181.1974
  23924545.592    -6642813.334 7  -5152318.43645  23924544.753    23924558.4384
 02  1 26  2 39  0.0000000  0  9 26 10 18 06 23 30 17 15 22
  22538047.307   -12546110.317 8  -9747122.74946  22538047.295    22538057.4274
  22940265.039   -13661164.489 8 -10628771.68346  22940264.046    22940273.8144
  22415511.140   -15665204.598 8 -12175294.90646  22415510.575    22415520.0784
  20250394.934   -30474998.887 9 -23731735.62048  20250394.614    20250402.0464
  20537874.582   -24015890.015 9 -18690235.53148  20537873.946    20537881.8144
  22962682.289   -13239541.673 8 -10300784.78746  22962682.425    22962693.1544
  21562722.207   -21710948.411 9 -16888141.95847  21562721.549    21562730.5954
  22236794.120   -17863401.532 8 -13878791.06146  22236793.308    22236803.8794
  23914880.401    -6693603.060 7  -5191894.62545  23914879.644    23914893.1454
 02  1 26  2 39 30.0000000  0  9 26 10 18 06 23 30 17 15 22
  22524874.545   -12615333.154 8  -9801062.47646  22524874.544    22524884.5954
  22958516.994   -13565250.008 8 -10554033.14246  22958515.970    22958525.7344
  22398279.387   -15755757.271 8 -12245855.26146  22398278.855    22398288.3144
  20250418.025   -30474877.365 9 -23731640.89148  20250417.708    20250425.1244
  20536674.603   -24022195.680 9 -18695148.96648  20536673.957    20536681.8114
  22981554.782   -13140366.434 8 -10223505.46846  22981554.950    22981565.6404
  21555439.996   -21749216.179 9 -16917960.88947  21555439.330    21555448.3654
  22225447.555   -17923027.545 8 -13925252.72546  22225446.734    22225457.2904
  23905307.502    -6743908.116 7  -5231093.14045  23905306.680    23905320.1334
 02  1 26  2 40  0.0000000  0  9 26 10 18 06 23 30 17 15 22
  22511775.493   -12684168.814 8  -9854700.51446  22511775.442    22511785.4364
  22976807.903   -13469130.527 8 -10479134.88346  22976806.898    22976816.6774
  22381105.204   -15846007.493 8 -12316179.93646  22381104.654    22381114.0934
  20250526.046   -30474309.656 9 -23731198.48448  20250525.713    20250533.1224
  20535569.832   -24028001.005 9 -18699672.53448  20535569.181    20535577.0194
  23000453.425   -13041053.939 8 -10146119.20346  23000453.577    23000464.2644
  21548188.525   -21787322.528 9 -16947654.05247  21548187.860    21548196.8704
  22214131.879   -17982491.365 8 -13971588.01346  22214131.068    22214141.5404
  23895827.251    -6793726.157 7  -5269912.18545  23895826.405    23895839.6964
 02  1 26  2 40 30.0000000  0  9 26 10 18 06 23 30 17 15 22
  22498750.347   -12752615.842 8  -9908035.71746  22498750.319    22498760.2554
  22995136.944   -13372810.679 8 -10404080.47646  22995135.969    22995145.8094
  22363988.580   -15935955.397 8 -12386269.03846  22363988.013    22363997.4394
  20250718.777   -30473296.488 9 -23730408.96648  20250718.459    20250725.8674
  20534559.793   -24033308.464 9 -18703808.15148  20534559.151    20534566.9554
  23019377.267   -12941608.908 8 -10068629.65046  23019377.397    23019388.1324
  21540967.431   -21825269.407 9 -16977222.95147  21540966.729    21540975.7034
  22202846.690   -18041794.955 8 -14017798.45946  22202845.830    22202856.2584
  23886439.537    -6843057.576 7  -5308352.03645  23886438.743    23886452.1614
 02  1 26  2 41  0.0000000  0  9 26 10 18 06 23 30 17 15 22
  22485800.043   -12820669.562 8  -9961064.44746  22485799.985    22485809.9274
  23013503.909   -13276291.875 8 -10328871.04846  23013502.923    23013512.7464
  22346930.053   -16025597.784 8 -12456120.08446  22346929.513    22346938.9054
  20250996.806   -30471835.397 9 -23729270.42448  20250996.487    20251003.8834
  20533644.690   -24038117.130 9 -18707555.10848  20533644.054    20533651.8334
  23038325.981   -12842032.962 8  -9991038.11246  23038326.098    23038336.8554
  21533776.888   -21863055.668 9 -17006666.69947  21533776.197    21533785.1414
  22191592.237   -18100936.999 8 -14063883.02446  22191591.371    22191601.7754
  23877144.948    -6891899.639 7  -5346410.55045  23877144.028    23877157.4784
 02  1 26  2 41 30.0000000  0  9 26 10 18 06 23 30 17 15 22
  22472925.080   -12888327.275 8 -10013784.60346  22472925.038    22472934.9684
  23031908.156   -13179577.029 8 -10253508.87146  23031907.172    23031917.0154
  22329929.991   -16114933.304 8 -12525732.02046  22329929.402    22329938.7354
  20251360.147   -30469925.795 9 -23727782.38048  20251359.825    20251367.2174
  20532824.318   -24042428.076 9 -18710914.22548  20532823.672    20532831.4284
  23057299.010   -12742329.453 8  -9913347.14946  23057299.134    23057309.8664
  21526616.795   -21900681.848 9 -17035985.70147  21526616.124    21526625.0314
  22180368.425   -18159917.670 8 -14109841.83746  22180367.581    22180377.9674
  23867943.647    -6940251.346 7  -5384087.02545  23867942.707    23867956.1504
 02  1 26  2 42  0.0000000  0  9 26 10 18 06 23 30 17 15 22
  22460126.242   -12955585.003 8 -10066193.08046  22460126.209    22460136.0654
  23050349.356   -13082668.067 8 -10177995.42246  23050348.356    23050358.2594
  22312988.708   -16203959.350 8 -12595102.80346  22312988.140    22312997.4314
  20251809.213   -30467565.841 9 -23725943.42048  20251808.894    20251816.2704
  20532098.566   -24046241.670 9 -18713885.79948  20532097.924    20532105.6624
  23076295.837   -12642500.855 8  -9835558.71346  23076295.953    23076306.6544
  21519487.196   -21938147.670 9 -17065179.74547  21519486.510    21519495.3974
  22169175.447   -18218736.479 8 -14155674.52146  22169174.640    22169184.9504
  23858836.124    -6988110.766 7  -5421379.86145  23858835.272    23858848.5294
 02  1 26  2 42 30.0000000  0  9 26 10 18 06 23 30 17 15 22
  22447403.698   -13022441.963 8 -10118289.27946  22447403.666    22447413.4804
  23068826.460   -12985570.044 8 -10102334.66146  23068825.484    23068835.4364
  22296106.192   -16292676.815 8 -12664233.13646  22296105.637    22296114.9104
  20252343.738   -30464756.753 9 -23723754.48748  20252343.415    20252350.7674
  20531466.840   -24049561.022 9 -18716472.24848  20531466.212    20531473.9404
  23095315.398   -12542552.555 8  -9757677.02446  23095315.506    23095326.2304
  21512387.654   -21975455.613 9 -17094250.76247  21512386.994    21512395.8514
  22158012.779   -18277396.012 8 -14201383.09546  22158011.958    22158022.2484
  23849822.097    -7035478.891 7  -5458289.88245  23849821.343    23849834.4554
 02  1 26  2 43  0.0000000  0  9 26 10 18 06 23 30 17 15 22
  22434758.989   -13088890.147 8 -10170066.95946  22434758.950    22434768.6484
  23087340.033   -12888280.584 8 -10026524.72846  23087339.048    23087349.0464
  22279283.715   -16381078.877 8 -12733117.70046  22279283.163    22279292.3914
  20252964.827   -30461492.762 9 -23721211.08348  20252964.505    20252971.8484
  20530929.982   -24052381.929 9 -18718670.30048  20530929.353    20530937.0694
  23114358.068   -12442482.697 8  -9679700.59946  23114358.213    23114368.9764
  21505319.014   -22012601.214 9 -17123195.27847  21505318.328    21505327.1694
  22146881.391   -18335891.402 8 -14246963.76246  22146880.574    22146890.8094
  23840902.778    -7082349.702 7  -5494812.39145  23840902.008    23840915.0654
 02  1 26  2 43 30.0000000  0  9 26 10 18 06 23 30 17 15 22
  22422191.613   -13154931.623 8 -10221527.72046  22422191.570    22422201.2484
  23105888.513   -12790807.489 8  -9950571.69746  23105887.507    23105897.5684
  22262520.569   -16469169.130 8 -12801759.29846  22262520.048    22262529.1994
  20253671.664   -30457778.139 9 -23718316.53348  20253671.345    20253678.6704
  20530486.885   -24054710.337 9 -18720484.58948  20530486.250    20530493.9364
  23133422.411   -12342299.364 8  -9601635.75946  23133422.515    23133433.3214
  21498280.260   -22049589.740 9 -17152017.40347  21498279.581    21498288.3984
  22135780.227   -18394228.052 8 -14292420.72346  22135779.389    22135789.5754
  23832077.384    -7128727.043 7  -5530950.37545  23832076.457    23832089.5014
 02  1 26  2 44  0.0000000  0  9 26 10 18 06 23 30 17 15 22
  22409702.856   -13220559.739 8 -10272666.38546  22409702.826    22409712.4724
  23124472.067   -12693150.110 8  -9874475.06646  23124471.112    23124481.1804
  22245817.736   -16556942.587 8 -12870154.04746  22245817.202    22245826.3034
  20254465.120   -30453608.544 9 -23715067.46648  20254464.796    20254472.1034
  20530137.963   -24056543.706 9 -18721913.13748  20530137.332    20530144.9894
  23152508.416   -12242002.209 8  -9523482.21746  23152508.542    23152519.3424
  21491271.919   -22086418.267 9 -17180714.85847  21491271.253    21491280.0464
  22124709.843   -18452402.659 8 -14337751.42046  22124709.003    22124719.1504
  23823346.635    -7174606.323 7  -5566700.26245  23823345.712    23823358.9884
 02  1 26  2 44 30.0000000  0  9 26 10 18 06 23 30 17 15 22
  22397293.056   -13285773.419 8 -10323482.11346  22397293.057    22397302.6014
  23143089.762   -12595313.310 8  -9798238.63046  23143088.863    23143098.8974
  22229175.147   -16644399.353 8 -12938302.02446  22229174.633    22229183.6814
  20255344.908   -30448985.057 9 -23711464.71348  20255344.577    20255351.8754
  20529882.675   -24057884.992 9 -18722958.22748  20529882.049    20529889.6954
  23171615.073   -12141596.424 8  -9445244.03946  23171615.184    23171626.0354
  21484293.633   -22123088.900 9 -17209289.28247  21484292.984    21484301.7664
  22113669.888   -18510417.361 8 -14382957.51747  22113669.056    22113679.1974
  23814710.555    -7219988.384 7  -5602062.73645  23814709.700    23814722.8504
 02  1 26  2 45  0.0000000  0  9 26 10 18 06 23 30 17 15 22
  22384962.881   -13350568.567 8 -10373971.70746  22384962.813    22384972.3774
  23161741.315   -12497298.374 8  -9721863.38846  23161740.501    23161750.5424
  22212593.345   -16731536.829 8 -13006201.20646  22212592.832    22212601.8474
  20256311.439   -30443905.639 9 -23707506.68848  20256311.118    20256318.4034
  20529721.060   -24058734.091 9 -18723619.80648  20529720.420    20529728.0554
  23190742.012   -12041083.800 8  -9366922.60146  23190742.113    23190753.0344
  21477345.580   -22159600.961 9 -17237740.15047  21477344.914    21477353.6674
  22102660.564   -18568270.931 8 -14428038.06147  22102659.757    22102669.8834
  23806169.576    -7264870.972 7  -5637036.00945  23806168.733    23806181.7754
 02  1 26  2 45 30.0000000  0  9 26 10 18 06 23 30 17 15 22
  22372713.045   -13414941.466 8 -10424132.29346  22372712.943    22372722.4634
  23180426.433   -12399107.584 8  -9645351.13246  23180425.586    23180435.6504
  22196072.745   -16818352.844 8 -13073849.89547  22196072.189    22196081.1784
  20257365.015   -30438369.045 9 -23703192.41948  20257364.688    20257371.9714
  20529653.057   -24059091.277 9 -18723898.07248  20529652.408    20529660.0224
  23209888.853   -11940466.844 8  -9288519.88046  23209888.968    23209899.9054
  21470427.751   -22195954.117 9 -17266067.19047  21470427.063    21470435.7844
  22091681.977   -18625963.103 8 -14472992.83947  22091681.178    22091691.2824
  23797723.903    -7309252.458 7  -5671618.81245  23797723.059    23797736.1164
 02  1 26  2 46  0.0000000  0  9 26 10 18 06 23 30 17 15 22
  22360543.763   -13478890.833 8 -10473962.84846  22360543.678    22360553.1644
  23199144.216   -12300745.566 8  -9568705.42546  23199143.287    23199153.2854
  22179613.286   -16904847.381 8 -13141248.09147  22179612.694    22179621.6674
  20258505.427   -30432375.990 9 -23698522.46848  20258505.099    20258512.3574
  20529678.107   -24058959.209 9 -18723795.10248  20529677.480    20529685.0734
  23229054.701   -11839750.346 8  -9210039.59146  23229054.780    23229065.7514
  21463539.678   -22232150.430 9 -17294272.01947  21463539.011    21463547.7154
  22080733.782   -18683495.708 8 -14517823.28147  22080732.967    22080743.0644
  23789373.574    -7353133.366 7  -5705811.56445  23789372.700    23789385.6184
 02  1 26  2 46 30.0000000  0  9 26 10 18 06 23 30 17 15 22
  22348456.047   -13542411.750 8 -10523459.54946  22348455.966    22348465.3974
  23217894.390   -12202212.943 8  -9491926.79446  23217893.387    23217903.4294
  22163215.616   -16991017.041 8 -13208393.13347  22163215.056    22163223.9854
  20259733.198   -30425923.706 9 -23693494.67748  20259732.879    20259740.1304
  20529796.490   -24058336.941 9 -18723310.15948  20529795.868    20529803.4484
  23248239.240   -11738935.438 8  -9131482.61946  23248239.349    23248250.3274
  21456681.879   -22268188.126 9 -17322353.25547  21456681.199    21456689.8964
  22069816.223   -18740867.078 8 -14562528.07847  22069815.425    22069825.4814
  23781119.060    -7396510.688 7  -5739611.91145  23781118.225    23781131.0694
 02  1 26  2 47  0.0000000  0  9 26 10 18 06 23 30 17 15 22
  22336450.243   -13605502.024 8 -10572620.68646  22336450.158    22336459.5464
  23236676.303   -12103513.217 8  -9415017.96146  23236675.255    23236685.3464
  22146879.973   -17076860.938 8 -13275284.33347  22146879.405    22146888.2964
  20261048.375   -30419012.331 9 -23688109.15248  20261048.058    20261055.2924
  20530007.751   -24057226.458 9 -18722444.78648  20530007.132    20530014.6914
  23267441.741   -11638025.929 8  -9052851.93046  23267441.875    23267452.8984
  21449853.987   -22304068.512 9 -17350311.91147  21449853.306    21449861.9874
  22058929.148   -18798078.177 8 -14607107.98847  22058928.352    22058938.4164
  23772960.381    -7439384.241 7  -5773019.71745  23772959.493    23772972.4064
 02  1 26  2 47 30.0000000  0  9 26 10 18 06 23 30 17 15 22
  22324527.160   -13668157.854 8 -10621443.29846  22324527.052    22324536.4294
  23255489.732   -12004648.087 8  -9337980.22646  23255488.710    23255498.8034
  22130606.699   -17162376.737 8 -13341919.87247  22130606.150    22130615.0114
  20262451.192   -30411640.260 9 -23682364.64448  20262450.877    20262458.0964
  20530311.917   -24055627.924 9 -18721199.11348  20530311.301    20530318.8434
  23286661.804   -11537024.173 8  -8974149.36246  23286661.959    23286672.9674
  21443056.144   -22339791.003 9 -17378147.52947  21443055.482    21443064.1624
  22048072.715   -18855128.433 8 -14651562.58347  22048071.908    22048081.9424
  23764897.851    -7481752.145 8  -5806033.50745  23764896.955    23764909.9474
 02  1 26  2 48  0.0000000  0  9 26 10 18 06 23 30 17 15 22
  22312687.240   -13730376.528 8 -10669925.26546  22312687.138    22312696.4764
  23274334.098   -11905620.408 8  -9260815.83446  23274333.114    23274343.2114
  22114396.074   -17247563.130 8 -13408298.72847  22114395.563    22114404.4164
  20263941.813   -30403806.991 9 -23676260.76048  20263941.485    20263948.7054
  20530708.686   -24053542.576 9 -18719574.11148  20530708.067    20530715.5964
  23305898.836   -11435933.517 8  -8895377.52646  23305898.951    23305909.9794
  21436288.266   -22375356.173 9 -17405860.56147  21436287.597    21436296.2264
  22037246.888   -18912017.971 8 -14695891.94847  22037246.062    22037256.0524
  23756931.678    -7523613.823 8  -5838652.85345  23756930.789    23756943.7634
 02  1 26  2 48 30.0000000  0  9 26 10 18 06 23 30 17 15 22
  22300931.064   -13792154.883 8 -10718064.12846  22300931.007    22300940.3084
  23293208.904   -11806432.959 8  -9183526.94746  23293207.958    23293218.0214
  22098248.518   -17332418.461 8 -13474419.61947  22098247.982    22098256.8544
  20265520.366   -30395511.573 9 -23669796.76748  20265520.052    20265527.2404
  20531197.917   -24050971.389 9 -18717570.53448  20531197.298    20531204.8144
  23325152.247   -11334756.648 8  -8816538.49946  23325152.343    23325163.4374
  21429550.303   -22410764.161 9 -17433451.11647  21429549.622    21429558.2474
  22026451.551   -18968747.108 8 -14740096.31847  22026450.706    22026460.6924
  23749062.285    -7564967.815 8  -5870876.60545  23749061.347    23749074.1704
 02  1 26  2 49  0.0000000  0  9 26 10 18 06 23 30 17 15 22
  22289259.224   -13853490.260 8 -10765857.82146  22289259.187    22289268.4334
  23312113.493   -11707088.799 8  -9106115.96346  23312112.550    23312122.5864
  22082164.202   -17416941.641 8 -13540281.68847  22082163.687    22082172.4824
  20267186.916   -30386753.622 9 -23662972.35648  20267186.579    20267193.7614
  20531779.335   -24047915.771 9 -18715189.48148  20531778.726    20531786.2334
  23344421.353   -11233497.095 8  -8737635.06746  23344421.453    23344432.6164
  21422842.089   -22446015.605 9 -17460919.69247  21422841.416    21422850.0364
  22015686.661   -19025316.286 8 -14784176.06047  22015685.828    22015695.8014
  23741289.516    -7605813.757 8  -5902704.45945  23741288.568    23741301.3064
 02  1 26  2 49 30.0000000  0  9 26 10 18 06 23 30 17 15 22
  22277672.298   -13914379.691 8 -10813304.02046  22277672.209    22277681.4504
  23331047.518   -11607590.319 8  -9028584.71246  23331046.543    23331056.6104
  22066143.368   -17501131.005 8 -13605883.63647  22066142.838    22066151.5944
  20268941.667   -30377532.157 9 -23655786.76948  20268941.334    20268948.5074
  20532452.807   -24044376.535 9 -18712431.58048  20532452.179    20532459.6834
  23363705.571   -11132157.717 8  -8658669.43146  23363705.683    23363716.9254
  21416163.719   -22481110.411 9 -17488266.21247  21416163.039    21416171.6214
  22004952.268   -19081725.372 8 -14828131.05247  22004951.439    22004961.3664
  23733613.651    -7646150.303 8  -5934135.38445  23733612.692    23733625.3514
 02  1 26  2 50  0.0000000  0  9 26 10 18 06 23 30 17 15 22
  22266170.832   -13974819.705 8 -10860400.01946  22266170.781    22266180.0004
  23350010.425   -11507939.711 8  -8950934.91946  23350009.395    23350019.4614
  22050186.485   -17584984.398 8 -13671223.79647  22050185.954    22050194.6464
  20270784.830   -30367846.203 9 -23648239.24248  20270784.498    20270791.6574
  20533218.115   -24040354.477 9 -18709297.46248  20533217.499    20533224.9884
  23383004.568   -11030741.093 8  -8579643.59446  23383004.703    23383015.9224
  21409515.120   -22516048.560 9 -17515490.65947  21409514.442    21409523.0104
  21994248.330   -19137974.218 8 -14871961.18247  21994247.529    21994257.4334
  23726034.935    -7685976.287 8  -5965168.47945  23726034.009    23726046.5394
 02  1 26  2 50 30.0000000  0  9 26 10 18 06 23 30 17 15 22
  22254755.596   -14034806.716 8 -10907143.02746  22254755.544    22254764.7494
  23369001.898   -11408138.691 8  -8873167.92745  23369000.887    23369011.0704
  22034293.895   -17668499.918 8 -13736300.67547  22034293.356    22034302.0174
  20272716.677   -30357694.237 9 -23640328.59548  20272716.341    20272723.4964
  20534075.245   -24035850.011 9 -18705787.44448  20534074.626    20534082.0874
  23402317.757   -10929249.709 8  -8500559.52446  23402317.882    23402329.1354
  21402896.425   -22550829.757 9 -17542592.80247  21402895.734    21402904.2894
  21983575.082   -19194062.030 8 -14915665.84547  21983574.278    21983584.1414
  23718553.638    -7725290.160 8  -5995802.49846  23718552.718    23718565.1824
 02  1 26  2 51  0.0000000  0  9 26 10 18 06 23 30 17 15 22
  22243427.045   -14094338.286 8 -10953531.14846  22243426.966    22243436.1794
  23388021.368   -11308190.486 8  -8795286.26145  23388020.420    23388030.6294
  22018465.840   -17751676.242 8 -13801113.24947  22018465.314    22018473.9194
  20274737.223   -30347076.055 9 -23632054.66248  20274736.882    20274744.0434
  20535023.931   -24030864.558 9 -18701902.62648  20535023.319    20535030.7434
  23421644.663   -10827686.770 8  -8421419.68346  23421644.762    23421656.0144
  21396307.460   -22585454.637 9 -17569573.13847  21396306.765    21396315.2914
  21972932.404   -19249989.218 8 -14959245.34147  21972931.576    21972941.3944
  23711169.857    -7764091.427 8  -6026037.09846  23711168.910    23711181.4224
 02  1 26  2 51 30.0000000  0  9 26 10 18 06 23 30 17 15 22
  22232185.570   -14153411.974 8 -10999562.47746  22232185.528    22232194.6974
  23407068.347   -11208098.069 8  -8717292.21245  23407067.434    23407077.6144
  22002702.538   -17834512.286 8 -13865660.67147  22002702.017    22002710.5504
  20276846.553   -30335991.273 9 -23623417.14848  20276846.211    20276853.3494
  20536063.810   -24025399.699 9 -18697644.24748  20536063.179    20536070.6144
  23440984.499   -10726055.796 8  -8342226.83045  23440984.574    23440995.8334
  21389748.139   -22619923.802 9 -17596432.14247  21389747.446    21389755.9524
  21962320.137   -19305756.499 8 -15002700.23947  21962319.303    21962329.0864
  23703883.824    -7802379.362 8  -6055871.70246  23703882.814    23703895.3464
 02  1 26  2 52  0.0000000  0  9 26 10 18 06 23 30 17 15 22
  22221032.122   -14212023.227 8 -11045233.46146  22221032.100    22221041.2254
  23426142.723   -11107862.190 8  -8639186.36445  23426141.739    23426151.9624
  21987004.587   -17917005.146 8 -13929940.66947  21987004.024    21987012.5584
  20279045.083   -30324437.845 9 -23614414.44848  20279044.749    20279051.8774
  20537194.993   -24019455.134 9 -18693012.06748  20537194.366    20537201.7824
  23460336.920   -10624358.293 8  -8262982.12745  23460337.096    23460348.2854
  21383218.662   -22654236.010 9 -17623168.84747  21383217.966    21383226.4514
  21951738.525   -19361362.565 8 -15046029.51147  21951737.709    21951747.4564
  23696695.810    -7840151.918 8  -6085304.69646  23696694.870    23696707.3014
 02  1 26  2 52 30.0000000  0  9 26 10 18 06 23 30 17 15 22
  22209966.649   -14270172.462 8 -11090544.43146  22209966.620    22209975.6904
  23445243.070   -11007489.164 8  -8560973.64645  23445242.097    23445252.3174
  21971371.569   -17999156.594 8 -13993954.63247  21971371.007    21971379.5254
  20281332.303   -30312418.289 9 -23605048.53448  20281331.966    20281339.0744
  20538416.610   -24013035.218 9 -18688009.48848  20538415.991    20538423.3944
  23479700.938   -10522600.392 8  -8183690.35545  23479701.071    23479712.2964
  21376718.406   -22688394.694 9 -17649785.92247  21376717.706    21376726.1884
  21941186.994   -19416810.677 8 -15089235.69947  21941186.173    21941195.9344
  23689605.520    -7877411.191 8  -6114337.72946  23689604.568    23689616.9204
 02  1 26  2 53  0.0000000  0  9 26 10 18 06 23 30 17 15 22
  22198990.358   -14327852.725 8 -11135489.97046  22198990.309    22198999.3754
  23464369.864   -10906977.239 8  -8482652.70445  23464368.985    23464379.1174
  21955804.643   -18080960.741 8 -14057697.97647  21955804.073    21955812.5664
  20283709.130   -30299927.819 9 -23595315.67548  20283708.801    20283715.9074
  20539729.198   -24006137.223 9 -18682634.37848  20539728.582    20539736.0034
  23499076.662   -10420781.052 8  -8104350.71545  23499076.828    23499087.9914
  21370248.135   -22722396.027 9 -17676280.38747  21370247.436    21370255.8784
  21930666.345   -19472096.734 8 -15132315.60947  21930665.516    21930675.2374
  23682613.746    -7914152.349 8  -6142967.03445  23682612.799    23682625.1514
 02  1 26  2 53 30.0000000  0  9 26 10 18 06 23 30 17 15 22
  22188103.340   -14385063.712 8 -11180069.83846  22188103.306    22188112.3924
  23483522.132   -10806331.511 8  -8404227.47845  23483521.246    23483531.3334
  21940303.563   -18162418.813 8 -14121171.64747  21940303.005    21940311.4694
  20286175.193   -30286968.368 9 -23585217.37048  20286174.883    20286181.9794
  20541132.077   -23998764.876 9 -18676889.64048  20541131.451    20541138.8574
  23518462.956   -10318905.764 8  -8024967.47345  23518463.106    23518474.3024
  21363807.280   -22756242.705 9 -17702654.33747  21363806.565    21363814.9884
  21920176.003   -19527223.545 8 -15175271.41747  21920175.159    21920184.8264
  23675720.251    -7950377.250 8  -6171194.06145  23675719.301    23675731.6404
 02  1 26  2 54  0.0000000  0  9 26 10 18 06 23 30 17 15 22
  22177306.301   -14441802.127 8 -11224281.47546  22177306.270    22177315.2854
  23502699.447   -10705553.880 8  -8325699.50245  23502698.590    23502708.7304
  21924868.664   -18243529.029 8 -14184374.27247  21924868.110    21924876.5214
  20288730.717   -30273538.898 9 -23574752.82148  20288730.394    20288737.4944
  20542625.096   -23990918.752 9 -18670775.72748  20542624.477    20542631.8764
  23537859.483   -10216977.048 8  -7945542.61345  23537859.628    23537870.7944
  21357395.858   -22789934.488 9 -17728907.59147  21357395.163    21357403.5704
  21909715.983   -19582190.536 8 -15218102.70247  21909715.160    21909724.8014
  23668925.189    -7986084.456 8  -6199017.67545  23668924.295    23668936.5604
 02  1 26  2 54 30.0000000  0  9 26 10 18 06 23 30 17 15 22
  22166600.047   -14498063.487 8 -11268121.37146  22166599.992    22166609.0004
  23521901.754   -10604645.605 8  -8247069.70745  23521900.886    23521910.9394
  21909500.578   -18324288.431 8 -14247303.53347  21909500.019    21909508.3544
  20291376.075   -30259637.256 9 -23563920.34348  20291375.763    20291382.8544
  20544208.373   -23982598.438 9 -18664292.31348  20544207.741    20544215.1484
  23557265.950   -10114996.185 8  -7866077.12146  23557266.064    23557277.3234
  21351014.191   -22823470.089 9 -17755039.15047  21351013.501    21351021.8834
  21899286.698   -19636996.201 8 -15260808.27647  21899285.880    21899295.5214
  23662229.189    -8021271.717 8  -6226436.13945  23662228.221    23662240.4624
 02  1 26  2 55  0.0000000  0  9 26 10 18 06 23 30 17 15 22
  22155984.618   -14553847.284 8 -11311589.14946  22155984.581    22155993.5774
  23541127.983   -10503611.768 8  -8168342.07345  23541127.067    23541137.0724
  21894199.102   -18404697.680 8 -14309959.94847  21894198.562    21894206.8464
  20294110.954   -30245265.187 9 -23552721.29748  20294110.640    20294117.7364
  20545881.192   -23973807.393 9 -18657442.09548  20545880.573    20545887.9774
  23576681.256   -10012968.363 8  -7786575.03745  23576681.363    23576692.6864
  21344661.796   -22856851.756 9 -17781050.77047  21344661.109    21344669.4804
  21888887.615   -19691643.161 8 -15303390.19347  21888886.799    21888896.3764
  23655631.838    -8055940.441 8  -6253450.54645  23655630.868    23655643.0974
 02  1 26  2 55 30.0000000  0  9 26 10 18 06 23 30 17 15 22
  22145460.852   -14609149.521 8 -11354681.67946  22145460.847    22145469.7834
  23560377.870   -10402453.161 8  -8089517.21445  23560376.980    23560386.9174
  21878964.815   -18484753.978 8 -14372341.33547  21878964.268    21878972.5164
  20296935.720   -30230420.775 9 -23541154.19248  20296935.404    20296942.5114
  20547643.596   -23964545.707 9 -18650225.14248  20547642.973    20547650.3724
  23596105.147    -9910895.511 8  -7707037.87745  23596105.326    23596116.6914
  21338338.855   -22890078.641 9 -17806941.76947  21338338.176    21338346.5224
  21878518.926   -19746130.236 8 -15345847.51747  21878518.127    21878527.6784
  23649133.494    -8090088.709 7  -6280059.39945  23649132.546    23649144.7944
 02  1 26  2 56  0.0000000  0  9 26 10 18 06 23 30 17 15 22
  22135029.496   -14663966.247 8 -11397395.89746  22135029.448    22135038.3514
  23579651.284   -10301170.892 8  -8010595.99645  23579650.418    23579660.3364
  21863798.086   -18564455.058 8 -14434445.93347  21863797.558    21863805.7624
  20299850.702   -30215102.260 9 -23529217.65548  20299850.386    20299857.4904
  20549495.524   -23954813.427 9 -18642641.49448  20549494.901    20549502.3154
  23615537.325    -9808779.123 8  -7627466.78545  23615537.543    23615548.8684
  21332045.620   -22923149.602 9 -17832711.27147  21332044.943    21332053.2644
  21868180.996   -19800456.094 8 -15388179.21447  21868180.164    21868189.6654
  23642734.472    -8123714.730 7  -6306261.29845  23642733.567    23642745.7354
 02  1 26  2 56 30.0000000  0 10 26 10 18 06 23 30 17 15 22 21
  22124690.508   -14718297.534 8 -11439731.84546  22124690.446    22124699.3384
  23598947.151   -10199770.713 8  -7931582.90145  23598946.319    23598956.1444
  21848698.707   -18643802.262 8 -14496274.78447  21848698.181    21848706.3414
  20302855.460   -30199312.012 9 -23516913.53548  20302855.146    20302862.2504
  20551436.198   -23944614.872 9 -18634694.51448  20551435.587    20551442.9874
  23634976.682    -9706625.214 8  -7547866.46545  23634976.826    23634988.2154
  21325781.403   -22956067.935 9 -17858361.83947  21325780.709    21325789.0064
  21857873.104   -19854624.104 8 -15430387.91847  21857872.270    21857881.7024
  23636434.460    -8156820.506 7  -6332057.80445  23636433.538    23636445.7514
  24865309.717    -4395193.554 7  -3090361.33745  24865309.126    24865325.3494
 02  1 26  2 57  0.0000000  0 10 26 10 18 06 23 30 17 15 22 21
  22114444.143   -14772141.866 8 -11481688.35346  22114444.109    22114452.9584
  23618264.755   -10098256.160 8  -7852480.67345  23618263.856    23618273.7934
  21833666.715   -18722795.290 8 -14557827.64947  21833666.178    21833674.3154
  20305949.869   -30183050.705 9 -23504242.35648  20305949.564    20305956.6464
  20553465.141   -23933952.451 9 -18626386.08348  20553464.523    20553471.9014
  23654422.352    -9604437.851 8  -7468240.08245  23654422.445    23654433.9974
  21319545.985   -22988834.808 9 -17883894.39147  21319545.306    21319553.5724
  21847594.926   -19908635.563 8 -15472474.63047  21847594.105    21847603.5044
  23630233.337    -8189406.701 7  -6357449.46145  23630232.391    23630244.5854
  24847586.027    -4488330.743 7  -3162935.46845  24847585.465    24847601.5584
 02  1 26  2 57 30.0000000  0 10 26 10 18 06 23 30 17 15 22 21
  22104292.134   -14825490.818 8 -11523258.84046  22104292.077    22104300.9154
  23637604.738    -9996624.016 8  -7773286.81945  23637603.877    23637613.7454
  21818703.469   -18801426.915 8 -14619098.89547  21818702.966    21818711.0844
  20309135.092   -30166312.034 9 -23491199.20548  20309134.769    20309141.8734
  20555583.214   -23922821.748 9 -18617712.74848  20555582.596    20555589.9594
  23673874.992    -9502214.109 8  -7388585.36445  23673874.997    23673886.7024
  21313340.471   -23021444.804 9 -17909304.70747  21313339.782    21313348.0284
  21837347.743   -19962484.361 8 -15514434.60047  21837346.929    21837356.2834
  23624132.407    -8221466.974 7  -6382431.28745  23624131.295    23624143.3364
  24829889.679    -4581324.862 8  -3235398.11845  24829889.036    24829905.0764
 02  1 26  2 58  0.0000000  0 10 26 10 18 06 23 30 17 15 22 21
  22094234.676   -14878342.643 8 -11564441.95446  22094234.600    22094243.4144
  23656966.429    -9894877.843 8  -7694004.11445  23656965.524    23656975.4124
  21803809.052   -18879697.179 9 -14680088.56247  21803808.528    21803816.6124
  20312411.093   -30149096.489 9 -23477784.45948  20312410.761    20312417.8554
  20557789.895   -23911225.251 9 -18608676.45848  20557789.269    20557796.6294
  23693333.614    -9399958.075 7  -7308905.48445  23693333.726    23693345.4634
  21307164.552   -23053899.102 9 -17934593.70147  21307163.867    21307172.0944
  21827131.233   -20016171.793 8 -15556268.84147  21827130.422    21827139.7674
  23618131.359    -8253001.567 7  -6407003.50345  23618130.379    23618142.3594
  24812220.587    -4674175.380 7  -3307748.87945  24812219.898    24812235.9964
 02  1 26  2 58 30.0000000  0 10 26 10 18 06 23 30 17 15 22 21
  22084272.055   -14930696.125 8 -11605236.74446  22084271.987    22084280.7694
  23676348.994    -9793021.368 8  -7614635.46845  23676348.115    23676358.0714
  21788983.428   -18957605.796 9 -14740796.42147  21788982.911    21788990.9714
  20315777.653   -30131405.020 9 -23463998.87048  20315777.330    20315784.4114
  20560084.707   -23899165.738 9 -18599279.38248  20560084.070    20560091.4374
  23712797.621    -9297674.015 8  -7229203.75745  23712797.791    23712809.6114
  21301017.984   -23086199.352 9 -17959762.67047  21301017.323    21301025.4884
  21816945.151   -20069699.444 8 -15597978.57847  21816944.334    21816953.6444
  23612230.156    -8284011.502 7  -6431166.87845  23612229.045    23612241.0834
  24794578.703    -4766882.417 8  -3379987.83445  24794578.082    24794593.8844
 02  1 26  2 59  0.0000000  0 10 26 10 18 06 23 30 17 15 22 21
  22074404.809   -14982548.534 8 -11645641.08846  22074404.738    22074413.4714
  23695752.175    -9691057.010 7  -7535182.77145  23695751.283    23695761.3414
  21774226.912   -19035151.455 9 -14801221.45947  21774226.367    21774234.3734
  20319234.863   -30113237.033 9 -23449841.95948  20319234.547    20319241.6184
  20562467.386   -23886644.284 9 -18589522.34348  20562466.771    20562474.1304
  23732266.511    -9195364.861 8  -7149482.48145  23732266.653    23732278.5814
  21294900.741   -23118345.472 9 -17984811.53547  21294900.068    21294908.2114
  21806789.515   -20123067.291 8 -15639563.79447  21806788.705    21806797.9224
  23606428.855    -8314495.948 7  -6454920.79145  23606427.810    23606439.8244
  24776964.480    -4859444.583 8  -3452113.90845  24776963.806    24776979.4834
 02  1 26  2 59 30.0000000  0 10 26 10 18 06 23 30 17 15 22 21
  22064633.564   -15033896.307 8 -11685652.21346  22064633.522    22064642.1984
  23715175.522    -9588986.466 7  -7455647.31945  23715174.557    23715184.7914
  21759539.803   -19112332.139 9 -14861362.10547  21759539.255    21759547.2224
  20322782.994   -30094591.451 9 -23435312.90448  20322782.680    20322789.7364
  20564937.921   -23873661.409 9 -18579405.76248  20564937.290    20564944.6404
  23751739.817    -9093032.533 8  -7069743.14945  23751739.923    23751751.8424
  21288812.920   -23150336.846 9 -18009739.82147  21288812.242    21288820.3514
  21796664.517   -20176274.267 8 -15681023.66247  21796663.674    21796672.8584
  23600727.975    -8344453.582 7  -6478264.20945  23600726.937    23600738.9824
  24759378.321    -4951859.742 7  -3524125.41545  24759377.560    24759393.1214
 02  1 26  3  0  0.0000000  0 10 26 10 18 06 23 30 17 15 22 21
  22054958.665   -15084737.839 8 -11725268.85646  22054958.610    22054967.2554
  23734618.507    -9486813.155 7  -7376031.79845  23734617.506    23734627.7854
  21744922.267   -19189147.324 9 -14921217.94447  21744921.724    21744929.6344
  20326421.895   -30075468.753 9 -23420412.06748  20326421.591    20326428.6334
  20567495.782   -23860219.615 9 -18568931.57848  20567495.159    20567502.4844
  23771216.732    -8990681.088 8  -6989988.92445  23771216.839    23771228.8304
  21282754.309   -23182174.777 9 -18034548.54047  21282753.636    21282761.7284
  21786569.810   -20229321.591 8 -15722359.11447  21786568.982    21786578.1754
  23595127.170    -8373885.078 7  -6501197.64745  23595126.115    23595137.9884
  24741820.140    -5044127.197 7  -3596021.82145  24741819.575    24741834.8584
 02  1 26  3  0 30.0000000  0 10 26 10 18 06 23 30 17 15 22 21
  22045380.725   -15135069.793 8 -11764488.43046  22045380.661    22045389.2994
  23754080.683    -9384538.877 7  -7296337.60045  23754079.673    23754089.9974
  21730374.628   -19265594.981 9 -14980787.38947  21730374.075    21730381.9544
  20330151.825   -30055867.777 9 -23405138.54548  20330151.509    20330158.5404
  20570140.845   -23846319.545 9 -18558100.29748  20570140.218    20570147.5284
  23790696.861    -8888312.692 8  -6910221.47945  23790696.963    23790709.0144
  21276725.056   -23213858.520 9 -18059237.10047  21276724.380    21276732.4384
  21776505.638   -20282208.608 8 -15763569.66047  21776504.820    21776513.9744
  23589626.848    -8402788.786 7  -6523719.83145  23589625.822    23589637.5604
  24724290.343    -5136245.315 7  -3667801.86045  24724289.820    24724305.1744
 02  1 26  3  1  0.0000000  0 10 26 10 18 06 23 30 17 15 22 21
  22035900.085   -15184890.405 8 -11803309.55446  22035899.994    22035908.6684
  23773561.398    -9282166.902 7  -7216567.28245  23773560.406    23773570.7494
  21715896.994   -19341674.720 9 -15040070.15147  21715896.448    21715904.2924
  20333972.656   -30035788.983 9 -23389492.70548  20333972.354    20333979.3714
  20572872.645   -23831963.593 9 -18546913.78848  20572872.007    20572879.3124
  23810179.600    -8785930.822 8  -6830443.54845  23810179.745    23810191.7664
  21270724.918   -23245389.199 9 -18083806.39747  21270724.234    21270732.2924
  21766471.866   -20334936.078 8 -15804655.89047  21766471.036    21766480.1734
  23584226.879    -8431165.298 7  -6545831.21145  23584225.831    23584237.5194
  24706789.155    -5228213.426 7  -3739465.01645  24706788.487    24706804.0374
 02  1 26  3  1 30.0000000  0 10 26 10 18 06 23 30 17 15 22 21
  22026517.471   -15234195.781 8 -11841729.20246  22026517.420    22026526.0554
  23793060.557    -9179698.202 8  -7136721.59645  23793059.588    23793069.9434
  21701489.874   -19417384.071 9 -15099064.30447  21701489.332    21701497.1454
  20337884.731   -30015230.697 9 -23373473.22948  20337884.406    20337891.4464
  20575691.182   -23817151.762 9 -18535372.04548  20575690.536    20575697.8324
  23829664.551    -8683537.305 8  -6750656.52945  23829664.746    23829676.6294
  21264754.144   -23276765.534 9 -18108255.43147  21264753.468    21264761.5314
  21756468.638   -20387502.916 8 -15845616.95747  21756467.811    21756476.9184
  23578927.595    -8459012.787 7  -6567530.37245  23578926.499    23578938.1664
  24689316.973    -5320028.748 7  -3811009.10545  24689316.352    24689331.4514
 02  1 26  3  2  0.0000000  0 10 26 10 18 06 23 30 17 15 22 21
  22017233.269   -15282984.032 8 -11879745.89446  22017233.227    22017241.7984
  23812577.649    -9077135.573 8  -7056802.71845  23812576.686    23812587.0224
  21687153.418   -19492722.058 9 -15157769.08747  21687152.877    21687160.6694
  20341888.028   -29994193.031 9 -23357080.21848  20341887.714    20341894.7604
  20578596.102   -23801886.113 9 -18523476.68248  20578595.465    20578602.7254
  23849151.123    -8581135.451 8  -6670863.02045  23849151.246    23849163.2134
  21258812.600   -23307988.330 9 -18132584.80547  21258811.911    21258819.9514
  21746495.900   -20439909.676 8 -15886453.28047  21746495.085    21746504.1384
  23573728.876    -8486331.357 7  -6588817.39445  23573727.878    23573739.3684
  24671874.113    -5411690.550 7  -3882433.59545  24671873.458    24671888.4554
 02  1 26  3  2 30.0000000  0 10 26 10 18 06 23 30 17 15 22 21
  22008047.639   -15331254.361 8 -11917359.01646  22008047.596    22008056.1244
  23832111.779    -8974483.590 8  -6976814.17745  23832110.723    23832121.0614
  21672887.451   -19567689.574 9 -15216185.18247  21672886.903    21672894.6734
  20345982.268   -29972677.634 9 -23340314.94448  20345981.960    20345988.9864
  20581586.761   -23786169.953 9 -18511230.27048  20581586.125    20581593.3674
  23868638.332    -8478730.181 8  -6591066.84045  23868638.505    23868650.5294
  21252899.876   -23339059.484 9 -18156796.01747  21252899.194    21252907.2164
  21736553.196   -20492158.385 8 -15927166.45447  21736552.378    21736561.3694
  23568630.486    -8513122.579 8  -6609693.47545  23568629.538    23568640.9724
  24654460.265    -5503199.633 7  -3953739.06745  24654459.874    24654474.4894
 02  1 26  3  3  0.0000000  0 10 26 10 18 06 23 30 17 15 22 21
  21998961.697   -15379000.879 8 -11954563.97346  21998961.676    21998970.1234
  23851663.050    -8871741.038 8  -6896755.07245  23851662.057    23851672.3854
  21658692.902   -19642281.845 9 -15274308.89047  21658692.370    21658700.1064
  20350168.107   -29950680.663 9 -23323174.42248  20350167.782    20350174.7974
  20584663.537   -23770001.061 9 -18498631.08248  20584662.905    20584670.1484
  23888126.377    -8376320.578 8  -6511267.29845  23888126.534    23888138.5334
  21247016.641   -23369975.777 9 -18180886.56547  21247015.977    21247023.9894
  21726641.290   -20544245.544 8 -15967753.75247  21726640.460    21726649.4074
  23563633.365    -8539382.479 8  -6630155.57145  23563632.397    23563643.6774
  24637076.326    -5594551.373 7  -4024921.92045  24637075.878    24637090.5264
 02  1 26  3  3 30.0000000  0 10 26 10 18 06 23 30 17 15 22 21
  21989975.404   -15426223.527 8 -11991360.72146  21989975.407    21989983.8064
  23871230.720    -8768912.728 8  -6816629.15545  23871229.721    23871240.0254
  21644569.581   -19716500.036 9 -15332141.11247  21644569.057    21644576.7084
  20354445.193   -29928204.312 9 -23305660.35648  20354444.871    20354451.8764
  20587825.717   -23753383.389 9 -18485682.20148  20587825.085    20587832.3294
  23907614.133    -8273912.161 8  -6431468.67445  23907614.243    23907626.2724
  21241162.430   -23400739.678 9 -18204858.36747  21241161.760    21241169.7574
  21716759.608   -20596173.688 8 -16008217.14147  21716758.771    21716767.6704
  23558736.871    -8565113.125 8  -6650205.25045  23558735.877    23558747.2214
  24619722.346    -5685746.603 7  -4095982.84445  24619721.692    24619736.4874
 02  1 26  3  4  0.0000000  0 10 26 10 18 06 23 30 17 15 22 21
  21981089.337   -15472919.803 8 -12027747.31646  21981089.299    21981097.6974
  23890814.196    -8666001.112 8  -6736438.29845  23890813.214    23890823.5584
  21630517.643   -19790342.876 9 -15389680.84847  21630517.115    21630524.7534
  20358813.542   -29905248.286 9 -23287772.51548  20358813.227    20358820.2364
  20591073.018   -23736318.589 9 -18472384.90548  20591072.387    20591079.6204
  23927101.184    -8171507.689 8  -6351673.12645  23927101.382    23927113.3564
  21235337.182   -23431351.258 9 -18228711.47447  21235336.503    21235344.4754
  21706908.159   -20647942.939 8 -16048556.70947  21706907.311    21706916.2054
  23553941.162    -8590314.190 8  -6669842.29045  23553940.157    23553951.3764
  24602398.249    -5776783.862 7  -4166920.66745  24602397.525    24602412.3654
 02  1 26  3  4 30.0000000  0 10 26 10 18 06 23 30 17 15 22 21
  21972304.662   -15519083.035 8 -12063718.55746  21972304.631    21972313.0034
  23910413.868    -8563004.296 8  -6656181.07245  23910412.846    23910423.2084
  21616538.163   -19863804.922 9 -15446923.86247  21616537.633    21616545.2344
  20363274.057   -29881808.082 9 -23269507.39548  20363273.739    20363280.7384
  20594405.898   -23718804.012 9 -18458737.13748  20594405.270    20594412.4694
  23946587.803    -8069106.021 8  -6271879.75345  23946587.901    23946599.9484
  21229541.706   -23461806.571 9 -18252442.81947  21229541.015    21229548.9714
  21697087.749   -20699549.172 8 -16088769.26047  21697086.890    21697095.7894
  23549247.119    -8614981.203 8  -6689063.19245  23549246.086    23549257.1794
  24585105.221    -5867658.094 7  -4237731.46545  24585104.617    24585119.2654
 02  1 26  3  5  0.0000000  0 10 26 10 18 06 23 30 17 15 22 21
  21963620.881   -15564715.961 8 -12099276.57146  21963620.852    21963629.2144
  23930028.347    -8459929.663 8  -6575863.21345  23930027.317    23930037.7484
  21602630.392   -19936890.241 9 -15503873.32547  21602629.861    21602637.4294
  20367825.768   -29857888.581 9 -23250868.79348  20367825.438    20367832.4214
  20597823.150   -23700846.071 9 -18444743.88948  20597822.524    20597829.7094
  23966072.352    -7966714.820 8  -6192094.54945  23966072.493    23966084.4404
  21223774.925   -23492110.870 9 -18276056.48447  21223774.237    21223782.1904
  21687297.374   -20750997.407 8 -16128858.69347  21687296.537    21687305.4104
  23544653.740    -8639118.874 8  -6707871.61445  23544652.716    23544663.7844
  24567842.486    -5958373.005 7  -4308418.10045  24567841.798    24567856.5204
 02  1 26  3  5 30.0000000  0 10 26 10 18 06 23 30 17 15 22 21
  21955038.811   -15609814.542 8 -12134418.21446  21955038.803    21955047.1104
  23949657.439    -8356778.051 8  -6495485.37245  23949656.328    23949666.7304
  21588794.824   -20009596.148 9 -15560527.13947  21588794.269    21588801.7964
  20372469.039   -29833487.907 9 -23231855.25648  20372468.723    20372475.7034
  20601324.744   -23682444.989 9 -18430405.33948  20601324.100    20601331.2884
  23985554.595    -7864335.613 8  -6112318.69945  23985554.656    23985566.6854
  21218037.173   -23522262.642 9 -18299551.29747  21218036.479    21218044.4284
  21677537.357   -20802286.218 8 -16168823.90147  21677536.504    21677545.3694
  23540161.416    -8662725.365 8  -6726266.12245  23540160.396    23540171.4284
  24550610.635    -6048925.489 7  -4378978.17345  24550610.006    24550624.6554
 02  1 26  3  6  0.0000000  0 10 26 10 18 06 23 30 17 15 22 21
  21946559.512   -15654372.990 8 -12169138.99446  21946559.493    21946567.8104
  23969301.427    -8253548.329 7  -6415046.63845  23969300.359    23969310.6554
  21575032.331   -20081918.090 9 -15616881.76747  21575031.767    21575039.2644
  20377204.551   -29808602.573 9 -23212464.06348  20377204.225    20377211.1924
  20604910.982   -23663598.874 9 -18415720.01948  20604910.347    20604917.5184
  24005034.578    -7761967.566 7  -6032551.54645  24005034.700    24005046.8114
  21212329.073   -23552258.639 9 -18322924.73147  21212328.371    21212336.3034
  21667808.334   -20853412.143 8 -16208662.19747  21667807.479    21667816.3194
  23535770.907    -8685796.954 8  -6744243.83445  23535769.886    23535780.9824
  24533410.540    -6139311.190 7  -4449408.29745  24533410.004    24533424.5144
 02  1 26  3  6 30.0000000  0 10 26 10 18 06 23 30 17 15 22 21
  21938182.379   -15698394.573 8 -12203441.42846  21938182.373    21938190.6564
  23988958.725    -8150248.516 7  -6334553.31045  23988957.600    23988968.0834
  21561342.056   -20153860.292 9 -15672940.48747  21561341.504    21561348.9494
  20382031.287   -29783237.903 9 -23192699.35848  20382030.954    20382037.9124
  20608580.583   -23644314.828 9 -18400693.44748  20608579.957    20608587.1044
  24024510.913    -7659619.227 7  -5952799.76045  24024511.017    24024523.1464
  21206649.540   -23582104.386 9 -18346181.08447  21206648.853    21206656.7774
  21658109.276   -20904380.777 8 -16248377.90747  21658108.414    21658117.2144
  23531481.175    -8708339.104 8  -6761809.00545  23531480.145    23531491.2014
  24516241.349    -6229534.673 7  -4519712.02045  24516240.751    24516255.2544
 02  1 26  3  7  0.0000000  0 10 26 10 18 06 23 30 17 15 22 21
  21929909.110   -15741870.677 8 -12237318.81546  21929909.050    21929917.3194
  24008630.024    -8046874.726 7  -6254002.33145  24008629.002    24008639.4754
  21547725.501   -20225415.258 9 -15728697.46547  21547724.941    21547732.3534
  20386950.475   -29757387.348 9 -23172556.04348  20386950.138    20386957.1064
  20612334.421   -23624588.182 9 -18385321.99248  20612333.778    20612340.9214
  24043984.195    -7557287.286 7  -5873060.74245  24043984.246    24043996.4764
  21200999.765   -23611793.866 9 -18369315.66647  21200999.064    21201006.9854
  21648441.348   -20955185.848 8 -16287966.15947  21648440.457    21648449.2334
  23527293.438    -8730345.375 8  -6778956.61345  23527292.435    23527303.4304
  24499104.526    -6319588.054 8  -4589883.20245  24499103.984    24499118.3454
 02  1 26  3  7 30.0000000  0 10 26 10 18 06 23 30 17 15 22 21
  21921738.797   -15784805.418 8 -12270774.35546  21921738.716    21921746.9774
  24028313.845    -7943435.582 7  -6173400.42445  24028312.705    24028323.3134
  21534181.569   -20296588.534 9 -15784157.02347  21534181.017    21534188.4084
  20391960.870   -29731057.343 9 -23152039.13348  20391960.550    20391967.5044
  20616170.915   -23604426.981 9 -18369611.93148  20616170.282    20616177.4154
  24063452.576    -7454980.887 7  -5793341.65145  24063452.678    24063464.9324
  21195378.437   -23641333.664 9 -18392333.61547  21195377.745    21195385.6444
  21638803.266   -21005833.736 8 -16327431.94947  21638802.389    21638811.1434
  23523206.444    -8751822.094 8  -6795691.57645  23523205.524    23523216.4044
  24481999.031    -6409477.009 8  -4659926.24745  24481998.476    24482012.7674
 02  1 26  3  8  0.0000000  0 10 26 10 18 06 23 30 17 15 22 21
  21913672.908   -15827191.610 8 -12303802.45146  21913672.820    21913681.0754
  24048010.578    -7839928.340 7  -6092745.46945  24048009.549    24048020.0634
  21520711.386   -20367374.122 9 -15839314.48847  21520710.832    21520718.2084
  20397063.493   -29704242.681 9 -23131144.56548  20397063.177    20397070.1434
  20620090.755   -23583827.893 9 -18353560.65548  20620090.119    20620097.2464
  24082916.568    -7352697.852 8  -5713640.76445  24082916.733    24082928.8914
  21189786.605   -23670718.773 9 -18415231.01947  21189785.917    21189793.7884
  21629196.062   -21056319.556 9 -16366771.44347  21629195.190    21629203.8804
  23519221.255    -8772763.922 8  -6812009.73545  23519220.313    23519231.1164
  24464926.082    -6499195.037 8  -4729836.10845  24464925.495    24464939.7484
 02  1 26  3  8 30.0000000  0 10 26 10 18 06 23 30 17 15 22 21
  21905711.436   -15869028.984 8 -12336402.90146  21905711.362    21905719.5614
  24067719.518    -7736357.501 7  -6012040.91945  24067718.575    24067728.8414
  21507314.798   -20437773.052 9 -15894170.66947  21507314.266    21507321.6184
  20402257.976   -29676945.352 9 -23109873.90348  20402257.661    20402264.6134
  20624093.224   -23562794.609 9 -18337171.05048  20624092.598    20624099.7024
  24102375.191    -7250443.205 8  -5633961.98645  24102375.362    24102387.4964
  21184223.791   -23699951.353 9 -18438009.58247  21184223.107    21184230.9354
  21619619.268   -21106645.585 9 -16405986.42947  21619618.420    21619627.0624
  23515337.447    -8793172.837 8  -6827912.65845  23515336.562    23515347.3064
  24447885.574    -6588742.766 8  -4799613.24245  24447885.012    24447899.0634
 02  1 26  3  9  0.0000000  0 10 26 10 18 06 23 30 17 15 22 21
  21897855.155   -15910313.568 8 -12368572.60746  21897855.100    21897863.2754
  24087440.404    -7632723.796 7  -5931287.41145  24087439.433    24087449.8024
  21493992.387   -20507782.358 9 -15948723.24447  21493991.829    21493999.1594
  20407544.649   -29649163.623 9 -23088225.78348  20407544.331    20407551.2804
  20628178.328   -23541327.035 9 -18320443.03248  20628177.700    20628184.7964
  24121828.186    -7148217.822 8  -5554306.01445  24121828.405    24121840.5364
  21178690.275   -23729030.017 9 -18460668.20547  21178689.568    21178697.3564
  21610073.215   -21156810.012 9 -16445075.48647  21610072.378    21610080.9834
  23511555.412    -8813047.147 8  -6843398.99345  23511554.520    23511565.1864
  24430877.915    -6678117.441 8  -4869255.52645  24430877.276    24430891.3734
 02  1 26  3  9 30.0000000  0 10 26 10 18 06 23 30 17 15 22 21
  21890103.884   -15951046.136 8 -12400312.17246  21890103.847    21890112.0184
  24107172.211    -7529032.090 7  -5850488.71445  24107171.362    24107181.7044
  21480743.751   -20577403.883 9 -16002973.65347  21480743.181    21480750.4744
  20412922.958   -29620900.297 9 -23066202.39048  20412922.648    20412929.5724
  20632345.252   -23519429.711 9 -18303380.14148  20632344.625    20632351.6934
  24141274.479    -7046027.503 8  -5474677.36045  24141274.703    24141286.8714
  21173185.526   -23757957.429 9 -18483208.95947  21173184.809    21173192.6114
  21600557.337   -21206815.790 9 -16484040.91447  21600556.516    21600565.1104
  23507874.519    -8832389.618 8  -6858470.90645  23507873.608    23507884.2954
  24413902.910    -6767320.991 8  -4938764.46845  24413902.188    24413916.1544
 02  1 26  3 10  0.0000000  0 10 26 10 18 06 23 30 17 15 22 21
  21882458.734   -15991221.393 8 -12431617.47346  21882458.709    21882466.8624
  24126915.298    -7425281.828 7  -5769644.39345  24126914.375    24126924.8894
  21467569.625   -20646633.729 9 -16056918.86747  21467569.071    21467576.3134
  20418393.504   -29592152.309 9 -23043801.34648  20418393.191    20418400.1164
  20636594.185   -23497101.291 9 -18285981.33848  20636593.544    20636600.5814
  24160714.084    -6943871.999 8  -5395075.83345  24160714.335    24160726.5724
  21167710.069   -23786730.827 9 -18505629.71047  21167709.360    21167717.1424
  21591072.202   -21256660.160 8 -16522880.57547  21591071.393    21591079.9434
  23504295.494    -8851197.065 8  -6873125.92745  23504294.536    23504305.3044
  24396961.095    -6856349.320 7  -5008136.85245  24396960.507    24396974.3014
 02  1 26  3 10 30.0000000  0 10 26 10 18 06 23 30 17 15 22 21
  21874919.719   -16030838.868 8 -12462488.13346  21874919.678    21874927.8014
  24146668.730    -7321476.914 8  -5688757.48345  24146667.879    24146678.2824
  21454469.945   -20715472.479 9 -16110559.32147  21454469.400    21454476.6094
  20423955.955   -29562921.431 9 -23021024.01948  20423955.650    20423962.5484
  20640924.501   -23474345.237 9 -18268249.31048  20640923.856    20640930.8964
  24180146.207    -6841755.947 8  -5315505.03945  24180146.433    24180158.7254
  21162263.586   -23815352.042 9 -18527931.86847  21162262.880    21162270.6444
  21581617.436   -21306344.780 8 -16561595.75747  21581616.628    21581625.1644
  23500817.886    -8869471.334 8  -6887365.47645  23500816.993    23500827.7224
  24380052.607    -6945202.630 7  -5077372.85245  24380052.012    24380065.8444
 02  1 26  3 11  0.0000000  0 10 26 10 18 06 23 30 17 15 22 21
  21867487.414   -16069895.689 8 -12492921.92346  21867487.364    21867495.4514
  24166432.255    -7217619.053 8  -5607829.29445  24166431.378    24166441.8344
  21441444.964   -20783918.566 9 -16163893.81247  21441444.417    21441451.6164
  20429610.453   -29533206.905 9 -22997869.82848  20429610.135    20429617.0194
  20645336.015   -23451162.471 9 -18250184.78047  20645335.372    20645342.3884
  24199570.475    -6739681.241 8  -5235966.47945  24199570.675    24199583.0184
  21156846.138   -23843820.390 9 -18550114.91347  21156845.431    21156853.2024
  21572193.222   -21355868.705 8 -16600185.71747  21572192.412    21572200.9574
  23497441.958    -8887211.525 8  -6901188.85945  23497441.010    23497451.7294
  24363177.643    -7033879.252 7  -5146471.16845  24363176.995    24363190.7844
 02  1 26  3 11 30.0000000  0 10 26 10 18 06 23 30 17 15 22 21
  21860162.438   -16108388.235 8 -12522916.01946  21860162.385    21860170.4824
  24186205.803    -7113708.655 8  -5526860.16045  24186204.969    24186215.3034
  21428495.282   -20851969.025 9 -16216920.02447  21428494.732    21428501.9184
  20435357.315   -29503006.897 9 -22974337.33748  20435356.997    20435363.8764
  20649828.695   -23427553.120 9 -18231787.84647  20649828.062    20649835.0564
  24218986.689    -6637649.124 8  -5156461.09945  24218986.874    24218999.2054
  21151458.134   -23872134.207 9 -18572177.55247  21151457.431    21151465.1634
  21562799.944   -21405230.438 8 -16638649.30047  21562799.125    21562807.6554
  23494167.954    -8904416.128 8  -6914594.89946  23494167.067    23494177.7264
  24346336.745    -7122376.401 7  -5215429.64645  24346336.134    24346349.9394
 02  1 26  3 12  0.0000000  0 10 26 10 18 06 23 30 17 15 22 21
  21852944.814   -16146316.721 8 -12552470.58746  21852944.741    21852952.8174
  24205988.401    -7009750.407 8  -5445853.76445  24205987.593    24205997.9704
  21415620.631   -20919625.367 9 -16269639.13247  21415620.095    21415627.2484
  20441196.087   -29472323.769 9 -22950428.39148  20441195.765    20441202.6684
  20654401.770   -23403521.264 9 -18213061.68647  20654401.136    20654408.1314
  24238393.846    -6535664.783 7  -5076992.93145  24238393.999    24238406.2484
  21146099.041   -23900296.150 9 -18594121.84747  21146098.341    21146106.0354
  21553437.109   -21454432.127 8 -16676988.16547  21553436.287    21553444.7944
  23490995.374    -8921087.606 8  -6927585.52146  23490994.433    23491005.1004
  24329529.990    -7210694.940 7  -5284248.95945  24329529.309    24329543.1654
 02  1 26  3 12 30.0000000  0 10 26 10 18 06 23 30 17 15 22 21
  21845835.333   -16183677.070 8 -12581582.44547  21845835.273    21845843.3254
  24225780.023    -6905744.428 7  -5364810.17345  24225779.252    24225789.6834
  21402821.503   -20986884.766 9 -16322048.94147  21402820.975    21402828.0924
  20447127.186   -29441155.585 9 -22926141.47747  20447126.869    20447133.7474
  20659055.295   -23379066.659 9 -18194006.11347  20659054.664    20659061.6514
  24257791.617    -6433728.839 7  -4997562.49245  24257791.740    24257804.0924
  21140769.263   -23928303.980 9 -18615946.06547  21140768.571    21140776.2544
  21544105.044   -21503471.951 9 -16715200.89947  21544104.217    21544112.6974
  23487924.630    -8937223.739 8  -6940158.99746  23487923.689    23487934.3504
  24312757.854    -7298831.816 7  -5352926.71145  24312757.178    24312770.9254
 02  1 26  3 13  0.0000000  0 10 26 10 18 06 23 30 17 15 22 21
  21838834.097   -16220468.378 8 -12610250.89847  21838834.040    21838842.0654
  24245580.160    -6801694.312 7  -5283732.19845  24245579.335    24245589.8654
  21390097.902   -21053747.280 9 -16374149.48247  21390097.374    21390104.4334
  20453150.325   -29409503.679 9 -22901477.63747  20453150.009    20453156.8654
  20663788.742   -23354192.087 9 -18174623.29347  20663788.107    20663795.0884
  24277179.553    -6331845.218 7  -4918172.80345  24277179.757    24277192.0674
  21135468.554   -23956159.078 9 -18637651.27147  21135467.860    21135475.5204
  21534803.483   -21552351.397 9 -16753288.66347  21534802.666    21534811.1314
  23484955.503    -8952826.236 8  -6952316.64146  23484954.555    23484965.1584
  24296020.365    -7386787.127 8  -5421463.04345  24296019.706    24296033.2094
 02  1 26  3 13 30.0000000  0 10 26 10 18 06 23 30 17 15 22 21
  21831941.533   -16256688.519 8 -12638474.28947  21831941.502    21831949.4884
  24265388.412    -6697601.944 8  -5202621.26545  24265387.531    24265397.9944
  21377449.997   -21120212.192 9 -16425940.21147  21377449.460    21377456.4704
  20459265.530   -29377368.032 9 -22876436.86447  20459265.215    20459272.0454
  20668601.757   -23328899.282 9 -18154914.57647  20668601.105    20668608.1004
  24296556.939    -6230016.593 7  -4838825.98045  24296557.163    24296569.5304
  21130196.922   -23983861.420 9 -18659237.44147  21130196.230    21130203.8824
  21525532.537   -21601070.203 8 -16791251.26247  21525531.705    21525540.1214
  23482087.979    -8967894.726 8  -6964058.18346  23482087.029    23482097.6244
  24279317.561    -7474560.005 7  -5489857.20045  24279316.979    24279330.2194
 02  1 26  3 14  0.0000000  0 10 26 10 18 06 23 30 17 15 22 21
  21825157.858   -16292336.546 8 -12666251.86847  21825157.798    21825165.8014
  24285203.993    -6593470.701 7  -5121480.04345  24285203.153    24285213.4904
  21364877.710   -21186279.458 9 -16477421.08447  21364877.174    21364884.1924
  20465472.549   -29344749.826 9 -22851020.06547  20465472.228    20465479.0604
  20673493.814   -23303191.060 9 -18134882.15647  20673493.179    20673500.1654
  24315923.067    -6128246.932 7  -4759525.10245  24315923.436    24315935.7374
  21124954.098   -24011412.126 9 -18680705.46647  21124953.419    21124961.0764
  21516291.978   -21649629.321 9 -16829089.42747  21516291.152    21516299.5134
  23479321.825    -8982430.617 8  -6975384.72146  23479320.865    23479331.4254
  24262649.443    -7562150.566 8  -5558109.28945  24262648.808    24262661.9704
 02  1 26  3 14 30.0000000  0 10 26 10 18 06 23 30 17 15 22 21
  21818484.241   -16327406.499 8 -12693579.00347  21818484.198    21818492.1294
  24305027.235    -6489298.537 7  -5040306.95745  24305026.381    24305036.8974
  21352382.097   -21251943.781 9 -16528587.98147  21352381.564    21352388.5824
  20471772.172   -29311644.931 9 -22825224.03447  20471771.847    20471778.6824
  20678465.452   -23277065.023 9 -18114524.16847  20678464.807    20678471.7744
  24335278.274    -6026534.686 7  -4680268.98645  24335278.477    24335291.1054
  21119740.964   -24038807.124 9 -18702052.15047  21119740.298    21119747.9404
  21507082.619   -21698024.613 9 -16866799.94247  21507081.777    21507090.0734
  23476657.683    -8996429.839 8  -6986293.07746  23476656.769    23476667.3064
  24246017.049    -7649553.037 8  -5626214.82145  24246016.393    24246029.5644
 02  1 26  3 15  0.0000000  0 10 26 10 18 06 23 30 17 15 22 21
  21811920.267   -16361899.923 8 -12720456.89047  21811920.212    21811928.1274
  24324857.195    -6385091.595 7  -4959106.75945  24324856.302    24324866.8064
  21339962.591   -21317208.227 9 -16579443.28247  21339962.042    21339969.0334
  20478163.743   -29278057.103 9 -22799051.68747  20478163.413    20478170.2544
  20683515.537   -23250526.536 9 -18093844.78347  20683514.881    20683521.8454
  24354621.504    -5924886.175 7  -4601062.53045  24354621.656    24354634.3894
  21114556.755   -24066050.016 9 -18723280.31047  21114556.087    21114563.7184
  21497903.714   -21746259.694 9 -16904385.61747  21497902.872    21497911.1334
  23474095.071    -9009896.377 8  -6996786.36446  23474094.182    23474104.5314
  24229419.981    -7736770.211 8  -5694175.96445  24229419.273    24229432.4844
 02  1 26  3 15 30.0000000  0 10 26 10 18 06 23 30 17 15 22 21
  21805466.517   -16395814.140 8 -12746883.44947  21805466.480    21805474.3624
  24344693.557    -6280851.069 7  -4877880.39245  24344692.750    24344702.9704
  21327619.550   -21382071.025 9 -16629985.61247  21327619.007    21327625.9354
  20484647.290   -29243985.787 9 -22772502.59847  20484646.964    20484653.7864
  20688643.881   -23223576.613 9 -18072844.79947  20688643.231    20688650.1824
  24373952.249    -5823303.402 7  -4521907.29345  24373952.264    24373965.1914
  21109401.686   -24093140.038 9 -18744389.35447  21109401.006    21109408.5984
  21488755.413   -21794333.924 9 -16941845.96447  21488754.575    21488762.8364
  23471633.914    -9022829.447 8  -7006863.95746  23471633.047    23471643.3204
  24212858.527    -7823800.006 8  -5761991.10345  24212857.977    24212871.0374
 02  1 26  3 16  0.0000000  0 10 26 10 18 06 23 30 17 15 22 21
  21799123.437   -16429146.729 8 -12772856.79347  21799123.431    21799131.2714
  24364536.097    -6176578.434 7  -4796628.99845  24364535.204    24364545.5424
  21315353.176   -21446530.803 9 -16680213.90447  21315352.629    21315359.5224
  20491222.874   -29209430.745 9 -22745576.58147  20491222.542    20491229.3654
  20693850.291   -23196216.640 9 -18051525.29647  20693849.646    20693856.5964
  24393269.964    -5721788.730 7  -4442805.12145  24393270.060    24393283.0054
  21104275.754   -24120076.694 9 -18765378.89447  21104275.084    21104282.6464
  21479637.833   -21842246.611 9 -16979180.42747  21479636.987    21479645.2224
  23469274.277    -9035228.740 8  -7016525.62046  23469273.420    23469283.7204
  24196333.078    -7910640.762 8  -5829658.93445  24196332.468    24196345.5374
 02  1 26  3 16 30.0000000  0 10 26 10 18 06 23 30 17 15 22 21
  21792891.687   -16461894.227 8 -12798374.22147  21792891.695    21792899.5054
  24384384.586    -6072274.264 7  -4715353.03845  24384383.724    24384393.8834
  21303163.975   -21510584.960 9 -16730126.12647  21303163.417    21303170.2984
  20497890.826   -29174390.324 9 -22718272.35047  20497890.496    20497897.3224
  20699134.672   -23168446.730 9 -18029886.36347  20699134.028    20699140.9574
  24412574.603    -5620342.964 7  -4363756.65145  24412574.696    24412587.5884
  21099179.342   -24146858.290 9 -18786247.60847  21099178.673    21099186.1994
  21470551.322   -21889996.040 9 -17016387.68047  21470550.497    21470558.7034
  23467016.478    -9047092.970 8  -7025770.36646  23467015.564    23467025.9264
  24179844.047    -7997290.192 8  -5897177.68945  24179843.443    24179856.4164
 02  1 26  3 17  0.0000000  0 10 26 10 18 06 23 30 17 15 22 21
  21786771.333   -16494056.497 8 -12823435.63347  21786771.352    21786779.1184
  24404238.177    -5967942.747 7  -4634055.75945  24404237.179    24404247.6614
  21291051.763   -21574234.595 9 -16779723.13947  21291051.212    21291058.1024
  20504650.736   -29138866.717 9 -22690591.60247  20504650.406    20504657.2574
  20704496.377   -23140270.637 9 -18007930.91947  20704495.746    20704502.6724
  24431865.294    -5518970.792 7  -4284765.49845  24431865.451    24431878.2664
  21094112.109   -24173486.710 9 -18806996.95947  21094111.411    21094118.9454
  21461495.515   -21937584.190 9 -17053469.25847  21461494.697    21461502.8964
  23464860.168    -9058424.236 8  -7034599.81546  23464859.216    23464869.5524
  24163391.217    -8083748.907 8  -5964547.83645  24163390.693    24163403.6444
 02  1 26  3 17 30.0000000  0 10 26 10 18 06 23 30 17 15 22 21
  21780762.670   -16525631.932 8 -12848039.77347  21780762.652    21780770.3974
  24424096.544    -5863585.797 7  -4552738.68345  24424095.701    24424106.0434
  21279016.629   -21637479.069 9 -16829004.45347  21279016.094    21279022.9454
  20511502.516   -29102860.164 9 -22662534.53947  20511502.202    20511509.0454
  20709935.002   -23111690.337 9 -17985660.51447  20709934.361    20709941.2764
  24451141.444    -5417674.910 8  -4205833.82145  24451141.637    24451154.4694
  21089073.892   -24199962.315 9 -18827627.23447  21089073.209    21089080.7144
  21452470.386   -21985011.113 9 -17090425.20947  21452469.565    21452477.7674
  23462805.109    -9069223.118 8  -7043014.42546  23462804.159    23462814.4744
  24146974.923    -8170016.122 8  -6031768.75945  24146974.428    24146987.3064
 02  1 26  3 18  0.0000000  0 10 26 10 18 06 23 30 17 15 22 21
  21774866.218   -16556617.396 8 -12872184.19447  21774866.224    21774873.9244
  24443959.575    -5759204.386 7  -4471402.50145  24443958.630    24443969.0544
  21267059.103   -21700315.999 9 -16877968.18947  21267058.542    21267065.3774
  20518446.486   -29066369.478 9 -22634100.22647  20518446.175    20518452.9954
  20715450.510   -23082706.089 9 -17963075.34347  20715449.853    20715456.7654
  24470402.808    -5316456.731 8  -4126962.69345  24470403.022    24470415.8554
  21084065.064   -24226283.442 9 -18848137.13947  21084064.386    21084071.8924
  21443476.205   -22032275.455 9 -17127254.48047  21443475.381    21443483.5704
  23460851.606    -9079488.262 8  -7051013.15346  23460850.641    23460860.9364
  24130595.633    -8256089.202 8  -6098838.40445  24130594.988    24130607.8124
 02  1 26  3 18 30.0000000  0 10 26 10 18 06 23 30 17 15 22 21
  21769082.041   -16587013.219 8 -12895869.15847  21769082.018    21769089.6654
  24463826.608    -5654802.679 7  -4390050.50845  24463825.586    24463835.9834
  21255178.806   -21762747.069 9 -16926615.67947  21255178.246    21255185.0354
  20525482.031   -29029397.220 9 -22605290.66447  20525481.725    20525488.5444
  20721042.006   -23053322.266 9 -17940178.81947  20721041.362    20721048.2654
  24489648.407    -5215321.148 7  -4048155.92445  24489648.579    24489661.5054
  21079085.200   -24252452.632 9 -18868528.65747  21079084.503    21079091.9954
  21434512.530   -22079379.358 9 -17163958.73347  21434511.717    21434519.8954
  23458999.115    -9089222.478 8  -7058598.15846  23458998.114    23459008.4104
  24114252.862    -8341969.420 8  -6165757.76645  24114252.231    24114265.0224
 02  1 26  3 19  0.0000000  0 10 26 10 18 06 23 30 17 15 22 21
  21763411.250   -16616813.011 8 -12919089.68947  21763411.254    21763418.8404
  24483698.016    -5550378.097 7  -4308680.71445  24483697.040    24483707.2594
  21243376.746   -21824766.712 9 -16974942.57647  21243376.177    21243382.9704
  20532610.128   -28991938.839 9 -22576102.30247  20532609.820    20532616.6364
  20726710.171   -23023535.667 9 -17916968.44647  20726709.548    20726716.4204
  24508878.691    -5114266.017 7  -3969411.83845  24508878.906    24508891.9034
  21074135.195   -24278464.763 9 -18888797.78747  21074134.510    21074141.9744
  21425580.365   -22126317.902 9 -17200534.13347  21425579.550    21425587.7064
  23457248.480    -9098421.121 8  -7065765.83445  23457247.536    23457257.8514
  24097948.044    -8427650.651 8  -6232522.06645  24097947.548    24097960.1254
 02  1 26  3 19 30.0000000  0 10 26 10 18 06 23 30 17 15 22 21
  21757853.122   -16646020.544 8 -12941848.71647  21757853.142    21757860.7284
  24503572.138    -5445938.339 7  -4227299.08645  24503571.031    24503581.4244
  21231652.139   -21886379.461 9 -17022952.40947  21231651.584    21231658.3574
  20539829.562   -28954000.389 9 -22546539.85947  20539829.242    20539836.0504
  20732453.577   -22993353.756 9 -17893450.03647  20732452.932    20732459.7984
  24528092.001    -5013299.656 7  -3890736.93345  24528092.325    24528105.3704
  21069214.029   -24304325.445 9 -18908948.90747  21069213.347    21069220.7974
  21416678.612   -22173096.750 9 -17236985.09147  21416677.763    21416685.8944
  23455598.721    -9107090.300 8  -7072520.94646  23455597.808    23455608.0874
  24081680.235    -8513137.574 7  -6299134.93845  24081679.671    24081692.1754
 02  1 26  3 20  0.0000000  0 10 26 10 18 06 23 30 17 15 22 21
  21752408.938   -16674629.661 8 -12964141.45347  21752408.931    21752416.5184
  24523449.707    -5341480.759 7  -4145903.56345  24523448.539    24523459.0974
  21220006.012   -21947580.112 9 -17070641.13747  21220005.456    21220012.1804
  20547141.231   -28915577.365 9 -22516599.82847  20547140.900    20547147.7204
  20738272.734   -22962773.780 9 -17869621.45247  20738272.103    20738278.9554
  24547288.824    -4912419.979 7  -3812129.59245  24547289.076    24547302.3304
  21064322.570   -24330030.024 9 -18928978.38347  21064321.883    21064329.3114
  21407808.093   -22219711.258 9 -17273307.99747  21407807.244    21407815.3764
  23454050.553    -9115225.702 8  -7078860.13346  23454049.600    23454059.8834
  24065450.321    -8598424.884 7  -6365592.26445  24065449.786    24065462.1994
 02  1 26  3 20 30.0000000  0 10 26 10 18 06 23 30 17 15 22 21
  21747078.512   -16702641.077 8 -12985968.45247  21747078.481    21747086.0414
  24543329.936    -5237009.999 7  -4064497.76245  24543328.986    24543339.3194
  21208437.896   -22008370.595 9 -17118010.24547  21208437.334    21208444.0204
  20554544.519   -28876672.912 9 -22486284.65547  20554544.205    20554550.9634
  20744166.747   -22931800.374 9 -17845486.29547  20744166.103    20744172.9464
  24566468.278    -4811632.268 7  -3733593.91945  24566468.448    24566481.7104
  21059460.325   -24355581.123 9 -18948888.25747  21059459.630    21059467.0554
  21398968.421   -22266163.799 9 -17309504.69147  21398967.583    21398975.6784
  23452603.293    -9122830.435 8  -7084785.81246  23452602.392    23452612.7114
  24049258.080    -8683513.988 7  -6431895.14445  24049257.616    24049270.0394
 02  1 26  3 21  0.0000000  0 10 26 10 18 06 23 30 17 15 22 21
  21741861.972   -16730053.909 8 -13007329.02547  21741861.932    21741869.4674
  24563212.022    -5132529.008 7  -3983084.02145  24563210.993    24563221.3884
  21196947.833   -22068750.821 9 -17165059.67747  21196947.279    21196953.9684
  20562039.193   -28837287.934 9 -22455595.04847  20562038.877    20562045.6484
  20750135.181   -22900435.854 9 -17821046.37647  20750134.531    20750141.3814
  24585629.500    -4710939.720 7  -3655132.34545  24585629.653    24585643.0734
  21054627.129   -24380979.293 9 -18968678.97047  21054626.435    21054633.8504
  21390159.474   -22312454.703 9 -17345575.44047  21390158.611    21390166.6854
  23451256.860    -9129905.561 8  -7090298.80146  23451255.974    23451266.2894
  24033103.848    -8768404.195 8  -6498043.04345  24033103.289    24033115.7234
 02  1 26  3 21 30.0000000  0 10 26 10 18 06 23 30 17 15 22 21
  21736760.066   -16756864.170 8 -13028220.06247  21736760.034    21736767.5514
  24583096.151    -5028037.337 7  -3901661.96245  24583095.208    24583105.5324
  21185536.441   -22128717.679 9 -17211787.00147  21185535.899    21185542.5514
  20569625.701   -28797420.448 9 -22424529.45947  20569625.395    20569632.1834
  20756178.152   -22868679.767 9 -17796301.34147  20756177.507    20756184.3414
  24604772.588    -4610342.619 7  -3576745.18545  24604772.720    24604786.3084
  21049823.518   -24406222.258 9 -18988348.75147  21049822.831    21049830.2194
  21381381.737   -22358581.805 9 -17381518.55447  21381380.878    21381388.9154
  23450011.559    -9136449.285 8  -7095397.71846  23450010.666    23450020.9604
  24016988.045    -8853092.370 8  -6564033.52045  24016987.476    24016999.6274
 02  1 26  3 22  0.0000000  0 10 26 10 18 06 23 30 17 15 22 21
  21731773.352   -16783069.463 8 -13048639.70447  21731773.316    21731780.7824
  24602982.018    -4923536.227 7  -3820232.53045  24602981.121    24602991.4634
  21174204.028   -22188269.620 9 -17258191.01647  21174203.474    21174210.1064
  20577304.124   -28757069.992 9 -22393087.53447  20577303.819    20577310.6054
  20762295.385   -22836533.315 9 -17771252.12847  20762294.733    20762301.5524
  24623897.207    -4509842.866 7  -3498433.86245  24623897.150    24623911.1354
  21045049.597   -24431309.133 9 -19007896.90347  21045048.906    21045056.2604
  21372635.262   -22404544.442 9 -17417333.51047  21372634.413    21372642.4274
  23448867.454    -9142461.300 8  -7100082.31146  23448866.568    23448876.7764
  24000910.946    -8937577.159 8  -6629865.51645  24000910.306    24000922.4084
 02  1 26  3 22 30.0000000  0 10 26 10 18 06 23 30 17 15 22 21
  21726901.568   -16808670.478 8 -13068588.47747  21726901.509    21726908.9684
  24622868.913    -4819029.695 7  -3738798.89245  24622867.964    24622878.4454
  21162950.262   -22247408.151 9 -17304272.88747  21162949.695    21162956.3124
  20585073.954   -28716239.174 9 -22361271.29647  20585073.650    20585080.4504
  20768486.134   -22804000.659 9 -17745901.97347  20768485.487    20768492.3054
  24643002.206    -4409445.269 7  -3420202.14345  24643002.315    24643016.2684
  21040304.983   -24456242.005 9 -19027325.05147  21040304.291    21040311.6144
  21363919.731   -22450344.591 9 -17453021.84547  21363918.877    21363926.8624
  23447824.085    -9147944.168 8  -7104354.57646  23447823.190    23447833.3254
  23984872.326    -9021859.512 8  -6695539.79245  23984871.669    23984883.6414
 02  1 26  3 23  0.0000000  0 10 26 10 18 06 23 30 17 15 22 21
  21722145.232   -16833664.973 8 -13088064.62947  21722145.182    21722152.6374
  24642756.671    -4714519.107 7  -3657362.05745  24642755.755    24642766.1354
  21151775.410   -22306131.859 9 -17350031.52147  21151774.871    21151781.4544
  20592935.275   -28674927.682 9 -22329080.51047  20592934.958    20592941.7544
  20774750.119   -22771082.927 9 -17720251.75947  20774749.470    20774756.2834
  24662087.435    -4309151.842 7  -3342051.61845  24662087.642    24662101.4484
  21035589.833   -24481020.181 9 -19046632.66347  21035589.125    21035596.4324
  21355235.254   -22495981.365 9 -17488582.87247  21355234.399    21355242.3754
  23446881.370    -9152898.082 8  -7108214.67446  23446880.403    23446890.5474
  23968872.492    -9105937.741 8  -6761055.01545  23968871.866    23968883.7054
